[[{"header":{"parameterUnit":"m.s-1","parameterCategory":1,"la1":31.0,"la2":29.5877,"lo1":-88.7671,"lo2":-86.6584,"dy":0.0162,"dx":0.0185,"nx":115,"ny":88,"refTime":"2026-03-24T12:00:00:Z","depth":0,"parameterNumber":2,"parameterNumberName":"U-component_of_WINDS"},"data":[0.0,0.0,0.0,0.0,0.0,0.0,0.0,0.0,0.0,0.0,0.0,0.0,0.0,0.0,0.0,0.0,0.0,0.0,0.0,0.0,0.0,0.0,0.0,0.0,0.0,0.0,0.0,0.0,0.0,0.0,0.0,0.0,0.0,0.0,0.0,0.0,0.0,0.0,0.0,0.0,0.0,0.0,0.0,0.0,0.0,0.0,0.0,0.0,0.0,0.0,0.0,0.0,0.0,0.0,0.0,0.0,0.0,0.0,0.0,0.0,0.0,0.0,0.0,0.0,0.0,0.0,0.0,0.0,0.0,0.0,0.0,0.0,0.0,0.0,0.0,0.0,0.0,0.0,0.0,0.0,0.0,0.0,0.0,0.0,0.0,0.0,0.0,0.0,0.0,0.0,0.0,0.0,0.0,0.0,0.0,0.0,0.0,0.0,0.0,0.0,0.0,0.0,0.0,0.0,0.0,0.0,0.0,0.0,0.0,0.0,0.0,0.0,0.0,0.0,0.0,0.0,0.0,0.0,0.0,0.0,0.0,0.0,0.0,0.0,0.0,0.0,0.0,0.0,0.0,0.0,0.0,0.0,0.0,0.0,0.0,0.0,0.0,0.0,0.0,0.0,0.0,0.0,0.0,0.0,0.0,0.0,0.0,0.0,0.0,0.0,0.0,0.0,0.0,0.0,0.0,0.0,0.0,0.0,0.0,0.0,0.0,0.0,0.0,0.0,0.0,0.0,0.0,0.0,0.0,0.0,0.0,0.0,0.0,0.0,0.0,0.0,0.0,0.0,0.0,0.0,0.0,0.0,0.0,0.0,0.0,0.0,0.0,0.0,0.0,0.0,0.0,0.0,0.0,0.0,0.0,0.0,0.0,0.0,0.0,0.0,0.0,0.0,0.0,0.0,0.0,0.0,0.0,0.0,0.0,0.0,0.0,0.0,0.0,0.0,0.0,0.0,0.0,0.0,0.0,0.0,0.0,0.0,0.0,0.0,0.0,0.0,0.0,0.0,0.0,0.0,0.0,0.0,0.0,0.0,0.0,0.0,0.0,0.0,0.0,0.0,0.0,0.0,0.0,0.0,0.0,0.0,0.0,0.0,0.0,0.0,0.0,0.0,0.0,0.0,0.0,0.0,0.0,0.0,0.0,0.0,0.0,0.0,0.0,0.0,0.0,0.0,0.0,0.0,0.0,0.0,0.0,0.0,0.0,0.0,0.0,0.0,0.0,0.0,0.0,0.0,0.0,0.0,0.0,0.0,0.0,0.0,0.0,0.0,0.0,0.0,0.0,0.0,0.0,0.0,0.0,0.0,0.0,0.0,0.0,0.0,0.0,0.0,0.0,0.0,0.0,0.0,0.0,0.0,0.0,0.0,0.0,0.0,0.0,0.0,0.0,0.0,0.0,0.0,0.0,0.0,0.0,0.0,0.0,0.0,0.0,0.0,0.0,0.0,0.0,0.0,0.0,0.0,0.0,0.0,0.0,0.0,0.0,0.0,0.0,0.0,0.0,0.0,0.0,0.0,0.0,0.0,0.0,0.0,0.0,0.0,0.0,0.0,0.0,0.0,0.0,0.0,0.0,0.0,0.0,0.0,0.0,0.0,0.0,0.0,0.0,0.0,0.0,0.0,0.0,0.0,0.0,0.0,0.0,0.0,0.0,0.0,0.0,0.0,0.0,0.0,0.0,0.0,0.0,0.0,0.0,0.0,0.0,0.0,0.0,0.0,0.0,0.0,0.0,0.0,0.0,0.0,0.0,0.0,0.0,0.0,0.0,0.0,0.0,0.0,0.0,0.0,0.0,0.0,0.0,0.0,0.0,0.0,0.0,0.0,0.0,0.0,0.0,0.0,0.0,0.0,0.0,0.0,0.0,0.0,0.0,0.0,0.0,0.0,0.0,0.0,0.0,0.0,0.0,0.0,0.0,0.0,0.0,0.0,0.0,0.0,0.0,0.0,0.0,0.0,0.0,0.0,0.0,0.0,0.0,0.0,0.0,0.0,0.0,0.0,0.0,0.0,0.0,0.0,0.0,0.0,0.0,0.0,0.0,0.0,0.0,0.0,0.0,0.0,0.0,0.0,0.0,0.0,0.0,0.0,0.0,0.0,0.0,0.0,0.0,0.0,0.0,0.0,0.0,0.0,0.0,0.0,0.0,0.0,0.0,0.0,0.0,0.0,0.0,0.0,0.0,0.0,0.0,0.0,0.0,0.0,0.0,0.0,0.0,0.0,0.0,0.0,0.0,0.0,0.0,0.0,0.0,0.0,0.0,0.0,0.0,0.0,0.0,0.0,0.0,0.0,0.0,0.0,0.0,0.0,0.0,0.0,0.0,0.0,0.0,0.0,0.0,0.0,0.0,0.0,0.0,0.0,0.0,0.0,0.0,0.0,0.0,0.0,0.0,0.0,0.0,0.0,0.0,0.0,0.0,0.0,0.0,0.0,0.0,0.0,0.0,0.0,0.0,0.0,0.0,0.0,0.0,0.0,0.0,0.0,0.0,0.0,0.0,0.0,0.0,0.0,0.0,0.0,0.0,0.0,0.0,0.0,0.0,0.0,0.0,0.0,0.0,0.0,0.0,0.0,0.0,0.0,0.0,0.0,0.0,0.0,0.0,0.0,0.0,0.0,0.0,0.0,0.0,0.0,0.0,0.0,0.0,0.0,0.0,0.0,0.0,0.0,0.0,0.0,0.0,0.0,0.0,0.0,0.0,0.0,0.0,0.0,0.0,0.0,0.0,0.0,0.0,0.0,0.0,0.0,0.0,0.0,0.0,0.0,0.0,0.0,0.0,0.0,0.0,0.0,0.0,0.0,0.0,0.0,0.0,0.0,0.0,0.0,0.0,0.0,0.0,0.0,0.0,0.0,0.0,0.0,0.0,0.0,0.0,0.0,0.0,0.0,0.0,0.0,0.0,0.0,0.0,0.0,0.0,0.0,0.0,0.0,0.0,0.0,0.0,0.0,0.0,0.0,0.0,0.0,0.0,0.0,0.0,0.0,0.0,0.0,0.0,0.0,0.0,0.0,0.0,0.0,0.0,0.0,0.0,0.0,0.0,0.0,0.0,0.0,0.0,0.0,0.0,0.0,0.0,0.0,0.0,0.0,0.0,0.0,0.0,0.0,0.0,0.0,0.0,0.0,0.0,0.0,0.0,0.0,0.0,0.0,0.0,0.0,0.0,0.0,0.0,0.0,0.0,0.0,0.0,0.0,0.0,0.0,0.0,0.0,0.0,0.0,0.0,0.0,0.0,0.0,0.0,0.0,0.0,0.0,0.0,0.0,0.0,0.0,0.0,0.0,0.0,0.0,0.0,0.0,0.0,0.0,0.0,0.0,0.0,0.0,0.0,0.0,0.0,0.0,0.0,0.0,0.0,0.0,0.0,0.0,0.0,0.0,0.0,0.0,0.0,0.0,0.0,0.0,0.0,0.0,0.0,0.0,0.0,0.0,0.0,0.0,0.0,0.0,0.0,0.0,0.0,0.0,0.0,0.0,0.0,0.0,0.0,0.0,0.0,0.0,0.0,0.0,0.0,0.0,0.0,0.0,0.0,0.0,0.0,0.0,0.0,0.0,0.0,0.0,0.0,0.0,0.0,0.0,0.0,0.0,0.0,0.0,0.0,0.0,0.0,0.0,0.0,0.0,0.0,0.0,0.0,0.0,0.0,0.0,0.0,0.0,0.0,0.0,0.0,0.0,0.0,0.0,0.0,0.0,0.0,0.0,0.0,0.0,0.0,0.0,0.0,0.0,0.0,0.0,0.0,0.0,0.0,0.0,0.0,0.0,0.0,0.0,0.0,0.0,0.0,0.0,0.0,0.0,0.0,0.0,0.0,0.0,0.0,0.0,0.0,0.0,0.0,0.0,0.0,0.0,0.0,0.0,0.0,0.0,0.0,0.0,0.0,0.0,0.0,0.0,0.0,0.0,0.0,0.0,0.0,0.0,0.0,0.0,0.0,0.0,0.0,0.0,0.0,0.0,0.0,0.0,0.0,0.0,0.0,0.0,0.0,0.0,0.0,0.0,0.0,0.0,0.0,0.0,0.0,0.0,0.0,0.0,0.0,0.0,0.0,0.0,0.0,0.0,0.0,0.0,0.0,0.0,0.0,0.0,0.0,0.0,0.0,0.0,0.0,0.0,0.0,0.0,0.0,0.0,0.0,0.0,0.0,0.0,0.0,0.0,0.0,0.0,0.0,0.0,0.0,0.0,0.0,0.0,0.0,0.0,0.0,0.0,0.0,0.0,0.0,0.0,0.0,0.0,0.0,0.0,-0.5885,0.0,0.0,0.0,0.0,0.0,0.0,0.0,0.0,0.0,0.0,0.0,0.0,0.0,0.0,0.0,0.0,0.0,0.0,0.0,0.0,0.0,0.0,0.0,0.0,0.0,0.0,0.0,0.0,0.0,0.0,0.0,0.0,0.0,0.0,0.0,0.0,0.0,0.0,0.0,0.0,0.0,0.0,0.0,0.0,0.0,0.0,0.0,0.0,0.0,0.0,0.0,0.0,0.0,0.0,0.0,0.0,0.0,0.0,0.0,0.0,0.0,0.0,0.0,0.0,0.0,0.0,0.0,0.0,0.0,0.0,0.0,0.0,0.0,0.0,0.0,0.0,0.0,0.0,0.0,0.0,0.0,0.0,0.0,0.0,0.0,0.0,0.0,0.0,0.0,0.0,0.0,0.0,0.0,0.0,0.0,0.0,0.0,0.0,0.0,0.0,0.0,0.0,0.0,0.0,0.0,0.0,0.0,0.0,0.0,0.0,-0.6355,-0.6335,-0.5705,-0.5361,-0.5354,0.0,0.0,0.0,0.0,0.0,0.0,0.0,0.0,0.0,0.0,0.0,0.0,0.0,0.0,0.0,0.0,0.0,0.0,0.0,0.0,0.0,0.0,0.0,0.0,0.0,0.0,0.0,0.0,0.0,0.0,0.0,0.0,0.0,0.0,0.0,0.0,0.0,0.0,0.0,0.0,0.0,0.0,0.0,0.0,0.0,0.0,0.0,0.0,0.0,0.0,0.0,0.0,0.0,0.0,0.0,0.0,0.0,0.0,0.0,0.0,0.0,0.0,0.0,0.0,0.0,0.0,0.0,0.0,0.0,0.0,0.0,0.0,0.0,0.0,0.0,0.0,0.0,0.0,0.0,0.0,0.0,0.0,0.0,0.0,0.0,0.0,0.0,0.0,0.0,0.0,0.0,0.0,0.0,0.0,0.0,0.0,0.0,0.0,0.0,0.0,0.0,0.0,0.0,0.0,0.0,0.0,0.0,0.0,0.0,0.0,0.0,0.0,-0.5391,-0.5132,-0.5154,0.0,0.0,0.0,0.0,0.0,0.0,0.0,0.0,0.0,0.0,0.0,0.0,0.0,0.0,0.0,0.0,0.0,0.0,0.0,0.0,0.0,0.0,0.0,0.0,0.0,0.0,0.0,0.0,0.0,0.0,0.0,0.0,0.0,0.0,0.0,0.0,0.0,0.0,0.0,0.0,0.0,0.0,0.0,0.0,0.0,0.0,0.0,0.0,0.0,0.0,0.0,0.0,0.0,0.0,0.0,0.0,0.0,0.0,0.0,0.0,0.0,0.0,0.0,0.0,0.0,0.0,0.0,0.0,0.0,0.0,0.0,0.0,0.0,0.0,0.0,0.0,0.0,0.0,0.0,0.0,0.0,0.0,0.0,0.0,0.0,0.0,0.0,0.0,0.0,0.0,0.0,0.0,0.0,0.0,0.0,0.0,0.0,0.0,0.0,0.0,0.0,0.0,0.0,0.0,0.0,0.0,0.0,0.0,0.0,0.0,-0.5272,-0.5862,-0.5829,0.0,-0.5884,0.0,0.0,0.0,0.0,0.0,0.0,0.0,0.0,0.0,0.0,0.0,0.0,0.0,0.0,0.0,0.0,0.0,0.0,0.0,0.0,0.0,0.0,0.0,0.0,0.0,0.0,0.0,0.0,0.0,0.0,0.0,0.0,0.0,0.0,0.0,0.0,0.0,0.0,0.0,0.0,0.0,0.0,0.0,0.0,0.0,0.0,0.0,0.0,0.0,0.0,0.0,0.0,0.0,0.0,0.0,0.0,0.0,0.0,0.0,0.0,0.0,0.0,0.0,0.0,0.0,0.0,0.0,0.0,0.0,0.0,0.0,0.0,0.0,0.0,0.0,0.0,0.0,0.0,0.0,0.0,0.0,0.0,0.0,0.0,0.0,0.0,0.0,0.0,0.0,0.0,0.0,0.0,0.0,0.0,0.0,0.0,0.0,0.0,0.0,0.0,0.0,0.0,0.0,0.0,0.0,0.0,0.0,0.0,0.0,0.0,0.0,-0.5294,-0.5309,-0.5496,0.0,0.0,0.0,0.0,0.0,0.0,0.0,0.0,0.0,0.0,0.0,0.0,0.0,0.0,0.0,0.0,0.0,0.0,0.0,0.0,0.0,0.0,0.0,0.0,0.0,0.0,0.0,0.0,0.0,0.0,0.0,0.0,0.0,0.0,0.0,0.0,0.0,0.0,0.0,0.0,0.0,0.0,0.0,0.0,0.0,0.0,0.0,0.0,0.0,0.0,0.0,0.0,0.0,0.0,0.0,0.0,0.0,0.0,0.0,0.0,0.0,0.0,0.0,0.0,0.0,0.0,0.0,0.0,0.0,0.0,0.0,0.0,0.0,0.0,0.0,0.0,0.0,0.0,0.0,0.0,0.0,0.0,0.0,0.0,0.0,0.0,0.0,0.0,0.0,0.0,0.0,0.0,0.0,0.0,0.0,0.0,0.0,0.0,0.0,0.0,0.0,0.0,0.0,0.0,0.0,0.0,0.0,0.0,0.0,0.0,-0.475,0.0,-0.5169,-0.5184,-0.5319,-0.5623,0.0,0.0,0.0,0.0,0.0,0.0,0.0,0.0,0.0,0.0,0.0,0.0,0.0,0.0,0.0,0.0,0.0,0.0,0.0,0.0,0.0,0.0,0.0,0.0,0.0,0.0,0.0,0.0,0.0,0.0,0.0,0.0,0.0,0.0,0.0,0.0,0.0,0.0,0.0,0.0,0.0,0.0,0.0,0.0,0.0,0.0,0.0,0.0,0.0,0.0,0.0,0.0,0.0,0.0,0.0,0.0,0.0,0.0,0.0,0.0,0.0,0.0,0.0,0.0,0.0,0.0,0.0,0.0,0.0,0.0,0.0,0.0,0.0,0.0,0.0,0.0,0.0,0.0,0.0,0.0,0.0,0.0,0.0,0.0,0.0,0.0,0.0,0.0,0.0,0.0,0.0,0.0,0.0,0.0,0.0,0.0,0.0,0.0,0.0,0.0,0.0,0.0,0.0,0.0,0.0,0.0,0.0,0.0,0.0,-0.5197,-0.5222,-0.5843,-0.5869,-0.556,0.0,0.0,0.0,0.0,0.0,0.0,0.0,0.0,0.0,0.0,0.0,0.0,0.0,0.0,0.0,0.0,0.0,0.0,0.0,0.0,0.0,0.0,0.0,0.0,0.0,0.0,0.0,0.0,0.0,0.0,0.0,0.0,0.0,0.0,0.0,0.0,0.0,0.0,0.0,0.0,0.0,0.0,0.0,0.0,0.0,0.0,0.0,0.0,0.0,0.0,0.0,0.0,0.0,0.0,0.0,0.0,0.0,0.0,0.0,0.0,0.0,0.0,0.0,0.0,0.0,0.0,0.0,0.0,0.0,0.0,0.0,0.0,0.0,0.0,0.0,0.0,0.0,0.0,0.0,0.0,0.0,0.0,0.0,0.0,0.0,0.0,0.0,0.0,0.0,0.0,0.0,0.0,0.0,0.0,0.0,0.0,0.0,0.0,0.0,0.0,0.0,0.0,0.0,0.0,0.0,0.0,0.0,0.0,0.0,-0.4599,-0.4801,-0.5424,-0.6463,-0.5803,-0.5422,0.0,0.0,0.0,0.0,0.0,0.0,0.0,0.0,0.0,0.0,0.0,0.0,0.0,0.0,0.0,0.0,0.0,0.0,0.0,0.0,0.0,0.0,0.0,0.0,0.0,0.0,0.0,0.0,0.0,0.0,0.0,0.0,0.0,0.0,0.0,0.0,0.0,0.0,0.0,0.0,0.0,0.0,0.0,0.0,0.0,0.0,0.0,0.0,0.0,0.0,0.0,0.0,0.0,0.0,0.0,0.0,0.0,0.0,0.0,0.0,0.0,0.0,0.0,0.0,0.0,0.0,0.0,0.0,0.0,0.0,0.0,0.0,0.0,0.0,0.0,0.0,0.0,0.0,0.0,0.0,0.0,0.0,0.0,0.0,0.0,0.0,0.0,0.0,0.0,0.0,0.0,0.0,0.0,0.0,0.0,0.0,0.0,0.0,0.0,0.0,0.0,0.0,0.0,0.0,0.0,0.0,0.0,0.0,0.0,-0.4638,0.0,-0.6036,0.0,-0.5882,-0.5427,0.0,0.0,0.0,0.0,0.0,0.0,0.0,0.0,0.0,0.0,0.0,0.0,0.0,0.0,0.0,0.0,0.0,0.0,0.0,0.0,0.0,0.0,0.0,0.0,0.0,0.0,0.0,0.0,0.0,0.0,0.0,0.0,0.0,0.0,0.0,0.0,0.0,0.0,0.0,0.0,0.0,0.0,0.0,0.0,0.0,0.0,0.0,0.0,0.0,0.0,0.0,0.0,0.0,0.0,0.0,0.0,0.0,0.0,0.0,0.0,0.0,0.0,0.0,0.0,0.0,0.0,0.0,0.0,0.0,0.0,0.0,0.0,0.0,0.0,0.0,0.0,0.0,0.0,0.0,0.0,0.0,0.0,0.0,0.0,0.0,0.0,0.0,0.0,0.0,0.0,0.0,0.0,0.0,0.0,0.0,0.0,0.0,0.0,0.0,0.0,0.0,0.0,0.0,0.0,0.0,0.0,0.0,0.0,-0.467,-0.6105,-0.6898,-0.6928,-0.6239,-0.617,-0.5524,0.0,0.0,0.0,0.0,0.0,0.0,0.0,0.0,0.0,0.0,0.0,0.0,0.0,0.0,0.0,0.0,0.0,0.0,0.0,0.0,0.0,0.0,0.0,0.0,0.0,0.0,0.0,0.0,0.0,0.0,0.0,0.0,0.0,0.0,0.0,0.0,0.0,0.0,0.0,0.0,0.0,0.0,0.0,0.0,0.0,0.0,0.0,0.0,0.0,0.0,0.0,0.0,0.0,0.0,0.0,0.0,0.0,0.0,0.0,0.0,0.0,0.0,0.0,0.0,0.0,0.0,0.0,0.0,0.0,0.0,0.0,0.0,0.0,0.0,0.0,0.0,0.0,0.0,0.0,0.0,0.0,0.0,0.0,0.0,0.0,0.0,0.0,0.0,0.0,0.0,0.0,0.0,0.0,0.0,0.0,0.0,0.0,0.0,0.0,0.0,0.0,0.0,0.0,0.0,0.0,0.0,0.0,0.0,0.0,-0.531,-0.622,-0.678,-0.6866,-0.6039,-0.5591,0.0,0.0,0.0,0.0,0.0,0.0,0.0,0.0,0.0,0.0,0.0,0.0,0.0,0.0,0.0,0.0,0.0,0.0,0.0,0.0,0.0,0.0,0.0,0.0,0.0,0.0,0.0,0.0,0.0,0.0,0.0,0.0,0.0,0.0,0.0,0.0,0.0,0.0,0.0,0.0,0.0,0.0,0.0,0.0,0.0,0.0,0.0,0.0,0.0,0.0,0.0,0.0,0.0,0.0,0.0,0.0,0.0,0.0,0.0,0.0,0.0,0.0,0.0,0.0,0.0,0.0,0.0,0.0,0.0,0.0,0.0,0.0,0.0,0.0,0.0,0.0,0.0,0.0,0.0,0.0,0.0,0.0,0.0,0.0,0.0,0.0,0.0,0.0,0.0,0.0,0.0,0.0,0.0,0.0,0.0,0.0,0.0,0.0,0.0,0.0,0.0,0.0,0.0,0.0,0.0,0.0,0.0,0.0,0.0,-0.5719,-0.6746,-0.7351,-0.7382,-0.6619,-0.6222,-0.6264,0.0,0.0,0.0,0.0,0.0,0.0,0.0,0.0,0.0,0.0,0.0,0.0,0.0,0.0,0.0,0.0,0.0,0.0,0.0,0.0,0.0,0.0,0.0,0.0,0.0,0.0,0.0,0.0,0.0,0.0,0.0,0.0,0.0,0.0,0.0,0.0,0.0,0.0,0.0,0.0,0.0,0.0,0.0,0.0,0.0,0.0,0.0,0.0,0.0,0.0,0.0,0.0,0.0,0.0,0.0,0.0,0.0,0.0,0.0,0.0,0.0,0.0,0.0,0.0,0.0,0.0,0.0,0.0,0.0,0.0,0.0,0.0,0.0,0.0,0.0,0.0,0.0,0.0,0.0,0.0,0.0,0.0,0.0,0.0,0.0,0.0,0.0,0.0,0.0,0.0,0.0,0.0,0.0,0.0,0.0,0.0,0.0,0.0,0.0,0.0,0.0,0.0,0.0,0.0,0.0,0.0,0.0,0.0,-0.6915,-0.8223,-0.8482,-0.7692,-0.7677,-0.7266,0.0,0.0,0.0,0.0,0.0,0.0,0.0,0.0,0.0,0.0,0.0,0.0,0.0,0.0,0.0,0.0,0.0,0.0,0.0,0.0,0.0,0.0,0.0,0.0,0.0,0.0,0.0,0.0,0.0,0.0,0.0,0.0,0.0,0.0,0.0,0.0,0.0,0.0,0.0,0.0,0.0,0.0,0.0,0.0,0.0,0.0,0.0,0.0,0.0,0.0,0.0,0.0,0.0,0.0,0.0,0.0,0.0,0.0,0.0,0.0,0.0,0.0,0.0,0.0,0.0,0.0,0.0,0.0,0.0,0.0,0.0,0.0,0.0,0.0,0.0,0.0,0.0,0.0,0.0,0.0,0.0,0.0,0.0,0.0,0.0,0.0,0.0,0.0,0.0,0.0,0.0,0.0,0.0,0.0,0.0,0.0,0.0,0.0,0.0,0.0,0.0,0.0,0.0,0.0,0.0,0.0,0.0,0.0,0.0,-0.7304,-0.8256,-0.8319,-0.7451,-0.7586,-0.7354,0.0,0.0,0.0,0.0,0.0,0.0,0.0,0.0,0.0,0.0,0.0,0.0,0.0,0.0,0.0,0.0,0.0,0.0,0.0,0.0,0.0,0.0,0.0,0.0,0.0,0.0,0.0,0.0,0.0,0.0,0.0,0.0,0.0,0.0,0.0,0.0,0.0,0.0,0.0,0.0,0.0,0.0,0.0,0.0,0.0,0.0,0.0,0.0,0.0,0.0,0.0,0.0,0.0,0.0,0.0,0.0,0.0,0.0,0.0,0.0,0.0,0.0,0.0,0.0,0.0,0.0,0.0,0.0,0.0,0.0,0.0,0.0,0.0,0.0,0.0,0.0,0.0,0.0,0.0,0.0,0.0,0.0,0.0,0.0,0.0,0.0,0.0,0.0,0.0,0.0,0.0,0.0,0.0,0.0,0.0,0.0,0.0,0.0,0.0,0.0,0.0,0.0,0.0,0.0,0.0,0.0,0.0,0.0,-0.7666,-0.7823,-0.8391,-0.8272,-0.7407,-0.7909,-0.8015,0.0,0.0,0.0,0.0,0.0,0.0,0.0,0.0,0.0,0.0,0.0,0.0,0.0,0.0,0.0,0.0,0.0,0.0,0.0,0.0,0.0,0.0,0.0,0.0,0.0,0.0,0.0,0.0,0.0,0.0,0.0,0.0,0.0,0.0,0.0,0.0,0.0,0.0,0.0,0.0,0.0,0.0,0.0,0.0,0.0,0.0,0.0,0.0,0.0,0.0,0.0,0.0,0.0,0.0,0.0,0.0,0.0,0.0,0.0,0.0,0.0,0.0,0.0,0.0,0.0,0.0,0.0,0.0,0.0,0.0,0.0,0.0,0.0,0.0,0.0,0.0,0.0,0.0,0.0,0.0,0.0,0.0,0.0,0.0,0.0,0.0,0.0,0.0,0.0,0.0,0.0,0.0,0.0,0.0,0.0,0.0,0.0,0.0,0.0,0.0,0.0,0.0,0.0,0.0,0.0,0.0,0.0,0.0,-0.8209,-0.8321,-0.8571,-0.838,-0.7696,-0.846,-0.8818,0.0,0.0,0.0,0.0,0.0,0.0,0.0,0.0,0.0,0.0,0.0,0.0,0.0,0.0,0.0,0.0,0.0,0.0,0.0,0.0,0.0,0.0,0.0,0.0,0.0,0.0,0.0,0.0,0.0,0.0,0.0,0.0,0.0,0.0,0.0,0.0,0.0,0.0,0.0,0.0,0.0,0.0,0.0,0.0,0.0,0.0,0.0,0.0,0.0,0.0,0.0,0.0,0.0,0.0,0.0,0.0,0.0,0.0,0.0,0.0,0.0,0.0,0.0,0.0,0.0,0.0,0.0,0.0,0.0,0.0,0.0,0.0,0.0,0.0,0.0,0.0,0.0,0.0,0.0,0.0,0.0,0.0,0.0,0.0,0.0,0.0,0.0,0.0,0.0,0.0,0.0,0.0,0.0,0.0,0.0,0.0,0.0,0.0,0.0,0.0,0.0,0.0,0.0,0.0,0.0,0.0,0.0,0.0,-0.8165,-0.7871,-0.8399,-0.8681,-0.8599,-0.8796,-0.8607,0.0,0.0,0.0,0.0,0.0,0.0,0.0,0.0,0.0,0.0,0.0,0.0,0.0,0.0,0.0,0.0,0.0,0.0,0.0,0.0,0.0,0.0,0.0,0.0,0.0,0.0,0.0,0.0,0.0,0.0,0.0,0.0,0.0,0.0,0.0,0.0,0.0,0.0,0.0,0.0,0.0,0.0,0.0,0.0,0.0,0.0,0.0,0.0,-0.1806,0.0,0.0,0.0,0.0,0.0,0.0,0.0,0.0,0.0,0.0,0.0,0.0,0.0,0.0,0.0,0.0,0.0,0.0,0.0,0.0,0.0,0.0,0.0,0.0,0.0,0.0,0.0,0.0,0.0,0.0,0.0,0.0,0.0,0.0,0.0,0.0,0.0,0.0,0.0,0.0,0.0,0.0,0.0,0.0,0.0,0.0,0.0,0.0,0.0,0.0,0.0,0.0,0.0,0.0,0.0,0.0,0.0,0.0,0.0,-0.844,-0.8294,-0.8608,-0.8821,-0.89,-0.8911,-0.8713,0.0,0.0,0.0,0.0,0.0,0.0,0.0,0.0,0.0,0.0,0.0,0.0,0.0,0.0,0.0,0.0,0.0,0.0,0.0,0.0,0.0,0.0,0.0,0.0,0.0,0.0,0.0,0.0,0.0,0.0,0.0,0.0,0.0,0.0,0.0,0.0,0.0,0.0,0.0,0.0,0.0,0.0,0.0,0.0,0.0,0.0,0.0,0.0,0.0,0.0,0.0,0.0,0.0,0.0,0.0,0.0,0.0,0.0,0.0,0.0,0.0,0.0,0.0,0.0,0.0,0.0,0.0,0.0,0.0,0.0,0.0,0.0,0.0,0.0,0.0,0.0,0.0,0.0,0.0,0.0,0.0,0.0,0.0,0.0,0.0,0.0,0.0,0.0,0.0,0.0,0.0,0.0,0.0,0.0,0.0,0.0,0.0,0.0,0.0,0.0,0.0,0.0,0.0,0.0,0.0,0.0,0.0,-0.8646,-0.8768,-0.89,-0.8911,-0.8911,-0.8911,-0.8911,-0.888,-0.8841,0.0,0.0,0.0,0.0,0.0,0.0,0.0,0.0,0.0,0.0,0.0,0.0,0.0,0.0,0.0,0.0,0.0,0.0,0.0,0.0,0.0,0.0,0.0,0.0,0.0,0.0,0.0,0.0,0.0,0.0,0.0,0.0,0.0,0.0,0.0,0.0,0.0,0.0,-0.2142,-0.2629,0.0,0.0,0.0,0.0,0.0,0.0,0.0,0.0,-0.2047,0.0,0.0,0.0,0.0,0.0,0.0,0.0,0.0,0.0,0.0,0.0,0.0,0.0,0.0,0.0,0.0,0.0,0.0,0.0,0.0,0.0,0.0,0.0,0.0,0.0,0.0,0.0,0.0,0.0,0.0,0.0,0.0,0.0,0.0,0.0,0.0,0.0,0.0,0.0,0.0,0.0,0.0,0.0,0.0,0.0,0.0,0.0,0.0,0.0,0.0,0.0,0.0,0.0,0.0,0.0,0.0,-0.8394,-0.86,-0.876,-0.89,-0.8911,-0.8911,-0.8911,-0.8911,-0.8852,-0.8686,0.0,0.0,0.0,0.0,0.0,0.0,0.0,0.0,0.0,0.0,0.0,0.0,0.0,0.0,0.0,0.0,0.0,0.0,0.0,0.0,0.0,0.0,0.0,0.0,0.0,0.0,0.0,0.0,0.0,0.0,0.0,0.0,0.0,0.0,0.0,0.0,0.0,0.0,0.0,-0.3352,-0.3557,0.0,0.0,0.0,0.0,0.0,0.0,0.0,0.0,-0.2018,0.0,0.0,0.0,0.0,0.0,0.0,0.0,0.0,0.0,0.0,0.0,0.0,0.0,0.0,0.0,0.0,0.0,0.0,0.0,0.0,0.0,0.0,0.0,0.0,0.0,0.0,0.0,0.0,0.0,0.0,0.0,0.0,0.0,0.0,0.0,0.0,0.0,0.0,0.0,0.0,0.0,0.0,0.0,0.0,0.0,0.0,0.0,0.0,0.0,0.0,0.0,0.0,0.0,0.0,0.0,-0.8327,-0.866,-0.884,-0.89,-0.8911,-0.8911,-0.8911,-0.8911,-0.8852,0.0,0.0,0.0,0.0,0.0,0.0,0.0,0.0,0.0,0.0,0.0,0.0,0.0,0.0,0.0,0.0,0.0,0.0,0.0,0.0,0.0,0.0,0.0,0.0,0.0,0.0,0.0,0.0,0.0,0.0,0.0,0.0,0.0,0.0,0.0,0.0,0.0,0.0,0.0,0.0,-0.336,-0.3608,-0.3377,0.0,0.0,0.0,0.0,0.0,0.0,-0.2288,-0.2148,0.0,0.0,0.0,0.0,0.0,0.0,0.0,0.0,0.0,0.0,0.0,0.0,0.0,0.0,0.0,0.0,0.0,0.0,0.0,0.0,0.0,0.0,0.0,0.0,0.0,0.0,0.0,0.0,0.0,0.0,0.0,0.0,0.0,0.0,0.0,0.0,0.0,0.0,0.0,0.0,0.0,0.0,0.0,0.0,0.0,0.0,0.0,0.0,0.0,0.0,0.0,0.0,0.0,0.0,0.0,-0.8351,-0.8699,-0.8886,-0.8902,-0.8911,-0.8911,-0.8911,-0.8911,-0.8832,0.0,0.0,0.0,0.0,0.0,0.0,0.0,0.0,0.0,0.0,0.0,0.0,0.0,0.0,0.0,0.0,0.0,0.0,0.0,0.0,0.0,0.0,0.0,0.0,0.0,0.0,0.0,0.0,0.0,0.0,0.0,0.0,0.0,0.0,0.0,0.0,0.0,0.0,0.0,0.0,0.0,-0.3615,-0.351,-0.3799,0.0,0.0,0.0,0.0,-0.2624,-0.2467,0.0,0.0,0.0,0.0,0.0,0.0,0.0,0.0,0.0,0.0,0.0,0.0,0.0,0.0,0.0,0.0,0.0,0.0,0.0,0.0,0.0,0.0,0.0,0.0,0.0,0.0,0.0,0.0,0.0,0.0,0.0,0.0,0.0,0.0,0.0,0.0,0.0,0.0,0.0,0.0,0.0,0.0,0.0,0.0,0.0,0.0,0.0,0.0,0.0,0.0,0.0,0.0,0.0,0.0,0.0,0.0,-0.8351,-0.8608,-0.878,-0.89,-0.8911,-0.8911,-0.8911,-0.8911,-0.884,0.0,0.0,0.0,0.0,0.0,0.0,0.0,0.0,0.0,0.0,0.0,0.0,0.0,0.0,0.0,0.0,0.0,0.0,0.0,0.0,0.0,0.0,0.0,0.0,0.0,0.0,0.0,0.0,0.0,0.0,0.0,0.0,0.0,0.0,0.0,0.0,0.0,0.0,0.0,0.0,0.0,-0.4025,-0.356,-0.3644,-0.3622,0.0,0.0,0.0,-0.28,-0.2749,0.0,0.0,0.0,0.0,0.0,0.0,0.0,0.0,0.0,0.0,0.0,0.0,0.0,0.0,0.0,0.0,0.0,0.0,0.0,0.0,0.0,0.0,0.0,0.0,0.0,0.0,0.0,0.0,0.0,0.0,0.0,0.0,0.0,0.0,0.0,0.0,0.0,0.0,0.0,0.0,0.0,0.0,0.0,0.0,0.0,0.0,0.0,0.0,0.0,0.0,0.0,0.0,0.0,0.0,0.0,-0.7134,-0.851,-0.8724,-0.8852,-0.8911,-0.8911,-0.8911,-0.8911,-0.8911,-0.8866,0.0,0.0,0.0,0.0,0.0,0.0,0.0,0.0,0.0,0.0,0.0,0.0,0.0,0.0,0.0,0.0,0.0,0.0,0.0,0.0,0.0,0.0,0.0,0.0,0.0,0.0,0.0,0.0,0.0,0.0,0.0,0.0,0.0,0.0,0.0,0.0,0.0,0.0,0.0,0.0,0.0,0.0,-0.3963,-0.3797,0.0,0.0,0.0,-0.3213,-0.3395,0.0,0.0,0.0,0.0,0.0,0.0,0.0,0.0,0.0,0.0,0.0,0.0,0.0,0.0,0.0,0.0,0.0,0.0,0.0,0.0,0.0,0.0,0.0,0.0,0.0,0.0,0.0,0.0,0.0,0.0,0.0,0.0,0.0,0.0,0.0,0.0,0.0,0.0,0.0,0.0,0.0,0.0,0.0,0.0,0.0,0.0,0.0,0.0,0.0,0.0,0.0,0.0,0.0,0.0,0.0,0.0,0.0,-0.8604,-0.8801,-0.8911,-0.8911,-0.8911,-0.8911,-0.8911,-0.8722,0.0,0.0,0.0,0.0,0.0,0.0,0.0,0.0,0.0,0.0,0.0,0.0,0.0,0.0,0.0,0.0,0.0,0.0,0.0,0.0,0.0,0.0,0.0,0.0,0.0,0.0,0.0,-0.0426,0.0,0.0,0.0,0.0,0.0,0.0,0.0,0.0,0.0,0.0,0.0,0.0,0.0,0.0,-0.4198,-0.4334,-0.4132,-0.3903,0.0,0.0,-0.3514,-0.3845,-0.3358,-0.3057,0.0,0.0,0.0,0.0,0.0,0.0,0.0,0.0,0.0,0.0,0.0,0.0,0.0,0.0,0.0,0.0,0.0,0.0,0.0,0.0,0.0,0.0,0.0,0.0,0.0,0.0,0.0,0.0,0.0,0.0,0.0,0.0,0.0,0.0,0.0,0.0,0.0,0.0,0.0,0.0,0.0,0.0,0.0,0.0,0.0,0.0,0.0,0.0,0.0,0.0,0.0,0.0,0.0,0.0,0.0,-0.8385,-0.8723,-0.8911,-0.8911,-0.8911,-0.8911,-0.8891,-0.8229,-0.8214,0.0,0.0,0.0,0.0,0.0,0.0,0.0,0.0,0.0,0.0,0.0,0.0,0.0,0.0,0.0,0.0,0.0,0.0,0.0,0.0,0.0,0.0,0.0,0.0,0.0,0.0,0.0,0.0,0.0,0.0,0.0,0.0,0.0,0.0,0.0,0.0,0.0,0.0,0.0,0.0,0.0,-0.4343,-0.447,-0.4571,-0.4501,0.0,0.0,-0.415,-0.3934,-0.3851,-0.3738,-0.3528,0.0,0.0,0.0,0.0,0.0,0.0,0.0,0.0,0.0,0.0,0.0,0.0,0.0,0.0,0.0,0.0,0.0,0.0,0.0,0.0,0.0,0.0,0.0,0.0,0.0,0.0,0.0,0.0,0.0,0.0,0.0,0.0,0.0,0.0,0.0,0.0,0.0,0.0,0.0,0.0,0.0,0.0,0.0,0.0,0.0,0.0,0.0,0.0,0.0,0.0,0.0,0.0,0.0,-0.7332,-0.8683,-0.8843,-0.8911,-0.8911,-0.8911,-0.8911,-0.8911,-0.8631,-0.8614,0.0,0.0,0.0,0.0,0.0,0.0,0.0,0.0,0.0,0.0,0.0,0.0,0.0,0.0,0.0,0.0,0.0,0.0,0.0,0.0,0.0,0.0,0.0,0.0,0.0,0.0,0.0,0.0,-0.2291,-0.2207,-0.2671,0.0,0.0,0.0,0.0,0.0,0.0,0.0,0.0,0.0,0.0,-0.4809,-0.4856,-0.4776,0.0,0.0,-0.4479,-0.4324,-0.437,-0.3985,-0.3655,-0.3726,-0.3277,0.0,0.0,0.0,0.0,0.0,0.0,0.0,0.0,0.0,0.0,0.0,0.0,0.0,0.0,0.0,0.0,0.0,0.0,0.0,0.0,0.0,0.0,0.0,0.0,0.0,0.0,0.0,0.0,0.0,0.0,0.0,0.0,0.0,0.0,0.0,0.0,0.0,0.0,0.0,0.0,0.0,0.0,0.0,0.0,0.0,0.0,0.0,0.0,0.0,0.0,0.0,0.0,-0.7397,-0.8835,-0.8877,-0.8911,-0.8911,-0.8911,-0.8911,-0.8911,-0.8699,-0.857,0.0,0.0,0.0,0.0,0.0,0.0,0.0,0.0,0.0,0.0,0.0,0.0,0.0,0.0,0.0,0.0,0.0,0.0,0.0,0.0,0.0,0.0,0.0,0.0,0.0,0.0,0.0,0.0,-0.3292,-0.3162,-0.2848,0.0,0.0,0.0,0.0,0.0,0.0,0.0,0.0,0.0,0.0,-0.5093,-0.5093,-0.4927,-0.4888,-0.5093,-0.479,-0.4591,-0.4785,-0.4291,-0.3908,-0.4111,0.0,0.0,0.0,0.0,0.0,0.0,0.0,0.0,0.0,0.0,0.0,0.0,0.0,0.0,0.0,0.0,0.0,0.0,0.0,0.0,0.0,0.0,0.0,0.0,0.0,0.0,0.0,0.0,0.0,0.0,0.0,0.0,0.0,0.0,0.0,0.0,0.0,0.0,0.0,0.0,0.0,0.0,0.0,0.0,0.0,0.0,0.0,0.0,0.0,0.0,0.0,0.0,0.0,0.0,-0.8672,-0.884,-0.8911,-0.8911,-0.8911,-0.8911,-0.8894,-0.8214,-0.784,-0.7816,0.0,0.0,0.0,0.0,0.0,0.0,0.0,0.0,0.0,0.0,0.0,0.0,0.0,0.0,0.0,0.0,0.0,0.0,0.0,0.0,0.0,0.0,0.0,0.0,0.0,0.0,-0.3292,-0.3292,-0.3171,0.0,0.0,0.0,0.0,0.0,0.0,0.0,0.0,0.0,0.0,-0.4845,-0.5093,-0.5093,-0.5098,-0.5108,-0.5093,-0.5074,-0.5074,-0.5069,-0.4835,-0.4677,0.0,0.0,0.0,0.0,0.0,0.0,0.0,0.0,0.0,0.0,0.0,0.0,0.0,0.0,0.0,0.0,0.0,0.0,0.0,0.0,0.0,0.0,0.0,0.0,0.0,0.0,0.0,-0.7724,-0.7451,0.0,0.0,0.0,0.0,0.0,0.0,0.0,0.0,0.0,0.0,0.0,-1.0352,-1.0365,0.0,0.0,0.0,0.0,0.0,0.0,0.0,0.0,0.0,0.0,0.0,0.0,-0.7904,-0.8793,-0.8877,-0.8911,-0.8911,-0.8911,-0.8911,-0.8911,-0.8663,-0.807,-0.7095,0.0,0.0,0.0,0.0,0.0,0.0,0.0,0.0,0.0,0.0,0.0,0.0,0.0,0.0,0.0,0.0,0.0,0.0,0.0,0.0,0.0,0.0,0.0,0.0,0.0,-0.3292,0.0,0.0,0.0,0.0,0.0,0.0,0.0,0.0,0.0,0.0,0.0,-0.4612,-0.509,-0.5281,-0.5291,-0.5127,-0.5356,-0.5459,0.0,0.0,0.0,0.0,0.0,0.0,0.0,0.0,0.0,0.0,0.0,0.0,0.0,0.0,-0.3173,-0.2444,-0.2188,-0.1997,-0.1831,0.0,0.0,0.0,0.0,0.0,0.0,0.0,0.0,0.0,0.0,0.0,0.0,0.0,0.0,0.0,0.0,-0.9158,0.0,0.0,0.0,0.0,0.0,0.0,0.0,0.0,-1.0462,-1.0918,-1.1104,-1.1104,-1.1104,0.0,-1.0893,-1.0153,0.0,0.0,0.0,0.0,0.0,0.0,0.0,0.0,-0.8299,-0.9218,-0.9289,-0.9281,-0.9281,-0.9281,-0.9154,-0.89,-0.8646,-0.8078,-0.7104,-0.6348,-0.5839,0.0,0.0,0.0,0.0,0.0,0.0,0.0,0.0,0.0,0.0,0.0,0.0,0.0,0.0,0.0,0.0,0.0,0.0,0.0,0.0,0.0,0.0,0.0,-0.3292,0.0,0.0,0.0,0.0,0.0,0.0,0.0,0.0,0.0,-0.456,-0.4766,-0.5183,-0.5835,-0.5688,-0.5568,-0.5729,0.0,0.0,0.0,0.0,0.0,0.0,0.0,-0.5102,-0.5274,-0.5244,-0.5159,-0.4993,-0.4844,-0.4668,-0.44,0.0,0.0,-0.2956,-0.2626,-0.2444,-0.2279,-0.225,-0.2172,-0.1932,-0.1936,-0.1984,0.0,0.0,0.0,0.0,0.0,0.0,0.0,0.0,-1.1729,-1.1684,0.0,-1.1667,0.0,0.0,0.0,0.0,0.0,0.0,0.0,0.0,-1.1914,-1.1891,-1.1223,-1.1214,-1.1189,-1.1223,-1.1933,-1.1857,-1.1037,-0.8965,0.0,0.0,0.0,0.0,0.0,0.0,-0.8609,-0.9984,-1.0026,-1.0035,-1.0035,-0.9992,-0.965,-0.8917,-0.8222,-0.7848,-0.7727,-0.5849,-0.5005,-0.5669,-0.7588,0.0,0.0,0.0,0.0,0.0,0.0,0.0,0.0,0.0,0.0,0.0,0.0,0.0,0.0,0.0,0.0,0.0,0.0,0.0,0.0,-0.3325,0.0,0.0,0.0,0.0,0.0,0.0,0.0,0.0,0.0,0.0,-0.5275,-0.5654,-0.6123,-0.6603,0.0,0.0,0.0,0.0,-0.5972,-0.6338,-0.6392,-0.6421,-0.6396,-0.6372,-0.6367,-0.6367,0.0,0.0,-0.6067,-0.5697,-0.5302,-0.5051,-0.4665,-0.4239,-0.362,-0.3334,-0.3137,-0.3119,-0.3109,-0.2951,-0.2565,-0.2634,-0.2714,-1.3043,0.0,0.0,0.0,0.0,-1.2682,-1.2771,-1.3232,-1.2704,-1.2485,-1.2494,-1.2476,0.0,0.0,0.0,0.0,0.0,0.0,-1.1602,-1.2078,-1.2254,-1.2441,-1.2736,-1.2744,-1.2736,-1.2744,-1.2441,-1.2178,-1.1923,-1.0741,-0.9785,-0.9089,0.0,0.0,0.0,0.0,-1.036,-1.0766,-1.0783,-1.0791,-1.0783,-1.0271,-0.965,-0.8928,-0.8699,-0.8349,-0.7823,-0.7685,-0.749,-0.7172,-0.6258,0.0,0.0,0.0,0.0,0.0,0.0,0.0,0.0,0.0,0.0,0.0,0.0,0.0,0.0,0.0,0.0,0.0,0.0,0.0,-0.3829,-0.386,-0.404,0.0,0.0,0.0,0.0,0.0,0.0,0.0,0.0,0.0,-0.665,-0.6553,-0.642,0.0,0.0,-0.6742,-0.6598,-0.6666,-0.665,-0.6436,0.0,0.0,0.0,-0.6236,-0.6182,-0.6387,-0.6432,-0.6533,-0.6761,-0.6207,-0.564,-0.5351,-0.4949,-0.4565,-0.422,-0.4077,-0.3971,-0.3798,-0.3754,-0.3614,-0.3275,-0.3064,-0.2889,-1.5433,-1.4918,-1.4298,-1.4038,-1.4029,-1.3599,-1.3683,-1.41,-1.3676,-1.3473,-1.3473,-1.3482,-1.302,-1.2225,-1.1774,0.0,0.0,0.0,-1.215,-1.2848,-1.2775,-1.2997,-1.3445,-1.343,-1.3429,-1.3461,-1.298,-1.2736,-1.2744,-1.2253,-1.1637,-1.0944,0.0,0.0,-1.044,-1.07,-1.1087,-1.1536,-1.1464,-1.147,-1.1553,-1.0834,-1.009,-0.9374,-0.934,-0.8984,-0.8282,-0.8656,-0.8555,-0.7833,-0.6808,-0.6528,0.0,0.0,0.0,0.0,0.0,0.0,0.0,0.0,0.0,0.0,0.0,-0.404,-0.6118,0.0,0.0,0.0,-0.359,-0.3911,-0.4452,-0.4474,0.0,0.0,0.0,0.0,0.0,0.0,0.0,-0.6388,-0.6401,-0.6762,-0.7632,-0.7651,-0.7581,-0.7533,-0.7518,-0.7524,-0.7512,0.0,-0.7384,-0.6965,-0.7298,-0.741,-0.6978,-0.6771,-0.6709,-0.6871,-0.6949,-0.7046,-0.7254,-0.6669,-0.6086,-0.5813,-0.5384,-0.4957,-0.4786,-0.4753,-0.4631,-0.4238,-0.4252,-0.4177,-0.3691,-0.3494,-0.3346,-1.7999,-1.7765,-1.5214,-1.4257,-1.4403,-1.4412,-1.4447,-1.4497,-1.4488,-1.4497,-1.4497,-1.4497,-1.4011,-1.3154,-1.2123,0.0,0.0,-1.2507,-1.2806,-1.3446,-1.3446,-1.3486,-1.361,-1.3462,-1.347,-1.3579,-1.347,-1.3396,-1.3388,-1.3379,-1.31,-1.2474,-1.1671,-1.1257,-1.1189,-1.0829,-1.1223,-1.2365,-1.2142,-1.2108,-1.2288,-1.157,-1.08,-1.0026,-1.0009,-0.9641,-0.8925,-0.8911,-0.8586,-0.795,-0.8307,-0.7363,-0.4914,0.0,0.0,0.0,0.0,0.0,0.0,0.0,0.0,0.0,0.0,0.0,0.0,0.0,0.0,0.0,-0.4263,0.0,-0.5079,-0.5119,0.0,0.0,0.0,-0.5584,-0.5581,-0.6235,-0.6951,-0.7669,0.0,0.0,0.0,0.0,-0.9119,-0.9163,-0.8495,-0.8293,-0.903,-0.8561,-0.8115,-0.7828,-0.8018,-0.8104,-0.767,-0.7593,-0.7584,-0.7613,-0.7681,-0.7598,-0.7598,-0.6956,-0.6483,-0.6423,-0.5784,-0.5211,-0.5228,-0.5158,-0.5043,-0.4465,-0.4605,-0.4569,-0.3935,-0.3917,-0.3877,-1.7193,-1.7138,-1.647,-1.6233,-1.626,-1.625,-1.5587,-1.4515,-1.4497,-1.4497,-1.4497,-1.4497,-1.4378,-1.4142,-1.3892,-1.3853,-1.4023,-1.3819,-1.3828,-1.3987,-1.3687,-1.3579,-1.3593,-1.3454,-1.3421,-1.3454,-1.3404,-1.3396,-1.3396,-1.3396,-1.3591,-1.3912,-1.3219,-1.2566,-1.2052,-1.245,-1.283,-1.3142,-1.3075,-1.2797,-1.2322,-1.2111,-1.1361,-1.0043,-1.0009,-0.965,-0.8936,-0.8911,-0.8807,-0.8584,-0.6666,-0.574,-0.6168,-0.6115,0.0,0.0,0.0,0.0,0.0,0.0,0.0,0.0,0.0,-0.5166,-0.3986,0.0,-0.5961,0.0,-0.6272,-0.5742,-0.5375,-0.5779,0.0,0.0,-0.6421,-0.633,-0.635,-0.6994,-0.7637,-0.8095,-0.8116,-0.8298,-0.8849,-0.9025,-0.924,-0.9629,-0.9302,-0.8946,-0.8734,-0.8452,-0.8337,-0.8436,-0.8121,-0.7807,-0.772,-0.7695,-0.7695,-0.7695,-0.7471,-0.7331,-0.7642,-0.6739,-0.6012,-0.6104,-0.549,-0.4902,-0.4678,-0.4613,-0.4586,-0.4456,-0.4608,-0.4693,-0.4305,-0.4029,-0.3771,-1.7977,-1.7977,-1.7963,-1.7761,-1.7403,-1.7055,-1.6395,-1.557,-1.557,-1.557,-1.556,-1.5579,-1.557,-1.5548,-1.5475,-1.544,-1.5409,-1.486,-1.4598,-1.4557,-1.3926,-1.3663,-1.3806,-1.3536,-1.3438,-1.3536,-1.3446,-1.3396,-1.3396,-1.3396,-1.3616,-1.3997,-1.3616,-1.3201,-1.2829,-1.3201,-1.3396,-1.3396,-1.3396,-1.3201,-1.2812,-1.2787,-1.2067,-1.0555,-1.0495,-0.9988,-0.8953,-0.8911,-0.8911,-0.8866,-0.7323,-0.654,-0.6698,-0.6614,-0.6487,0.0,0.0,0.0,0.0,0.0,0.0,0.0,0.0,0.0,0.0,0.0,-0.6209,0.0,0.0,0.0,-0.6065,-0.666,-0.7059,-0.7174,-0.7285,-0.7178,-0.6647,-0.7398,-0.8261,-0.8921,-0.8809,-0.8874,-0.939,-0.9447,-0.9548,-0.9861,-0.975,-0.9508,-0.9187,-0.8943,-0.8695,-0.8356,-0.8132,-0.7894,-0.7725,-0.7695,-0.7695,-0.7666,-0.7373,-0.7187,-0.7365,-0.653,-0.5858,-0.5887,-0.5413,-0.4885,-0.4632,-0.4579,-0.4519,-0.4287,-0.4335,-0.4375,-0.4242,-0.4035,-0.3826,-1.9295,-1.9295,-1.9295,-1.8895,-1.8207,-1.7504,-1.7101,-1.6908,-1.6908,-1.6908,-1.6908,-1.6908,-1.6908,-1.6876,-1.6724,-1.6642,-1.6582,-1.5738,-1.5273,-1.5107,-1.4243,-1.393,-1.4089,-1.3655,-1.3551,-1.3691,-1.3527,-1.3454,-1.3421,-1.343,-1.3464,-1.354,-1.3455,-1.3455,-1.3532,-1.3455,-1.3396,-1.3396,-1.3396,-1.3396,-1.3396,-1.3396,-1.2727,-1.1341,-1.1161,-1.0466,-0.9103,-0.8951,-0.8911,-0.8902,-0.8773,-0.8187,-0.7061,-0.7273,-0.7874,0.0,-0.739,0.0,0.0,0.0,0.0,0.0,0.0,0.0,0.0,-0.6789,-0.6212,-0.6561,-0.611,-0.6171,-0.7084,-0.771,-0.7968,-0.7673,-0.8085,-0.8014,-0.7174,-0.7842,-0.8794,-0.9782,-0.9495,-0.9403,-0.9811,-0.9873,-0.9873,-0.9873,-0.9867,-0.9848,-0.9848,-0.9549,-0.8956,-0.7865,-0.7996,-0.8031,-0.7773,-0.7695,-0.7695,-0.7656,-0.7295,-0.7046,-0.71,-0.6325,-0.5714,-0.571,-0.5422,-0.5065,-0.4784,-0.4689,-0.4509,-0.4076,-0.3975,-0.3931,-0.3941,-0.3911,-0.3828,-1.9295,-1.9295,-1.9295,-1.9231,-1.906,-1.8904,-1.8115,-1.6908,-1.6908,-1.6908,-1.6908,-1.6908,-1.6908,-1.6908,-1.6863,-1.6849,-1.684,-1.6634,-1.6196,-1.5585,-1.5234,-1.4711,-1.4096,-1.3913,-1.3777,-1.3713,-1.3777,-1.3724,-1.3555,-1.3555,-1.3802,-1.4267,-1.3701,-1.3692,0.0,0.0,0.0,0.0,-1.3396,-1.3396,-1.3396,-1.3396,-1.299,-1.2094,-1.1443,0.0,-0.9844,-0.9222,-0.8911,-0.8874,-0.8128,0.0,0.0,0.0,0.0,0.0,0.0,0.0,0.0,0.0,0.0,0.0,-0.7675,-0.7627,-0.7855,-0.7657,-0.7528,-0.7627,-0.8132,-0.8475,-0.8535,-0.9112,-0.933,-0.8934,-0.8905,-0.902,-0.9231,-0.9074,-0.9212,-0.9805,-0.9799,-0.978,-0.9868,-0.9873,-0.9873,-0.9873,-0.9873,-0.9873,-0.9873,-0.9613,-0.8985,-0.795,-0.7794,-0.7794,-0.771,-0.7691,-0.7656,-0.7608,-0.7014,-0.6738,-0.6902,-0.6063,-0.535,-0.5452,-0.5289,-0.4971,-0.4518,-0.4215,-0.413,-0.393,-0.374,-0.3589,-0.3589,-0.3611,-0.3569,-1.9295,0.0,-1.9295,-1.9295,0.0,0.0,-1.884,-1.8087,-1.8087,-1.8096,-1.8087,-1.8087,-1.8096,-1.8096,-1.8096,-1.8087,-1.806,-1.766,-1.727,-1.6853,-1.6264,-1.5392,-1.4307,-1.4433,-1.4358,-1.4083,-1.3966,-1.3847,-1.376,-1.3736,-1.3909,-1.4191,-1.3731,-1.3674,-1.4033,-1.3625,-1.3033,-1.2272,-1.2655,-1.2871,-1.2863,-1.2871,-1.2677,-1.2305,0.0,0.0,0.0,0.0,0.0,0.0,0.0,0.0,0.0,0.0,0.0,-0.9599,-0.9409,-0.9085,-0.8681,-0.8786,-0.8596,-0.7972,-0.8705,-0.8956,-0.845,-0.8683,-0.8879,-0.8913,-0.9471,-0.9652,-0.9274,-0.9772,-0.9963,-0.9473,-0.9595,-0.9801,-0.9862,-0.9654,-0.9592,-0.9836,-0.9873,-0.9873,-0.9873,-0.9873,-0.9873,-0.9873,-0.9873,-0.9873,-0.988,-0.9607,-0.9052,-0.8142,-0.7787,-0.7702,-0.7671,-0.7501,-0.7422,-0.7329,-0.6851,-0.6558,-0.6719,-0.6104,-0.5609,-0.5818,-0.5703,-0.5395,-0.4952,-0.4709,-0.4484,-0.4039,-0.379,-0.3647,-0.3548,-0.3509,-0.3509,-1.9381,-1.9516,-1.9344,-1.9295,-1.9295,-1.9295,-1.9295,-1.9295,0.0,0.0,0.0,-1.9295,-1.9295,-1.9295,-1.9295,-1.9295,-1.9259,-1.861,-1.8243,-1.806,-1.7248,-1.622,-1.509,-1.5167,-1.5063,-1.4769,-1.4252,-1.3983,-1.3955,-1.3946,-1.3933,-1.389,-1.3739,-1.3613,-1.3551,-1.3462,-1.2781,-1.1624,-1.2159,-1.2424,-1.2314,-1.2432,-1.2432,-1.2305,-1.2305,-1.1984,-1.1333,-1.1172,-1.0817,-1.0233,-1.0187,-0.9887,-0.9247,-0.9819,-1.033,-1.0656,-1.0848,-1.0683,-1.0149,-1.0455,-0.9986,-0.8416,-0.9687,-1.0132,-0.9153,-0.964,-1.0025,-1.0061,-1.0466,-1.0505,-0.9972,-1.0342,-1.0442,-0.9956,-1.0292,-1.0407,-0.9983,-0.9995,-0.9995,-0.9925,-0.9873,-0.9873,-0.9873,-0.9873,-0.9873,-0.9873,-0.9873,-0.9873,-0.9854,-0.9686,-0.9262,-0.8529,-0.8009,-0.7701,-0.7642,-0.736,-0.7129,-0.7124,-0.6665,-0.6333,-0.6348,-0.6216,-0.6182,-0.6304,-0.6309,-0.6078,-0.5592,-0.5387,-0.5055,-0.4159,-0.3931,-0.3828,-0.3587,-0.3509,-0.3509,-1.9711,-2.0273,-1.9583,-1.9295,-1.9295,-1.9295,-1.9295,-1.9295,-1.9295,-1.9295,-1.9295,-1.9295,-1.9295,-1.9295,-1.9295,-1.9295,-1.9295,-1.9185,-1.8766,0.0,-1.7948,-1.7669,-1.7201,-1.6121,-1.5697,-1.5777,-1.4882,-1.432,-1.4166,-1.4162,-1.4065,-1.3918,-1.3876,-1.3716,-1.3441,-1.3403,-1.3285,-1.3088,-1.3191,-1.2931,-1.2331,-1.293,-1.2931,-1.2339,-1.2305,-1.2263,-1.2128,-1.1477,-1.1054,-1.0944,-1.0961,-1.0715,-1.0242,-1.0673,-1.1164,-1.1606,-1.1296,-1.1048,-1.0955,-1.0891,-1.0557,-0.9981,-1.0428,-1.0477,-0.9848,-1.0165,-1.0482,-1.0683,-1.1236,-1.1588,-1.1486,-1.1509,-1.1395,-1.1077,-1.1109,-1.084,-1.0055,-1.0234,-1.0306,-0.9951,-0.9873,-0.9873,-0.9873,-0.9873,-0.9873,-0.9873,-0.9873,-0.9873,-0.9873,-0.988,-0.9528,-0.8843,-0.8141,-0.7769,-0.7666,-0.7345,-0.7134,-0.7104,-0.6484,-0.6128,-0.6397,-0.6455,-0.6431,-0.6416,-0.6868,-0.6849,-0.5989,-0.5574,-0.5089,-0.4379,-0.4048,-0.3811,-0.3548,-0.3509,-0.3509,-2.0868,-2.1152,-2.0803,-2.0372,-1.9923,-1.9482,-1.9295,-1.9295,-1.9295,-1.9295,-1.9295,-1.9295,-1.9295,-1.9295,-1.9295,-1.9295,-1.9295,-1.9295,-1.9112,-1.8757,-1.8772,-1.8691,-1.8481,-1.7495,-1.6678,-1.6091,-1.5466,-1.4885,-1.4393,-1.4362,-1.4307,-1.4214,-1.4114,-1.3853,-1.3438,-1.3585,-1.3574,-1.3391,-1.3002,-1.2635,-1.2314,-1.2211,-1.2389,-1.288,-1.2517,-1.25,-1.288,-1.2541,-1.2177,-1.1764,-1.1764,-1.1451,-1.0834,-1.14,-1.1874,-1.2102,-1.2263,-1.2346,-1.2346,-1.2156,-1.195,-1.1744,-1.1617,-1.1459,-1.1169,-1.1175,-1.1244,-1.1341,-1.164,-1.1819,-1.1819,-1.1819,-1.1681,-1.1348,-1.1173,-1.09,-1.0514,-1.0273,-1.0148,-0.9925,-0.9873,-0.9873,-0.9873,-0.9873,-0.9873,-0.9873,-0.9873,-0.9873,-0.9873,-0.9873,-0.9659,-0.8903,-0.8186,-0.7749,-0.7656,-0.7373,-0.7139,-0.7104,-0.6777,-0.6602,-0.6787,-0.6924,-0.6992,-0.6831,-0.71,-0.6831,-0.5965,-0.5596,-0.5106,-0.4474,-0.4089,-0.3828,-0.359,-0.3509,-0.3509,-2.1931,-2.207,-2.1894,-2.14,-2.0748,-2.0124,-1.9849,-1.9874,-1.9883,-1.9867,-1.9828,-1.9482,-1.9295,-1.9295,-1.9295,-1.9295,-1.9295,-1.9295,-1.9295,-1.9295,-1.9295,-1.9289,-1.9204,-1.8474,-1.755,-1.6581,-1.6164,-1.5655,-1.5093,-1.4864,-1.4673,-1.4513,-1.4304,-1.4029,-1.367,-1.3816,-1.3801,-1.3617,-1.2944,-1.2496,-1.2297,-1.1823,-1.2143,-1.299,-1.2778,-1.282,-1.3362,-1.3396,-1.3134,-1.2584,-1.2551,-1.2278,-1.1688,-1.2195,-1.2534,-1.2593,-1.3083,-1.3396,-1.3379,-1.3138,-1.3013,-1.2987,-1.2518,-1.2197,-1.2177,-1.1947,-1.1819,-1.1819,-1.179,-1.1819,-1.1819,-1.1819,-1.1681,-1.1438,-1.1226,-1.1066,-1.0869,-1.042,-1.0053,-0.9931,-0.9873,-0.9873,-0.9873,-0.9873,-0.9873,-0.9873,-0.9873,-0.9873,-0.9873,-0.9873,-0.9627,-0.9049,-0.835,-0.7858,-0.7719,-0.735,-0.7139,-0.7104,-0.6968,-0.6919,-0.7036,-0.7321,-0.7457,-0.7227,-0.7158,-0.6831,-0.6147,-0.5798,-0.5298,-0.4574,-0.4146,-0.3911,-0.359,-0.3509,-0.3509,-2.2244,-2.2731,-2.217,-2.1775,-2.1683,-2.1564,-2.1492,-2.1518,-2.1538,-2.1582,-2.1327,-1.9968,-1.9341,-1.9295,-1.9314,-1.9295,-1.9295,-1.9295,-1.9295,-1.9295,-1.9295,-1.9286,-1.9213,-1.85,-1.8041,-1.7775,-1.7133,-1.6725,-1.6514,-1.5876,-1.5206,-1.4558,-1.4295,-1.4255,-1.4341,-1.4073,-1.406,-1.4387,-1.3785,-1.3096,-1.2397,-1.2863,-1.2923,-1.2407,-1.2998,-1.3328,-1.3396,-1.3396,-1.3362,-1.3303,-1.3278,-1.3252,-1.3176,-1.3252,-1.3286,-1.3278,-1.3362,-1.3396,-1.3379,-1.3164,-1.3013,-1.2969,-1.253,-1.2218,-1.2197,-1.1947,-1.1819,-1.1819,-1.1819,-1.1819,-1.1819,-1.1819,-1.1797,-1.1703,-1.1659,-1.1512,-1.0995,-1.0842,-1.0571,-0.9963,-0.9873,-0.9873,-0.9873,-0.9873,-0.9873,-0.9873,-0.9873,-0.9873,-0.9873,-0.9873,-0.977,-0.9351,-0.8792,-0.8241,-0.7829,-0.7378,-0.7197,-0.7109,-0.6777,-0.6812,-0.7075,-0.7129,-0.7061,-0.7417,-0.7579,-0.7224,-0.6621,-0.628,-0.5787,-0.4777,-0.4316,-0.4104,-0.3675,-0.3509,-0.3509,-2.34,-2.3676,-2.3355,-2.2932,-2.2483,-2.1996,-2.1785,-2.1785,-2.1785,-2.1785,-2.1729,-2.1068,-2.0491,-1.9987,-1.951,-1.9295,-1.9295,-1.9295,-1.9295,-1.9295,-1.9295,-1.9295,-1.9259,-1.8968,-1.8574,-1.8124,-1.7752,-1.7358,-1.6835,-1.6087,-1.5518,-1.5175,-1.4666,-1.4423,-1.4487,-1.4331,-1.4349,-1.4491,-1.4028,-1.3545,-1.3103,-1.2834,-1.2813,-1.2906,-1.2846,-1.2965,-1.3345,-1.3396,-1.3396,-1.3396,-1.3396,-1.3396,-1.3396,-1.3396,-1.3396,-1.3396,-1.3396,-1.3396,-1.3396,-1.3311,-1.3234,-1.3226,-1.2879,-1.2599,-1.2443,-1.2066,-1.1819,-1.1819,-1.1819,-1.1819,-1.1819,-1.1819,-1.1819,-1.1776,-1.163,-1.134,-1.0968,-1.0783,-1.0495,-0.9989,-0.9873,-0.9873,-0.9873,-0.9873,-0.9873,-0.9873,-0.9873,-0.9873,-0.9873,-0.9873,-0.9744,-0.9475,-0.9179,-0.8767,-0.8179,-0.7717,-0.7499,-0.7404,-0.7292,-0.7292,-0.7331,-0.7437,-0.7422,-0.7407,-0.7554,-0.7355,-0.6538,-0.6255,-0.5855,-0.5007,-0.4324,-0.3979,-0.3589,-0.3509,-0.3509,-2.4199,-2.4199,-2.4199,-2.3859,-2.33,-2.2712,-2.2446,-2.2464,-2.2437,-2.2455,-2.2437,-2.2243,-2.1776,-2.109,-2.0106,-1.9629,-1.9601,-1.9399,-1.9295,-1.9295,-1.9295,-1.9295,-1.9295,-1.9286,-1.8996,-1.8528,-1.8436,-1.8023,-1.7248,-1.6692,-1.6142,-1.5692,-1.5114,-1.4729,-1.4515,-1.4497,-1.4496,-1.448,-1.4091,-1.3842,-1.3591,-1.2981,-1.2847,-1.3303,-1.2897,-1.2863,-1.3362,-1.3396,-1.3396,-1.3396,-1.3396,-1.3396,-1.3396,-1.3396,-1.3396,-1.3396,-1.3396,-1.3396,-1.3396,-1.3396,-1.3396,-1.3379,-1.3156,-1.2887,-1.2572,-1.2128,-1.1826,-1.1819,-1.1819,-1.1819,-1.1819,-1.1819,-1.1819,-1.1797,-1.1557,-1.134,-1.1165,-1.0876,-1.05,-1.0002,-0.9887,-0.9873,-0.9873,-0.9873,-0.9873,-0.9873,-0.9873,-0.9873,-0.9873,-0.9873,-0.979,-0.9587,-0.9481,-0.9068,-0.8455,-0.8065,-0.787,-0.77,-0.7632,-0.7618,-0.7695,-0.7691,-0.7671,-0.7554,-0.7627,-0.7457,-0.6864,-0.6448,-0.6066,-0.5461,-0.4804,-0.4155,-0.377,-0.3674,-0.3589,-2.4199,-2.4199,-2.4199,-2.4153,-2.4116,-2.4034,-2.4034,-2.3914,-2.3997,-2.4043,-2.3859,-2.3263,-2.2914,-2.2721,-2.1209,-2.0448,-2.0345,-1.9684,-1.9341,-1.9305,-1.9295,-1.9295,-1.9295,-1.9295,-1.9268,-1.9133,-1.9139,-1.8757,-1.8087,-1.7959,-1.7206,-1.5802,-1.5646,-1.5233,-1.4607,-1.4497,-1.4497,-1.445,-1.4123,-1.3904,-1.3847,-1.3523,-1.3345,-1.3396,-1.3345,-1.3337,-1.3396,-1.3396,-1.3396,-1.3396,-1.3396,-1.3396,-1.3396,-1.3396,-1.3396,-1.3396,-1.3396,-1.3396,-1.3396,-1.3396,-1.3396,-1.3363,-1.3182,-1.2887,-1.263,-1.2161,-1.1862,-1.1819,-1.1819,-1.1819,-1.1819,-1.1819,-1.1819,-1.1819,-1.1797,-1.1733,-1.1716,-1.1216,-1.0621,-1.0056,-0.9881,-0.9893,-0.9873,-0.9873,-0.9873,-0.9873,-0.9873,-0.9873,-0.9873,-0.9873,-0.988,-0.9802,-0.9581,-0.916,-0.8505,-0.8233,-0.8067,-0.7899,-0.7778,-0.7695,-0.7695,-0.7691,-0.7666,-0.7656,-0.7676,-0.7525,-0.7185,-0.6845,-0.6431,-0.59,-0.5303,-0.4704,-0.4193,-0.4036,-0.3874,-2.4199,-2.4199,-2.4199,-2.4199,-2.4199,-2.4199,-2.4199,-2.4199,-2.4199,-2.4199,-2.4162,-2.3878,-2.3768,-2.3712,-2.2611,-2.1493,-2.0547,-2.0198,-1.9794,-1.9335,-1.9295,-1.9295,-1.9295,-1.9295,-1.9295,-1.9295,-1.9295,-1.9167,-1.884,-1.8372,-1.783,-1.716,-1.6188,-1.5291,-1.4639,-1.4501,-1.4497,-1.4464,-1.4223,-1.4078,-1.4056,-1.3759,-1.3559,-1.3526,-1.3454,-1.3396,-1.3396,-1.3396,-1.3396,-1.3396,-1.3396,-1.3396,-1.3396,-1.3396,-1.3396,-1.3396,-1.3396,-1.3396,-1.3396,-1.3396,-1.3396,-1.3396,-1.332,-1.313,-1.2842,-1.2416,-1.2092,-1.2045,-1.1883,-1.1819,-1.1819,-1.1819,-1.1819,-1.1819,-1.1805,-1.1807,-1.1784,-1.1593,-1.1071,-1.0166,-0.9894,-0.9899,-0.9873,-0.9873,-0.9873,-0.9873,-0.9873,-0.9873,-0.9873,-0.9873,-0.9873,-0.9873,-0.9796,-0.9561,-0.9128,-0.8561,-0.8233,-0.8067,-0.7952,-0.7754,-0.7695,-0.7695,-0.7676,-0.7671,-0.7691,-0.7656,-0.7369,-0.7177,-0.679,-0.6435,-0.5811,-0.522,-0.4726,-0.4455,-0.4151,-2.4199,-2.4199,-2.4199,-2.4199,-2.4199,-2.4199,-2.4199,-2.4199,-2.4199,-2.4199,-2.4199,-2.4199,-2.4199,-2.4116,-2.3639,-2.2657,-2.1346,-2.1051,-2.0482,-1.973,-1.9684,-1.9537,-1.9332,-1.9295,-1.9295,-1.9295,-1.9295,-1.9295,-1.925,-1.8757,-1.8372,-1.8014,-1.672,-1.5704,-1.4977,-1.4659,-1.4497,-1.4464,-1.4304,-1.4166,-1.4065,-1.3815,-1.3629,-1.3542,-1.3437,-1.3396,-1.3396,-1.3396,-1.3396,-1.3396,-1.3396,-1.3396,-1.3396,-1.3396,-1.3396,-1.3396,-1.3396,-1.3396,-1.3396,-1.3396,-1.3396,-1.3396,-1.3405,-1.3311,-1.3115,-1.2735,-1.2424,-1.2218,-1.1968,-1.1819,-1.1819,-1.1819,-1.1819,-1.1819,-1.1819,-1.1806,-1.1822,-1.1806,-1.127,-1.0399,-0.9995,-0.9925,-0.9873,-0.9873,-0.9873,-0.9873,-0.9873,-0.9873,-0.9873,-0.9873,-0.9873,-0.9873,-0.9873,-0.9796,-0.9443,-0.8959,-0.8449,-0.8257,-0.7923,-0.7754,-0.7695,-0.7695,-0.7695,-0.7695,-0.7695,-0.7695,-0.7603,-0.7442,-0.7195,-0.6868,-0.6351,-0.5719,-0.526,-0.4783,-0.4484,-2.4228,-2.4219,-2.4199,-2.4228,-2.4228,-2.4219,-2.4209,-2.4199,-2.4218,-2.4228,-2.4209,-2.4199,-2.4199,-2.4181,-2.4098,-2.3667,-2.2896,-2.2208,-2.1409,-2.0567,-2.0438,-2.0042,-1.9436,-1.9332,-1.9295,-1.9295,-1.9295,-1.9295,-1.9277,-1.9179,-1.884,-1.8133,-1.7348,-1.656,-1.5756,-1.5074,-1.4579,-1.4556,-1.4392,-1.4136,-1.3922,-1.3768,-1.3619,-1.3479,-1.343,-1.3413,-1.3413,-1.3413,-1.3396,-1.3396,-1.3396,-1.3396,-1.3396,-1.3396,-1.3396,-1.3396,-1.3396,-1.3396,-1.3396,-1.3396,-1.3396,-1.3396,-1.3396,-1.3396,-1.3306,-1.3033,-1.2681,-1.2268,-1.2003,-1.1848,-1.1819,-1.1819,-1.1819,-1.1819,-1.1819,-1.182,-1.1806,-1.177,-1.1488,-1.0697,-1.0199,-0.9899,-0.9873,-0.9873,-0.9873,-0.9873,-0.9873,-0.9873,-0.9873,-0.9873,-0.9873,-0.9873,-0.9873,-0.9848,-0.9601,-0.9298,-0.8822,-0.8365,-0.7976,-0.7695,-0.7695,-0.7695,-0.7695,-0.7695,-0.7695,-0.7695,-0.7695,-0.7534,-0.7466,-0.7152,-0.6631,-0.6226,-0.5757,-0.5278,-0.4837,-2.4607,-2.4591,-2.447,-2.441,-2.4401,-2.441,-2.4321,-2.4228,-2.4339,-2.4339,-2.42,-2.4199,-2.4199,-2.419,-2.4199,-2.4061,-2.3804,-2.3492,-2.2703,-2.1492,-2.0822,-2.0402,-2.0069,-1.9546,-1.9295,-1.9295,-1.9295,-1.9295,-1.9295,-1.9295,-1.9143,-1.8803,-1.8106,-1.7638,-1.7234,-1.6059,-1.5334,-1.5252,-1.4709,-1.4375,-1.4295,-1.4123,-1.4001,-1.3926,-1.3606,-1.3463,-1.36,-1.3479,-1.3396,-1.3396,-1.3396,-1.3396,-1.3396,-1.3396,-1.3396,-1.3396,-1.3396,-1.3396,-1.3396,-1.3396,-1.3396,-1.3396,-1.3396,-1.3405,-1.337,-1.3136,-1.2781,-1.2341,-1.2148,-1.201,-1.184,-1.1819,-1.1819,-1.1819,-1.1819,-1.1819,-1.1762,-1.145,-1.1059,-1.065,-1.0191,-0.9919,-0.9873,-0.9873,-0.9873,-0.9873,-0.9873,-0.9873,-0.9873,-0.9873,-0.9873,-0.9873,-0.9873,-0.9873,-0.9712,-0.9463,-0.9035,-0.8551,-0.8143,-0.7749,-0.7725,-0.7695,-0.7695,-0.7695,-0.7695,-0.7695,-0.7695,-0.7661,-0.7564,-0.7437,-0.7077,-0.6657,-0.6246,-0.5768,-0.5269,-2.4813,-2.479,-2.4679,-2.4617,-2.4617,-2.4607,-2.4554,-2.4444,-2.4505,-2.4508,-2.4417,-2.4247,-2.4248,-2.4284,-2.4238,-2.4199,-2.4199,-2.4199,-2.3648,-2.2666,-2.184,-2.1145,-2.0484,-1.9666,-1.9295,-1.9295,-1.9295,-1.9295,-1.9295,-1.9295,-1.9295,-1.9152,-1.8491,-1.8078,-1.7995,-1.6839,-1.6041,-1.5665,-1.5215,-1.4757,-1.445,-1.427,-1.4162,-1.406,-1.3765,-1.3676,-1.3759,-1.3573,-1.3454,-1.3404,-1.3396,-1.3396,-1.3396,-1.3396,-1.3396,-1.3396,-1.3396,-1.3396,-1.3396,-1.3396,-1.3396,-1.3396,-1.3396,-1.3396,-1.3346,-1.3156,-1.2846,-1.2586,-1.2328,-1.2086,-1.1862,-1.1819,-1.1819,-1.1819,-1.1819,-1.1819,-1.174,-1.148,-1.1104,-1.0798,-1.0358,-1.0091,-0.9925,-0.9873,-0.9873,-0.9873,-0.9873,-0.9873,-0.9873,-0.9873,-0.9873,-0.9873,-0.9873,-0.9873,-0.9854,-0.9581,-0.9224,-0.8767,-0.8308,-0.7976,-0.7749,-0.7725,-0.7695,-0.7695,-0.7695,-0.7695,-0.7695,-0.7695,-0.7627,-0.75,-0.7373,-0.6904,-0.6431,-0.6071,-0.5604,-2.4823,-2.4823,-2.4818,-2.4809,-2.4809,-2.4818,-2.478,-2.4756,-2.4681,-2.4671,-2.4644,-2.4398,-2.4304,-2.4408,-2.4266,-2.4199,-2.4199,-2.419,-2.4153,-2.3841,-2.3208,-2.2144,-2.0567,-1.9803,-1.9445,-1.9305,-1.9295,-1.9295,-1.9295,-1.9295,-1.9295,-1.9213,-1.8629,-1.8197,-1.8115,-1.7376,-1.6633,-1.6142,-1.5793,-1.5181,-1.4415,-1.4263,-1.4162,-1.3988,-1.3941,-1.3913,-1.3899,-1.368,-1.3514,-1.3413,-1.3396,-1.3396,-1.3396,-1.3396,-1.3396,-1.3396,-1.3396,-1.3396,-1.3396,-1.3396,-1.3396,-1.3396,-1.3396,-1.3396,-1.3363,-1.3199,-1.3054,-1.2889,-1.2514,-1.2136,-1.1918,-1.1811,-1.1819,-1.1819,-1.1819,-1.1819,-1.1798,-1.177,-1.1468,-1.0958,-1.0605,-1.0279,-0.9951,-0.9899,-0.9873,-0.9873,-0.9873,-0.9873,-0.9873,-0.9873,-0.9873,-0.9905,-0.9912,-0.9873,-0.988,-0.9796,-0.9479,-0.9359,-0.881,-0.8301,-0.787,-0.772,-0.7695,-0.7695,-0.7695,-0.7695,-0.7695,-0.7695,-0.7695,-0.7632,-0.7344,-0.6965,-0.6601,-0.6248,-0.5851,-2.516,-2.5139,-2.5015,-2.4937,-2.4937,-2.4946,-2.49,-2.4804,-2.4818,-2.4747,-2.4604,-2.4519,-2.4408,-2.4294,-2.4238,-2.4199,-2.4199,-2.4199,-2.4199,-2.4171,-2.4015,-2.2584,-2.0869,-2.0301,-1.9867,-1.9409,-1.9378,-1.9295,-1.9295,-1.9295,-1.9295,-1.9295,-1.906,-1.8941,-1.8858,-1.8155,-1.7738,-1.7298,-1.6234,-1.5643,-1.5303,-1.4739,-1.4408,-1.4359,-1.4224,-1.4154,-1.4092,-1.3705,-1.3444,-1.3413,-1.3396,-1.3396,-1.3396,-1.3396,-1.3396,-1.3396,-1.3396,-1.3396,-1.3396,-1.3396,-1.3396,-1.3396,-1.3396,-1.3396,-1.3396,-1.3346,-1.3283,-1.317,-1.2808,-1.2384,-1.2128,-1.1905,-1.1819,-1.1819,-1.1819,-1.1819,-1.1806,-1.1792,-1.1557,-1.0989,-1.0612,-1.031,-0.9995,-0.9873,-0.9873,-0.9873,-0.9873,-0.9949,-0.9993,-0.998,-1.0017,-0.9956,-0.9931,-0.9912,-0.9873,-0.9854,-0.98,-0.9877,-0.9397,-0.87,-0.8169,-0.772,-0.7691,-0.7695,-0.7695,-0.7695,-0.7695,-0.7695,-0.7695,-0.7695,-0.7569,-0.728,-0.6755,-0.6362,-0.5979,-2.5303,-2.5293,-2.5173,-2.512,-2.512,-2.512,-2.5084,-2.5015,-2.5046,-2.4991,-2.4813,-2.4657,-2.4533,-2.4444,-2.4284,-2.419,-2.4199,-2.4199,-2.4199,-2.4199,-2.4171,-2.318,-2.1823,-2.1272,-2.0611,-1.9886,-1.9803,-1.9611,-1.936,-1.9295,-1.9295,-1.9295,-1.9295,-1.9295,-1.9259,-1.8867,-1.8399,-1.8005,-1.7133,-1.6582,-1.6188,-1.5753,-1.5334,-1.5111,-1.4861,-1.4707,-1.4251,-1.3975,-1.3736,-1.3502,-1.3403,-1.3393,-1.3404,-1.3396,-1.3396,-1.3396,-1.3396,-1.3396,-1.3396,-1.3396,-1.3396,-1.3396,-1.3396,-1.3396,-1.3396,-1.3396,-1.3404,-1.3345,-1.3004,-1.2623,-1.2259,-1.1976,-1.1826,-1.1819,-1.1819,-1.1805,-1.1805,-1.1814,-1.1509,-1.1045,-1.0709,-1.0416,-0.9989,-0.9912,-0.9912,-0.9873,-0.9873,-1.0062,-1.0226,-1.0199,-1.0313,-1.0383,-1.0357,-1.0401,-1.0458,-1.0443,-1.0349,-1.0393,-0.9953,-0.9237,-0.8584,-0.7989,-0.7749,-0.7754,-0.772,-0.7695,-0.7695,-0.7695,-0.7695,-0.7695,-0.7695,-0.7476,-0.6974,-0.648,-0.6125,-2.5303,-2.5303,-2.5303,-2.5303,-2.5293,-2.5293,-2.5283,-2.5293,-2.5274,-2.5244,-2.5131,-2.4809,-2.4695,-2.4775,-2.4401,-2.4256,-2.4238,-2.4209,-2.4199,-2.4199,-2.4153,-2.3676,-2.3033,-2.2217,-2.1354,-2.053,-2.0484,-2.0005,-1.9473,-1.9295,-1.9295,-1.9295,-1.9295,-1.9295,-1.9295,-1.9231,-1.8904,-1.8408,-1.8032,-1.7541,-1.7055,-1.6743,-1.6331,-1.5872,-1.5579,-1.5074,-1.4522,-1.4313,-1.4167,-1.3528,-1.3443,-1.3407,-1.3396,-1.3396,-1.3396,-1.3396,-1.3396,-1.3396,-1.3396,-1.3396,-1.3396,-1.3396,-1.3396,-1.3396,-1.3396,-1.3396,-1.3396,-1.34,-1.315,-1.2738,-1.2271,-1.1947,-1.1916,-1.1939,-1.1939,-1.1836,-1.1969,-1.1902,-1.1608,-1.1085,-1.0996,-1.0583,-1.0231,-0.9993,-1.005,-1.0527,-1.0464,-1.0596,-1.0759,-1.0816,-1.0998,-1.1217,-1.1142,-1.1017,-1.1073,-1.1117,-1.1021,-1.0913,-1.0421,-0.9802,-0.9084,-0.8525,-0.8069,-0.7866,-0.7974,-0.7856,-0.7695,-0.7695,-0.771,-0.7695,-0.7695,-0.7466,-0.7148,-0.6691,-0.6275,-2.5303,-2.5303,-2.5303,-2.5303,-2.5303,-2.5303,-2.5303,-2.5303,-2.5303,-2.5224,-2.5057,-2.4888,-2.4824,-2.478,-2.4552,-2.4445,-2.4401,-2.4303,-2.4199,-2.4199,-2.4199,-2.4135,-2.3758,-2.3088,-2.1941,-2.0915,-2.053,-2.0088,-1.9491,-1.9295,-1.9295,-1.9295,-1.9295,-1.9295,-1.9295,-1.9295,-1.9259,-1.8941,-1.8463,-1.8091,-1.7807,-1.7303,-1.6908,-1.6532,-1.6013,-1.5285,-1.4647,-1.4489,-1.434,-1.4024,-1.3687,-1.3492,-1.3413,-1.3396,-1.3396,-1.3396,-1.3396,-1.3396,-1.3396,-1.3396,-1.3396,-1.3396,-1.3396,-1.3396,-1.3396,-1.3396,-1.3396,-1.3362,-1.3163,-1.2884,-1.2484,-1.2021,-1.2163,-1.2411,-1.2229,-1.2323,-1.2954,-1.2486,-1.2049,-1.1654,-1.1263,-1.08,-1.0585,-1.0546,-1.0694,-1.1079,-1.1205,-1.1274,-1.1337,-1.1399,-1.1625,-1.1883,-1.1682,-1.1556,-1.1738,-1.1752,-1.1678,-1.1558,-1.1093,-1.0471,-0.9783,-0.9224,-0.8825,-0.8501,-0.8262,-0.8135,-0.7997,-0.7768,-0.7802,-0.7749,-0.771,-0.7591,-0.7366,-0.6885,-0.6558,-2.5303,-2.5303,-2.5303,-2.5303,-2.5303,-2.5303,-2.5303,-2.5303,-2.5303,-2.5244,-2.5122,-2.5017,-2.4921,-2.4887,-2.4721,-2.4648,-2.4591,-2.4426,-2.4284,-2.4228,-2.4199,-2.4199,-2.4162,-2.3685,-2.2721,-2.1345,-2.1134,-2.0482,-1.9601,-1.9305,-1.9295,-1.9295,-1.9295,-1.9295,-1.9295,-1.9295,-1.9295,-1.9225,-1.8913,-1.8656,-1.8555,-1.828,-1.7486,-1.6899,-1.6123,-1.5325,-1.4588,-1.4497,-1.445,-1.4301,-1.406,-1.3731,-1.3446,-1.3396,-1.3396,-1.3396,-1.3396,-1.3396,-1.3396,-1.3396,-1.3396,-1.3396,-1.3396,-1.3396,-1.3396,-1.3396,-1.3396,-1.3472,-1.3569,-1.3596,-1.3381,-1.3149,-1.3206,-1.3123,-1.2971,-1.3206,-1.3922,-1.3866,-1.3181,-1.2597,-1.1995,-1.1589,-1.1341,-1.1162,-1.1169,-1.1468,-1.1475,-1.1556,-1.1914,-1.2002,-1.219,-1.2341,-1.2128,-1.2096,-1.2347,-1.2395,-1.2341,-1.2177,-1.19,-1.1285,-1.0586,-1.012,-0.9692,-0.9218,-0.8672,-0.8633,-0.8501,-0.8237,-0.8027,-0.8076,-0.8065,-0.789,-0.7778,-0.7648,-0.7248,-2.5303,-2.5303,-2.5303,-2.5303,-2.5303,-2.5303,-2.5303,-2.5303,-2.5303,-2.5293,-2.5274,-2.512,-2.5067,-2.502,-2.4891,-2.4837,-2.4746,-2.4575,-2.4393,-2.4284,-2.4218,-2.4218,-2.4171,-2.3979,-2.3382,-2.207,-2.174,-2.0893,-1.9867,-1.9369,-1.9295,-1.9295,-1.9295,-1.9295,-1.9295,-1.9295,-1.9295,-1.9253,-1.9207,-1.9161,-1.9188,-1.9106,-1.8427,-1.7312,-1.6417,-1.5628,-1.4928,-1.4625,-1.4497,-1.4497,-1.4497,-1.4163,-1.3737,-1.3413,-1.3396,-1.3396,-1.3396,-1.3396,-1.3396,-1.3396,-1.3396,-1.3396,-1.3396,-1.3396,-1.3396,-1.3455,-1.3642,-1.3947,-1.4229,-1.4562,-1.4718,-1.4278,-1.4091,-1.4068,-1.398,-1.4217,-1.4848,-1.5449,-1.4637,-1.3404,-1.2636,-1.2182,-1.1965,-1.1816,-1.1812,-1.1807,-1.1814,-1.192,-1.2291,-1.2515,-1.2685,-1.2778,-1.2591,-1.2515,-1.2728,-1.2785,-1.2765,-1.2632,-1.2495,-1.1928,-1.1252,-1.0772,-1.0205,-0.9506,-0.9053,-0.9038,-0.8906,-0.8633,-0.8496,-0.8486,-0.8472,-0.8398,-0.8398,-0.8412,-0.7948,-2.5303,-2.5303,-2.5303,-2.5303,-2.5303,-2.5303,-2.5303,-2.5303,-2.5303,-2.5303,-2.5293,-2.5264,-2.5224,-2.5192,-2.5053,-2.4917,-2.4785,-2.4636,-2.4502,-2.4428,-2.433,-2.4228,-2.4238,-2.419,-2.3657,-2.285,-2.2208,-2.1308,-2.029,-1.9675,-1.9399,-1.9323,-1.9295,-1.9295,-1.9295,-1.9295,-1.9295,-1.9295,-1.9295,-1.9295,-1.9295,-1.9231,-1.8867,-1.7807,-1.7046,-1.6312,-1.5518,-1.4864,-1.4497,-1.4497,-1.4497,-1.4429,-1.4154,-1.3707,-1.3438,-1.3396,-1.3396,-1.3396,-1.3396,-1.3396,-1.3396,-1.3396,-1.3396,-1.3388,-1.3396,-1.3515,-1.405,-1.4857,-1.5067,-1.5127,-1.5088,-1.4849,-1.4686,-1.4742,-1.4713,-1.4698,-1.5371,-1.5585,-1.5405,-1.4218,-1.3424,-1.2777,-1.2661,-1.2532,-1.2494,-1.2499,-1.2522,-1.2553,-1.276,-1.2929,-1.3029,-1.3085,-1.3091,-1.3066,-1.3123,-1.3098,-1.3076,-1.2936,-1.2748,-1.2342,-1.1749,-1.1255,-1.0651,-1.0,-0.9549,-0.9419,-0.9238,-0.9033,-0.8936,-0.8906,-0.8901,-0.8901,-0.8916,-0.8849,-0.8588,-2.5303,-2.5303,-2.5303,-2.5303,-2.5303,-2.5303,-2.5303,-2.5303,-2.5303,-2.5303,-2.5303,-2.5303,-2.5303,-2.5274,-2.5204,-2.5063,-2.4904,-2.4804,-2.4717,-2.4639,-2.447,-2.4357,-2.4321,-2.4284,-2.3997,-2.3483,-2.2795,-2.174,-2.0585,-2.0145,-1.9702,-1.9351,-1.9295,-1.9295,-1.9295,-1.9295,-1.9295,-1.9295,-1.9295,-1.9295,-1.9295,-1.9286,-1.8882,-1.8207,-1.7724,-1.7133,-1.6276,-1.5062,-1.4764,-1.4946,-1.4729,-1.4543,-1.431,-1.3935,-1.3405,-1.3405,-1.3396,-1.3396,-1.3396,-1.3396,-1.3396,-1.3396,-1.3405,-1.3396,-1.3513,-1.3851,-1.4695,-1.5688,-1.6114,-1.6054,-1.6289,-1.5783,-1.5711,-1.5673,-1.5387,-1.5358,-1.5635,-1.5784,-1.5467,-1.5021,-1.4544,-1.3924,-1.3415,-1.3318,-1.323,-1.3202,-1.322,-1.321,-1.321,-1.321,-1.321,-1.3204,-1.3192,-1.3198,-1.3204,-1.3204,-1.321,-1.3129,-1.3012,-1.2609,-1.2276,-1.1799,-1.1228,-1.0609,-1.0259,-0.9945,-0.9731,-0.958,-0.9458,-0.9296,-0.9331,-0.9346,-0.9333,-0.9255,-0.9056,-2.5303,-2.5303,-2.5303,-2.5303,-2.5303,-2.5303,-2.5303,-2.5303,-2.5303,-2.5303,-2.5303,-2.5303,-2.5303,-2.5293,-2.5274,-2.5194,-2.5055,-2.5022,-2.4911,-2.4818,-2.4645,-2.4543,-2.4512,-2.4428,-2.4275,-2.41,-2.3657,-2.2491,-2.1354,-2.0622,-2.0106,-1.9711,-1.9464,-1.9295,-1.9295,-1.9295,-1.9295,-1.9295,-1.9295,-1.9295,-1.9295,-1.9259,-1.9014,-1.8363,-1.8207,-1.7766,-1.7083,-1.5921,-1.551,-1.5766,-1.5732,-1.529,-1.4581,-1.4065,-1.3692,-1.3447,-1.3396,-1.3396,-1.3396,-1.3396,-1.3388,-1.3404,-1.3548,-1.3545,-1.3824,-1.4561,-1.5756,-1.6648,-1.6923,-1.698,-1.7132,-1.6946,-1.664,-1.6358,-1.6034,-1.5806,-1.5784,-1.5814,-1.5814,-1.5528,-1.5389,-1.4956,-1.4293,-1.3729,-1.3565,-1.3384,-1.3397,-1.321,-1.321,-1.321,-1.321,-1.321,-1.3204,-1.3204,-1.321,-1.3204,-1.321,-1.317,-1.3094,-1.2867,-1.265,-1.236,-1.1774,-1.1217,-1.0962,-1.0703,-1.0429,-1.0068,-0.9888,-0.977,-0.977,-0.9748,-0.9777,-0.9831,-0.9738,-2.5303,-2.5303,-2.5303,-2.5303,-2.5303,-2.5303,-2.5303,-2.5303,-2.5303,-2.5303,-2.5303,-2.5303,-2.5303,-2.5303,-2.5303,-2.5274,-2.5214,-2.5099,-2.501,-2.4968,-2.4832,-2.4741,-2.476,-2.4736,-2.4584,-2.4469,-2.4314,-2.3737,-2.2572,-2.1298,-2.0512,-2.0209,-1.9675,-1.9295,-1.9305,-1.9295,-1.9295,-1.9295,-1.9295,-1.9295,-1.9295,-1.9295,-1.9198,-1.895,-1.8537,-1.8151,-1.7913,-1.706,-1.6743,-1.6793,-1.8011,-1.7185,-1.5209,-1.4973,-1.442,-1.3803,-1.3396,-1.3405,-1.3481,-1.3633,-1.3496,-1.3626,-1.3974,-1.393,-1.4447,-1.578,-1.7169,-1.7549,-1.7633,-1.7594,-1.7545,-1.715,-1.6866,-1.6562,-1.6219,-1.5934,-1.5806,-1.5814,-1.5814,-1.5814,-1.558,-1.5389,-1.4956,-1.4379,-1.3855,-1.3669,-1.3514,-1.3363,-1.321,-1.321,-1.321,-1.321,-1.321,-1.321,-1.321,-1.321,-1.321,-1.321,-1.317,-1.3088,-1.2908,-1.2656,-1.2324,-1.1819,-1.1621,-1.1175,-1.0626,-1.0329,-1.0257,-1.0137,-1.0044,-1.0107,-1.0248,-1.0259,-1.0196,-2.5303,-2.5303,-2.5303,-2.5303,-2.5303,-2.5303,-2.5303,-2.5303,-2.5303,-2.5303,-2.5303,-2.5303,-2.5303,-2.5303,-2.5303,-2.5293,-2.5274,-2.5194,-2.5163,-2.512,-2.5005,-2.4888,-2.4843,-2.4809,-2.474,-2.4723,-2.4561,-2.4321,-2.345,-2.2563,-2.1566,-2.0549,-2.0152,-1.9711,-1.9433,-1.9314,-1.9295,-1.9295,-1.9295,-1.9295,-1.9295,-1.9295,-1.9295,-1.9286,-1.8922,-1.8775,-1.8643,-1.8521,-1.7978,-1.7937,-1.8781,-1.8252,-1.6535,-1.603,-1.5753,-1.4857,-1.4829,-1.4641,-1.4193,-1.4429,-1.4155,-1.3899,-1.4435,-1.5146,-1.5528,-1.6623,-1.7794,-1.7777,-1.778,-1.7789,-1.7735,-1.7361,-1.7126,-1.6825,-1.6375,-1.6032,-1.5827,-1.5806,-1.5814,-1.5814,-1.5785,-1.5588,-1.5418,-1.4968,-1.4367,-1.396,-1.3742,-1.3527,-1.3335,-1.321,-1.321,-1.321,-1.321,-1.321,-1.321,-1.321,-1.321,-1.321,-1.321,-1.3135,-1.306,-1.2838,-1.2544,-1.2395,-1.2174,-1.1616,-1.0916,-1.0634,-1.056,-1.0437,-1.0317,-1.0322,-1.0322,-1.0317,-1.0259,-2.5303,-2.5303,-2.5303,-2.5303,-2.5303,-2.5303,-2.5303,-2.5303,-2.5303,-2.5303,-2.5303,-2.5303,-2.5303,-2.5303,-2.5303,-2.5303,-2.5293,-2.5303,-2.5303,-2.5234,-2.5153,-2.505,-2.5015,-2.4956,-2.4966,-2.4978,-2.4775,-2.4589,-2.4337,-2.37,-2.2628,-2.1143,-2.064,-2.0225,-1.9721,-1.9399,-1.9295,-1.9295,-1.9295,-1.9295,-1.9295,-1.9295,-1.9295,-1.9295,-1.9286,-1.9295,-1.9286,-1.923,-1.8838,-1.8709,-1.8915,-1.8633,-1.7674,-1.718,-1.7088,-1.6501,-1.6457,-1.5884,-1.5453,-1.5306,-1.4939,-1.4806,-1.5196,-1.6412,-1.683,-1.754,-1.7789,-1.7803,-1.7789,-1.7789,-1.7735,-1.7502,-1.7199,-1.6901,-1.6562,-1.6191,-1.5877,-1.5835,-1.5814,-1.5814,-1.5814,-1.5814,-1.5617,-1.5448,-1.4968,-1.4335,-1.3993,-1.3715,-1.3465,-1.3245,-1.321,-1.321,-1.321,-1.321,-1.321,-1.321,-1.321,-1.321,-1.321,-1.321,-1.3135,-1.3094,-1.2949,-1.2803,-1.265,-1.2138,-1.1436,-1.1169,-1.0862,-1.0539,-1.0322,-1.0322,-1.0322,-1.0322,-1.0317,-2.5303,-2.5303,-2.5303,-2.5303,-2.5303,-2.5303,-2.5303,-2.5303,-2.5303,-2.5303,-2.5303,-2.5303,-2.5303,-2.5303,-2.5303,-2.5303,-2.5303,-2.5303,-2.5303,-2.5293,-2.5283,-2.5234,-2.5204,-2.5202,-2.5227,-2.5192,-2.4977,-2.485,-2.4785,-2.4559,-2.375,-2.2848,-2.1643,-2.0816,-2.0257,-1.9914,-1.9454,-1.9357,-1.9295,-1.9295,-1.9295,-1.9295,-1.9295,-1.9295,-1.9295,-1.9295,-1.9295,-1.9292,-1.9246,-1.9051,-1.9197,-1.9276,-1.8665,-1.8155,-1.8007,-1.8076,-1.7568,-1.7041,-1.6732,-1.618,-1.5667,-1.5904,-1.655,-1.7397,-1.7532,-1.7645,-1.7789,-1.7789,-1.7789,-1.7789,-1.7712,-1.7534,-1.7304,-1.706,-1.6773,-1.6285,-1.5986,-1.5827,-1.5806,-1.5814,-1.5814,-1.5814,-1.5814,-1.5617,-1.5322,-1.4721,-1.4052,-1.3742,-1.3431,-1.321,-1.321,-1.321,-1.321,-1.321,-1.321,-1.321,-1.321,-1.321,-1.321,-1.321,-1.321,-1.317,-1.3135,-1.31,-1.2914,-1.2437,-1.1999,-1.1542,-1.1057,-1.0577,-1.0322,-1.0322,-1.0322,-1.0322,-1.0322,-2.4861,-2.5303,-2.5303,-2.5303,-2.5303,-2.5303,-2.5303,-2.5303,-2.5303,-2.5303,-2.5303,-2.5303,-2.5303,-2.5303,-2.5303,-2.5303,-2.5303,-2.5303,-2.5303,-2.5303,-2.5303,-2.5303,-2.5303,-2.5303,-2.5282,-2.5249,-2.5096,-2.4989,-2.4911,-2.4883,-2.4647,-2.3783,-2.2789,-2.2168,-2.1545,-2.0646,-1.9959,-1.9378,-1.9299,-1.9299,-1.9295,-1.9295,-1.9295,-1.9295,-1.9295,-1.9295,-1.9295,-1.9295,-1.9295,-1.9295,-1.9295,-1.9295,-1.9295,-1.8819,-1.8802,-1.9008,-1.8369,-1.808,-1.7737,-1.7231,-1.6986,-1.701,-1.7479,-1.7789,-1.7789,-1.7789,-1.7789,-1.7789,-1.7789,-1.7789,-1.7758,-1.7689,-1.7566,-1.7345,-1.6977,-1.646,-1.6076,-1.5866,-1.5806,-1.5814,-1.5814,-1.5814,-1.5814,-1.5777,-1.5485,-1.5097,-1.4367,-1.3769,-1.3493,-1.321,-1.321,-1.321,-1.321,-1.321,-1.321,-1.321,-1.321,-1.321,-1.321,-1.321,-1.321,-1.321,-1.321,-1.321,-1.3135,-1.2656,-1.2174,-1.1768,-1.1212,-1.0582,-1.0361,-1.0322,-1.0322,-1.0322,-1.0322,-2.4572,-2.5264,-2.5303,-2.5303,-2.5303,-2.5303,-2.5303,-2.5303,-2.5303,-2.5303,-2.5303,-2.5303,-2.5303,-2.5303,-2.5303,-2.5303,-2.5303,-2.5303,-2.5303,-2.5303,-2.5303,-2.5303,-2.5303,-2.5293,-2.5303,-2.5264,-2.5183,-2.5098,-2.5098,-2.5,-2.4914,-2.4702,-2.4341,-2.3566,-2.2574,-2.1648,-2.0557,-1.9605,-1.9558,-1.9445,-1.9381,-1.9295,-1.9295,-1.9295,-1.9295,-1.9295,-1.9295,-1.9295,-1.9295,-1.9295,-1.9295,-1.9295,-1.9295,-1.9256,-1.9153,-1.9048,-1.8921,-1.8798,-1.8478,-1.8048,-1.7825,-1.7631,-1.7687,-1.7789,-1.7789,-1.7789,-1.7789,-1.7789,-1.7789,-1.7789,-1.7789,-1.7766,-1.7635,-1.74,-1.7085,-1.6596,-1.6092,-1.5811,-1.5796,-1.5814,-1.5814,-1.5814,-1.5814,-1.5785,-1.5544,-1.5195,-1.462,-1.4019,-1.3642,-1.3397,-1.321,-1.321,-1.321,-1.321,-1.321,-1.321,-1.321,-1.321,-1.321,-1.321,-1.321,-1.321,-1.321,-1.321,-1.306,-1.2762,-1.2431,-1.2066,-1.1319,-1.0505,-1.0395,-1.0361,-1.0322,-1.0322,-1.0322,-2.4524,-2.5274,-2.5293,-2.5303,-2.5303,-2.5303,-2.5303,-2.5303,-2.5303,-2.5303,-2.5303,-2.5303,-2.5303,-2.5303,-2.5303,-2.5303,-2.5303,-2.5303,-2.5303,-2.5303,-2.5303,-2.5303,-2.5303,-2.5303,-2.5303,-2.5303,-2.5264,-2.5244,-2.5273,-2.5213,-2.5223,-2.5223,-2.4952,-2.4538,-2.3462,-2.2468,-2.1093,-1.9785,-2.0356,-1.9898,-1.9583,-1.9396,-1.9295,-1.9295,-1.9295,-1.9295,-1.9295,-1.9295,-1.9295,-1.9295,-1.9295,-1.9295,-1.9295,-1.9295,-1.9256,-1.9225,-1.9075,-1.9001,-1.8923,-1.8237,-1.7892,-1.7811,-1.7789,-1.7789,-1.7789,-1.7789,-1.7789,-1.7789,-1.7789,-1.7789,-1.7789,-1.7789,-1.7627,-1.7471,-1.7175,-1.6834,-1.6349,-1.6028,-1.6095,-1.5871,-1.5814,-1.5814,-1.5814,-1.5748,-1.5544,-1.5225,-1.4752,-1.4303,-1.3868,-1.3496,-1.3232,-1.321,-1.321,-1.321,-1.321,-1.321,-1.321,-1.321,-1.321,-1.321,-1.321,-1.321,-1.321,-1.321,-1.3094,-1.2902,-1.2691,-1.2437,-1.1658,-1.0916,-1.0549,-1.0438,-1.0361,-1.0322,-1.0322,-2.3735,-2.4553,-2.5072,-2.5303,-2.5303,-2.5303,-2.5303,-2.5303,-2.5303,-2.5303,-2.5303,-2.5303,-2.5303,-2.5303,-2.5303,-2.5303,-2.5303,-2.5303,-2.5303,-2.5303,-2.5303,-2.5303,-2.5303,-2.5303,-2.5303,-2.5303,-2.5303,-2.5303,-2.5293,-2.5303,-2.5303,-2.5293,-2.5274,-2.5099,-2.4477,-2.3677,-2.2639,-2.2286,-2.1486,-2.0319,-2.0069,-1.9629,-1.9341,-1.9341,-1.9341,-1.9295,-1.9295,-1.9295,-1.9295,-1.9295,-1.9295,-1.9295,-1.9295,-1.9295,-1.9295,-1.9295,-1.918,-1.9143,-1.8922,-1.843,-1.8023,-1.7892,-1.7789,-1.7789,-1.7789,-1.7789,-1.7789,-1.7789,-1.7789,-1.7789,-1.7789,-1.7789,-1.7704,-1.7712,-1.7487,-1.715,-1.6793,-1.6601,-1.6472,-1.6029,-1.5814,-1.5814,-1.5814,-1.5814,-1.5646,-1.5507,-1.5127,-1.4533,-1.4032,-1.3539,-1.3227,-1.3216,-1.321,-1.321,-1.321,-1.321,-1.321,-1.321,-1.321,-1.321,-1.321,-1.321,-1.321,-1.321,-1.3163,-1.3053,-1.2797,-1.2473,-1.1987,-1.1399,-1.1067,-1.0659,-1.0472,-1.0395,-1.0322,-2.3311,-2.4158,-2.4976,-2.5303,-2.5303,-2.5303,-2.5303,-2.5303,-2.5303,-2.5303,-2.5303,-2.5303,-2.5303,-2.5303,-2.5303,-2.5303,-2.5303,-2.5303,-2.5303,-2.5303,-2.5303,-2.5303,-2.5303,-2.5303,-2.5303,-2.5303,-2.5303,-2.5303,-2.5303,-2.5303,-2.5303,-2.5303,-2.5303,-2.5257,-2.4911,-2.4397,-2.3907,-2.3455,-2.2397,-2.1354,-2.0868,-2.0308,-1.9767,-1.9656,-1.951,-1.9295,-1.9295,-1.9295,-1.9295,-1.9295,-1.9295,-1.9295,-1.9295,-1.9295,-1.9295,-1.9295,-1.928,-1.9198,-1.894,-1.8762,-1.8351,-1.8014,-1.79,-1.7819,-1.7789,-1.7789,-1.7789,-1.7789,-1.7789,-1.7789,-1.7789,-1.7789,-1.7789,-1.7789,-1.7557,-1.7256,-1.7215,-1.7017,-1.6402,-1.5975,-1.5799,-1.5806,-1.5814,-1.5814,-1.5748,-1.5646,-1.5514,-1.4883,-1.422,-1.371,-1.3269,-1.3213,-1.321,-1.321,-1.321,-1.321,-1.321,-1.321,-1.321,-1.321,-1.321,-1.321,-1.321,-1.321,-1.317,-1.3094,-1.2838,-1.2508,-1.2282,-1.1987,-1.1621,-1.1137,-1.0654,-1.0433,-1.0322,-2.3245,-2.4081,-2.4909,-2.5226,-2.5235,-2.5245,-2.5303,-2.5303,-2.5303,-2.5303,-2.5303,-2.5303,-2.5303,-2.5303,-2.5303,-2.5303,-2.5303,-2.5303,-2.5303,-2.5303,-2.5303,-2.5303,-2.5303,-2.5303,-2.5303,-2.5303,-2.5303,-2.5303,-2.5303,-2.5303,-2.5303,-2.5303,-2.5303,-2.5297,-2.5132,-2.4877,-2.4473,-2.3925,-2.317,-2.2272,-2.1749,-2.1024,-2.0528,-2.0235,-1.9858,-1.95,-1.9372,-1.9295,-1.9295,-1.9295,-1.9295,-1.9295,-1.9295,-1.9295,-1.9295,-1.9295,-1.9295,-1.9189,-1.9086,-1.8939,-1.866,-1.827,-1.7984,-1.7869,-1.7789,-1.7789,-1.7789,-1.7789,-1.7789,-1.7789,-1.7789,-1.7789,-1.7789,-1.7658,-1.7479,-1.7419,-1.7478,-1.7078,-1.6316,-1.5928,-1.5839,-1.5812,-1.5806,-1.5814,-1.5814,-1.5704,-1.5544,-1.5195,-1.4519,-1.3848,-1.3471,-1.3204,-1.321,-1.321,-1.321,-1.321,-1.321,-1.321,-1.321,-1.321,-1.321,-1.321,-1.321,-1.321,-1.321,-1.3135,-1.2984,-1.2949,-1.2908,-1.2544,-1.2138,-1.1505,-1.0943,-1.0467,-1.0322,-2.2023,-2.2399,-2.3832,-2.4437,-2.4534,-2.5063,-2.5303,-2.5303,-2.5303,-2.5303,-2.5303,-2.5303,-2.5303,-2.5303,-2.5303,-2.5303,-2.5303,-2.5303,-2.5303,-2.5303,-2.5303,-2.5303,-2.5303,-2.5303,-2.5303,-2.5303,-2.5303,-2.5303,-2.5303,-2.5303,-2.5303,-2.5303,-2.5303,-2.5298,-2.522,-2.5057,-2.4666,-2.4195,-2.349,-2.306,-2.2556,-2.1858,-2.129,-2.0704,-2.0301,-1.9895,-1.95,-1.9317,-1.9289,-1.9295,-1.9295,-1.9295,-1.9295,-1.9295,-1.9295,-1.9295,-1.928,-1.9259,-1.918,-1.9076,-1.8852,-1.8528,-1.8229,-1.7992,-1.7878,-1.7789,-1.7789,-1.7789,-1.7789,-1.7789,-1.7789,-1.7789,-1.7789,-1.7689,-1.7566,-1.7594,-1.7656,-1.7428,-1.6654,-1.5892,-1.5813,-1.582,-1.5814,-1.5814,-1.5777,-1.5704,-1.5544,-1.5255,-1.4831,-1.4192,-1.369,-1.3419,-1.3301,-1.3329,-1.3239,-1.321,-1.321,-1.321,-1.321,-1.321,-1.321,-1.321,-1.321,-1.321,-1.321,-1.321,-1.317,-1.3135,-1.3094,-1.2984,-1.2579,-1.1872,-1.1239,-1.0764,-1.0356,-2.1477,-2.1696,-2.3004,-2.3773,-2.4216,-2.4966,-2.5303,-2.5303,-2.5303,-2.5303,-2.5303,-2.5303,-2.5303,-2.5303,-2.5303,-2.5303,-2.5303,-2.5303,-2.5303,-2.5303,-2.5303,-2.5303,-2.5303,-2.5303,-2.5303,-2.5303,-2.5303,-2.5303,-2.5303,-2.5303,-2.5303,-2.5303,-2.5303,-2.5301,-2.5236,-2.508,-2.4841,-2.4433,-2.3999,-2.3681,-2.3243,-2.2729,-2.2006,-2.1429,-2.1025,-2.0271,-1.9803,-1.9611,-1.936,-1.9305,-1.9295,-1.9295,-1.9295,-1.9295,-1.9295,-1.9295,-1.9295,-1.928,-1.9249,-1.9189,-1.8956,-1.8717,-1.8461,-1.8175,-1.7936,-1.7789,-1.7789,-1.7789,-1.7789,-1.7789,-1.7789,-1.7789,-1.7789,-1.7789,-1.7791,-1.7794,-1.779,-1.7797,-1.703,-1.6088,-1.5816,-1.5818,-1.5814,-1.5814,-1.5806,-1.5741,-1.5639,-1.5411,-1.5022,-1.4523,-1.4025,-1.3675,-1.3547,-1.3486,-1.3363,-1.321,-1.321,-1.321,-1.321,-1.321,-1.321,-1.321,-1.321,-1.321,-1.321,-1.321,-1.321,-1.321,-1.317,-1.306,-1.2838,-1.221,-1.1579,-1.1062,-1.0692,-2.1398,-2.1456,-2.2418,-2.336,-2.4158,-2.4947,-2.5303,-2.5303,-2.5303,-2.5303,-2.5303,-2.5303,-2.5303,-2.5303,-2.5303,-2.5303,-2.5303,-2.5303,-2.5303,-2.5303,-2.5303,-2.5303,-2.5303,-2.5303,-2.5303,-2.5303,-2.5303,-2.5303,-2.5303,-2.5303,-2.5303,-2.5303,-2.5303,-2.5302,-2.5273,-2.516,-2.5003,-2.4835,-2.4586,-2.4335,-2.4128,-2.3628,-2.3024,-2.2648,-2.1731,-2.0723,-2.0473,-2.0033,-1.9488,-1.947,-1.9433,-1.9464,-1.9305,-1.9295,-1.9295,-1.9295,-1.9295,-1.9295,-1.9295,-1.9249,-1.9072,-1.886,-1.8652,-1.829,-1.7992,-1.7811,-1.7789,-1.7789,-1.7789,-1.7789,-1.7789,-1.7789,-1.7789,-1.7789,-1.7805,-1.7791,-1.7782,-1.7575,-1.6905,-1.6111,-1.5818,-1.5805,-1.5814,-1.5814,-1.5814,-1.5799,-1.5733,-1.5544,-1.5315,-1.4885,-1.4385,-1.396,-1.3769,-1.3608,-1.3335,-1.321,-1.321,-1.321,-1.321,-1.321,-1.321,-1.321,-1.321,-1.321,-1.321,-1.321,-1.321,-1.321,-1.321,-1.3135,-1.2873,-1.2473,-1.1957,-1.1473,-1.0878,-2.0583,-2.0727,-2.2187,-2.3293,-2.4168,-2.4957,-2.5303,-2.5303,-2.5303,-2.5303,-2.5303,-2.5303,-2.5303,-2.5303,-2.5303,-2.5303,-2.5303,-2.5303,-2.5303,-2.5303,-2.5303,-2.5303,-2.5303,-2.5303,-2.5303,-2.5303,-2.5303,-2.5303,-2.5303,-2.5303,-2.5303,-2.5303,-2.5303,-2.5303,-2.5293,-2.5214,-2.5184,-2.5124,-2.4977,-2.4728,-2.4465,-2.4282,-2.3865,-2.3271,-2.2345,-2.1905,-2.1628,-2.1272,-2.0857,-2.0618,-2.0326,-1.9923,-1.9335,-1.9323,-1.9305,-1.9295,-1.9295,-1.9295,-1.9295,-1.9265,-1.9148,-1.8895,-1.8633,-1.8281,-1.8014,-1.7869,-1.7789,-1.7789,-1.7789,-1.7789,-1.7789,-1.7789,-1.7789,-1.7789,-1.7789,-1.7789,-1.7789,-1.7272,-1.6706,-1.627,-1.5892,-1.5811,-1.5799,-1.5814,-1.5814,-1.5814,-1.5814,-1.5712,-1.5712,-1.5389,-1.4783,-1.4349,-1.3993,-1.3742,-1.3431,-1.321,-1.321,-1.321,-1.321,-1.321,-1.321,-1.321,-1.321,-1.321,-1.321,-1.321,-1.321,-1.321,-1.3204,-1.317,-1.3053,-1.2691,-1.2473,-1.2066,-1.1324,-2.0302,-2.0523,-2.21,-2.3071,-2.3687,-2.4784,-2.5303,-2.5303,-2.5303,-2.5303,-2.5303,-2.5303,-2.5303,-2.5303,-2.5303,-2.5303,-2.5303,-2.5303,-2.5303,-2.5303,-2.5303,-2.5303,-2.5303,-2.5303,-2.5303,-2.5303,-2.5303,-2.5303,-2.5303,-2.5303,-2.5303,-2.5303,-2.5303,-2.5303,-2.5303,-2.5303,-2.5303,-2.5284,-2.5172,-2.4981,-2.4717,-2.4576,-2.4386,-2.3762,-2.3277,-2.2873,-2.2436,-2.2024,-2.1437,-2.1053,-2.0717,-2.0108,-1.9668,-1.9675,-1.9611,-1.9399,-1.9295,-1.9295,-1.9295,-1.9259,-1.9212,-1.9003,-1.8706,-1.8379,-1.7927,-1.7789,-1.7789,-1.7789,-1.7789,-1.7789,-1.7789,-1.7789,-1.7789,-1.7789,-1.7789,-1.7789,-1.7612,-1.724,-1.6639,-1.603,-1.5813,-1.5812,-1.5814,-1.5814,-1.5814,-1.5814,-1.5814,-1.5814,-1.5814,-1.5806,-1.5209,-1.4728,-1.4374,-1.3986,-1.3709,-1.3431,-1.321,-1.321,-1.321,-1.321,-1.321,-1.321,-1.321,-1.321,-1.321,-1.321,-1.321,-1.321,-1.321,-1.321,-1.3129,-1.3019,-1.2797,-1.2544,-1.1951,-2.0302,-2.0525,-2.1966,-2.2629,-2.2879,-2.4428,-2.5111,-2.5139,-2.5245,-2.5303,-2.5303,-2.5303,-2.5303,-2.5303,-2.5303,-2.5303,-2.5303,-2.5303,-2.5303,-2.5303,-2.5303,-2.5303,-2.5303,-2.5303,-2.5303,-2.5303,-2.5303,-2.5303,-2.5303,-2.5303,-2.5303,-2.5303,-2.5303,-2.5303,-2.5303,-2.5303,-2.5303,-2.5303,-2.5244,-2.5173,-2.5039,-2.49,-2.467,-2.4298,-2.3887,-2.3399,-2.2994,-2.2538,-2.1851,-2.173,-2.1594,-2.095,-2.0283,-2.0179,-1.973,-1.9528,-1.9295,-1.9295,-1.9295,-1.928,-1.927,-1.9165,-1.8823,-1.8459,-1.8005,-1.7803,-1.7803,-1.7811,-1.7811,-1.7789,-1.7789,-1.7789,-1.7789,-1.7789,-1.7789,-1.7789,-1.7519,-1.7289,-1.6684,-1.6034,-1.5895,-1.5911,-1.5806,-1.5814,-1.5814,-1.5814,-1.5814,-1.5814,-1.5814,-1.5777,-1.5514,-1.5134,-1.4814,-1.4431,-1.396,-1.3581,-1.3273,-1.321,-1.321,-1.321,-1.321,-1.321,-1.321,-1.321,-1.321,-1.321,-1.321,-1.321,-1.321,-1.321,-1.317,-1.3094,-1.2978,-1.2726,-1.2508,-2.0302,-2.0398,-2.135,-2.1764,-2.2033,-2.3601,-2.4322,-2.4447,-2.5014,-2.5303,-2.5303,-2.5303,-2.5303,-2.5303,-2.5303,-2.5303,-2.5303,-2.5303,-2.5303,-2.5303,-2.5303,-2.5303,-2.5303,-2.5303,-2.5303,-2.5303,-2.5303,-2.5303,-2.5303,-2.5303,-2.5303,-2.5303,-2.5303,-2.5303,-2.5303,-2.5303,-2.5303,-2.5303,-2.5303,-2.5254,-2.5204,-2.5063,-2.4904,-2.4643,-2.4444,-2.4288,-2.4121,-2.3907,-2.3722,-2.3612,-2.3297,-2.2433,-2.1562,-2.0803,-2.0345,-1.9849,-1.9574,-1.9442,-1.9461,-1.947,-1.9476,-1.9259,-1.893,-1.8624,-1.8214,-1.788,-1.7866,-1.7839,-1.7825,-1.7789,-1.7789,-1.7789,-1.7789,-1.7789,-1.7789,-1.7789,-1.7666,-1.7515,-1.7191,-1.663,-1.6214,-1.6077,-1.5885,-1.5863,-1.5814,-1.5814,-1.5814,-1.5814,-1.5814,-1.5777,-1.5762,-1.5477,-1.5195,-1.462,-1.4019,-1.3608,-1.3329,-1.3273,-1.321,-1.321,-1.321,-1.321,-1.321,-1.321,-1.321,-1.321,-1.321,-1.321,-1.321,-1.321,-1.321,-1.317,-1.3053,-1.2978,-1.2797]},{"header":{"parameterUnit":"m.s-1","parameterCategory":1,"la1":31.0,"la2":29.5877,"lo1":-88.7671,"lo2":-86.6584,"dy":0.0162,"dx":0.0185,"nx":115,"ny":88,"refTime":"2026-03-24T12:00:00:Z","depth":0,"parameterNumber":3,"parameterNumberName":"V-component_of_WINDS"},"data":[0.0,0.0,0.0,0.0,0.0,0.0,0.0,0.0,0.0,0.0,0.0,0.0,0.0,0.0,0.0,0.0,0.0,0.0,0.0,0.0,0.0,0.0,0.0,0.0,0.0,0.0,0.0,0.0,0.0,0.0,0.0,0.0,0.0,0.0,0.0,0.0,0.0,0.0,0.0,0.0,0.0,0.0,0.0,0.0,0.0,0.0,0.0,0.0,0.0,0.0,0.0,0.0,0.0,0.0,0.0,0.0,0.0,0.0,0.0,0.0,0.0,0.0,0.0,0.0,0.0,0.0,0.0,0.0,0.0,0.0,0.0,0.0,0.0,0.0,0.0,0.0,0.0,0.0,0.0,0.0,0.0,0.0,0.0,0.0,0.0,0.0,0.0,0.0,0.0,0.0,0.0,0.0,0.0,0.0,0.0,0.0,0.0,0.0,0.0,0.0,0.0,0.0,0.0,0.0,0.0,0.0,0.0,0.0,0.0,0.0,0.0,0.0,0.0,0.0,0.0,0.0,0.0,0.0,0.0,0.0,0.0,0.0,0.0,0.0,0.0,0.0,0.0,0.0,0.0,0.0,0.0,0.0,0.0,0.0,0.0,0.0,0.0,0.0,0.0,0.0,0.0,0.0,0.0,0.0,0.0,0.0,0.0,0.0,0.0,0.0,0.0,0.0,0.0,0.0,0.0,0.0,0.0,0.0,0.0,0.0,0.0,0.0,0.0,0.0,0.0,0.0,0.0,0.0,0.0,0.0,0.0,0.0,0.0,0.0,0.0,0.0,0.0,0.0,0.0,0.0,0.0,0.0,0.0,0.0,0.0,0.0,0.0,0.0,0.0,0.0,0.0,0.0,0.0,0.0,0.0,0.0,0.0,0.0,0.0,0.0,0.0,0.0,0.0,0.0,0.0,0.0,0.0,0.0,0.0,0.0,0.0,0.0,0.0,0.0,0.0,0.0,0.0,0.0,0.0,0.0,0.0,0.0,0.0,0.0,0.0,0.0,0.0,0.0,0.0,0.0,0.0,0.0,0.0,0.0,0.0,0.0,0.0,0.0,0.0,0.0,0.0,0.0,0.0,0.0,0.0,0.0,0.0,0.0,0.0,0.0,0.0,0.0,0.0,0.0,0.0,0.0,0.0,0.0,0.0,0.0,0.0,0.0,0.0,0.0,0.0,0.0,0.0,0.0,0.0,0.0,0.0,0.0,0.0,0.0,0.0,0.0,0.0,0.0,0.0,0.0,0.0,0.0,0.0,0.0,0.0,0.0,0.0,0.0,0.0,0.0,0.0,0.0,0.0,0.0,0.0,0.0,0.0,0.0,0.0,0.0,0.0,0.0,0.0,0.0,0.0,0.0,0.0,0.0,0.0,0.0,0.0,0.0,0.0,0.0,0.0,0.0,0.0,0.0,0.0,0.0,0.0,0.0,0.0,0.0,0.0,0.0,0.0,0.0,0.0,0.0,0.0,0.0,0.0,0.0,0.0,0.0,0.0,0.0,0.0,0.0,0.0,0.0,0.0,0.0,0.0,0.0,0.0,0.0,0.0,0.0,0.0,0.0,0.0,0.0,0.0,0.0,0.0,0.0,0.0,0.0,0.0,0.0,0.0,0.0,0.0,0.0,0.0,0.0,0.0,0.0,0.0,0.0,0.0,0.0,0.0,0.0,0.0,0.0,0.0,0.0,0.0,0.0,0.0,0.0,0.0,0.0,0.0,0.0,0.0,0.0,0.0,0.0,0.0,0.0,0.0,0.0,0.0,0.0,0.0,0.0,0.0,0.0,0.0,0.0,0.0,0.0,0.0,0.0,0.0,0.0,0.0,0.0,0.0,0.0,0.0,0.0,0.0,0.0,0.0,0.0,0.0,0.0,0.0,0.0,0.0,0.0,0.0,0.0,0.0,0.0,0.0,0.0,0.0,0.0,0.0,0.0,0.0,0.0,0.0,0.0,0.0,0.0,0.0,0.0,0.0,0.0,0.0,0.0,0.0,0.0,0.0,0.0,0.0,0.0,0.0,0.0,0.0,0.0,0.0,0.0,0.0,0.0,0.0,0.0,0.0,0.0,0.0,0.0,0.0,0.0,0.0,0.0,0.0,0.0,0.0,0.0,0.0,0.0,0.0,0.0,0.0,0.0,0.0,0.0,0.0,0.0,0.0,0.0,0.0,0.0,0.0,0.0,0.0,0.0,0.0,0.0,0.0,0.0,0.0,0.0,0.0,0.0,0.0,0.0,0.0,0.0,0.0,0.0,0.0,0.0,0.0,0.0,0.0,0.0,0.0,0.0,0.0,0.0,0.0,0.0,0.0,0.0,0.0,0.0,0.0,0.0,0.0,0.0,0.0,0.0,0.0,0.0,0.0,0.0,0.0,0.0,0.0,0.0,0.0,0.0,0.0,0.0,0.0,0.0,0.0,0.0,0.0,0.0,0.0,0.0,0.0,0.0,0.0,0.0,0.0,0.0,0.0,0.0,0.0,0.0,0.0,0.0,0.0,0.0,0.0,0.0,0.0,0.0,0.0,0.0,0.0,0.0,0.0,0.0,0.0,0.0,0.0,0.0,0.0,0.0,0.0,0.0,0.0,0.0,0.0,0.0,0.0,0.0,0.0,0.0,0.0,0.0,0.0,0.0,0.0,0.0,0.0,0.0,0.0,0.0,0.0,0.0,0.0,0.0,0.0,0.0,0.0,0.0,0.0,0.0,0.0,0.0,0.0,0.0,0.0,0.0,0.0,0.0,0.0,0.0,0.0,0.0,0.0,0.0,0.0,0.0,0.0,0.0,0.0,0.0,0.0,0.0,0.0,0.0,0.0,0.0,0.0,0.0,0.0,0.0,0.0,0.0,0.0,0.0,0.0,0.0,0.0,0.0,0.0,0.0,0.0,0.0,0.0,0.0,0.0,0.0,0.0,0.0,0.0,0.0,0.0,0.0,0.0,0.0,0.0,0.0,0.0,0.0,0.0,0.0,0.0,0.0,0.0,0.0,0.0,0.0,0.0,0.0,0.0,0.0,0.0,0.0,0.0,0.0,0.0,0.0,0.0,0.0,0.0,0.0,0.0,0.0,0.0,0.0,0.0,0.0,0.0,0.0,0.0,0.0,0.0,0.0,0.0,0.0,0.0,0.0,0.0,0.0,0.0,0.0,0.0,0.0,0.0,0.0,0.0,0.0,0.0,0.0,0.0,0.0,0.0,0.0,0.0,0.0,0.0,0.0,0.0,0.0,0.0,0.0,0.0,0.0,0.0,0.0,0.0,0.0,0.0,0.0,0.0,0.0,0.0,0.0,0.0,0.0,0.0,0.0,0.0,0.0,0.0,0.0,0.0,0.0,0.0,0.0,0.0,0.0,0.0,0.0,0.0,0.0,0.0,0.0,0.0,0.0,0.0,0.0,0.0,0.0,0.0,0.0,0.0,0.0,0.0,0.0,0.0,0.0,0.0,0.0,0.0,0.0,0.0,0.0,0.0,0.0,0.0,0.0,0.0,0.0,0.0,0.0,0.0,0.0,0.0,0.0,0.0,0.0,0.0,0.0,0.0,0.0,0.0,0.0,0.0,0.0,0.0,0.0,0.0,0.0,0.0,0.0,0.0,0.0,0.0,0.0,0.0,0.0,0.0,0.0,0.0,0.0,0.0,0.0,0.0,0.0,0.0,0.0,0.0,0.0,0.0,0.0,0.0,0.0,0.0,0.0,0.0,0.0,0.0,0.0,0.0,0.0,0.0,0.0,0.0,0.0,0.0,0.0,0.0,0.0,0.0,0.0,0.0,0.0,0.0,0.0,0.0,0.0,0.0,0.0,0.0,0.0,0.0,0.0,0.0,0.0,0.0,0.0,0.0,0.0,0.0,0.0,0.0,0.0,0.0,0.0,0.0,0.0,0.0,0.0,0.0,0.0,0.0,0.0,0.0,0.0,0.0,0.0,0.0,0.0,0.0,0.0,0.0,0.0,0.0,0.0,0.0,0.0,0.0,0.0,0.0,0.0,0.0,0.0,0.0,0.0,0.0,0.0,0.0,0.0,0.0,0.0,0.0,0.0,0.0,0.0,0.0,0.0,0.0,0.0,0.0,0.0,0.0,0.0,0.0,0.0,0.0,0.0,0.0,0.0,0.0,0.0,0.0,0.0,0.0,0.0,0.0,0.0,0.0,0.0,0.0,0.0,0.0,0.0,0.0,0.0,0.0,0.0,0.0,0.0,0.0,0.0,0.0,0.0,0.0,0.0,0.0,0.0,0.0,0.0,0.0,0.0,0.0,0.0,0.0,0.0,0.0,0.0,-0.5004,0.0,0.0,0.0,0.0,0.0,0.0,0.0,0.0,0.0,0.0,0.0,0.0,0.0,0.0,0.0,0.0,0.0,0.0,0.0,0.0,0.0,0.0,0.0,0.0,0.0,0.0,0.0,0.0,0.0,0.0,0.0,0.0,0.0,0.0,0.0,0.0,0.0,0.0,0.0,0.0,0.0,0.0,0.0,0.0,0.0,0.0,0.0,0.0,0.0,0.0,0.0,0.0,0.0,0.0,0.0,0.0,0.0,0.0,0.0,0.0,0.0,0.0,0.0,0.0,0.0,0.0,0.0,0.0,0.0,0.0,0.0,0.0,0.0,0.0,0.0,0.0,0.0,0.0,0.0,0.0,0.0,0.0,0.0,0.0,0.0,0.0,0.0,0.0,0.0,0.0,0.0,0.0,0.0,0.0,0.0,0.0,0.0,0.0,0.0,0.0,0.0,0.0,0.0,0.0,0.0,0.0,0.0,0.0,0.0,0.0,-0.5356,-0.5363,-0.4808,-0.4519,-0.4512,0.0,0.0,0.0,0.0,0.0,0.0,0.0,0.0,0.0,0.0,0.0,0.0,0.0,0.0,0.0,0.0,0.0,0.0,0.0,0.0,0.0,0.0,0.0,0.0,0.0,0.0,0.0,0.0,0.0,0.0,0.0,0.0,0.0,0.0,0.0,0.0,0.0,0.0,0.0,0.0,0.0,0.0,0.0,0.0,0.0,0.0,0.0,0.0,0.0,0.0,0.0,0.0,0.0,0.0,0.0,0.0,0.0,0.0,0.0,0.0,0.0,0.0,0.0,0.0,0.0,0.0,0.0,0.0,0.0,0.0,0.0,0.0,0.0,0.0,0.0,0.0,0.0,0.0,0.0,0.0,0.0,0.0,0.0,0.0,0.0,0.0,0.0,0.0,0.0,0.0,0.0,0.0,0.0,0.0,0.0,0.0,0.0,0.0,0.0,0.0,0.0,0.0,0.0,0.0,0.0,0.0,0.0,0.0,0.0,0.0,0.0,0.0,-0.4544,-0.4306,-0.4325,0.0,0.0,0.0,0.0,0.0,0.0,0.0,0.0,0.0,0.0,0.0,0.0,0.0,0.0,0.0,0.0,0.0,0.0,0.0,0.0,0.0,0.0,0.0,0.0,0.0,0.0,0.0,0.0,0.0,0.0,0.0,0.0,0.0,0.0,0.0,0.0,0.0,0.0,0.0,0.0,0.0,0.0,0.0,0.0,0.0,0.0,0.0,0.0,0.0,0.0,0.0,0.0,0.0,0.0,0.0,0.0,0.0,0.0,0.0,0.0,0.0,0.0,0.0,0.0,0.0,0.0,0.0,0.0,0.0,0.0,0.0,0.0,0.0,0.0,0.0,0.0,0.0,0.0,0.0,0.0,0.0,0.0,0.0,0.0,0.0,0.0,0.0,0.0,0.0,0.0,0.0,0.0,0.0,0.0,0.0,0.0,0.0,0.0,0.0,0.0,0.0,0.0,0.0,0.0,0.0,0.0,0.0,0.0,0.0,0.0,-0.4443,-0.4985,-0.4934,0.0,-0.4959,0.0,0.0,0.0,0.0,0.0,0.0,0.0,0.0,0.0,0.0,0.0,0.0,0.0,0.0,0.0,0.0,0.0,0.0,0.0,0.0,0.0,0.0,0.0,0.0,0.0,0.0,0.0,0.0,0.0,0.0,0.0,0.0,0.0,0.0,0.0,0.0,0.0,0.0,0.0,0.0,0.0,0.0,0.0,0.0,0.0,0.0,0.0,0.0,0.0,0.0,0.0,0.0,0.0,0.0,0.0,0.0,0.0,0.0,0.0,0.0,0.0,0.0,0.0,0.0,0.0,0.0,0.0,0.0,0.0,0.0,0.0,0.0,0.0,0.0,0.0,0.0,0.0,0.0,0.0,0.0,0.0,0.0,0.0,0.0,0.0,0.0,0.0,0.0,0.0,0.0,0.0,0.0,0.0,0.0,0.0,0.0,0.0,0.0,0.0,0.0,0.0,0.0,0.0,0.0,0.0,0.0,0.0,0.0,0.0,0.0,0.0,-0.4462,-0.4475,-0.4632,0.0,0.0,0.0,0.0,0.0,0.0,0.0,0.0,0.0,0.0,0.0,0.0,0.0,0.0,0.0,0.0,0.0,0.0,0.0,0.0,0.0,0.0,0.0,0.0,0.0,0.0,0.0,0.0,0.0,0.0,0.0,0.0,0.0,0.0,0.0,0.0,0.0,0.0,0.0,0.0,0.0,0.0,0.0,0.0,0.0,0.0,0.0,0.0,0.0,0.0,0.0,0.0,0.0,0.0,0.0,0.0,0.0,0.0,0.0,0.0,0.0,0.0,0.0,0.0,0.0,0.0,0.0,0.0,0.0,0.0,0.0,0.0,0.0,0.0,0.0,0.0,0.0,0.0,0.0,0.0,0.0,0.0,0.0,0.0,0.0,0.0,0.0,0.0,0.0,0.0,0.0,0.0,0.0,0.0,0.0,0.0,0.0,0.0,0.0,0.0,0.0,0.0,0.0,0.0,0.0,0.0,0.0,0.0,0.0,0.0,-0.3986,0.0,-0.4338,-0.435,-0.4463,-0.4739,0.0,0.0,0.0,0.0,0.0,0.0,0.0,0.0,0.0,0.0,0.0,0.0,0.0,0.0,0.0,0.0,0.0,0.0,0.0,0.0,0.0,0.0,0.0,0.0,0.0,0.0,0.0,0.0,0.0,0.0,0.0,0.0,0.0,0.0,0.0,0.0,0.0,0.0,0.0,0.0,0.0,0.0,0.0,0.0,0.0,0.0,0.0,0.0,0.0,0.0,0.0,0.0,0.0,0.0,0.0,0.0,0.0,0.0,0.0,0.0,0.0,0.0,0.0,0.0,0.0,0.0,0.0,0.0,0.0,0.0,0.0,0.0,0.0,0.0,0.0,0.0,0.0,0.0,0.0,0.0,0.0,0.0,0.0,0.0,0.0,0.0,0.0,0.0,0.0,0.0,0.0,0.0,0.0,0.0,0.0,0.0,0.0,0.0,0.0,0.0,0.0,0.0,0.0,0.0,0.0,0.0,0.0,0.0,0.0,-0.438,-0.4381,-0.4947,-0.4947,-0.4707,0.0,0.0,0.0,0.0,0.0,0.0,0.0,0.0,0.0,0.0,0.0,0.0,0.0,0.0,0.0,0.0,0.0,0.0,0.0,0.0,0.0,0.0,0.0,0.0,0.0,0.0,0.0,0.0,0.0,0.0,0.0,0.0,0.0,0.0,0.0,0.0,0.0,0.0,0.0,0.0,0.0,0.0,0.0,0.0,0.0,0.0,0.0,0.0,0.0,0.0,0.0,0.0,0.0,0.0,0.0,0.0,0.0,0.0,0.0,0.0,0.0,0.0,0.0,0.0,0.0,0.0,0.0,0.0,0.0,0.0,0.0,0.0,0.0,0.0,0.0,0.0,0.0,0.0,0.0,0.0,0.0,0.0,0.0,0.0,0.0,0.0,0.0,0.0,0.0,0.0,0.0,0.0,0.0,0.0,0.0,0.0,0.0,0.0,0.0,0.0,0.0,0.0,0.0,0.0,0.0,0.0,0.0,0.0,0.0,-0.3893,-0.4047,-0.4551,-0.5424,-0.472,-0.443,0.0,0.0,0.0,0.0,0.0,0.0,0.0,0.0,0.0,0.0,0.0,0.0,0.0,0.0,0.0,0.0,0.0,0.0,0.0,0.0,0.0,0.0,0.0,0.0,0.0,0.0,0.0,0.0,0.0,0.0,0.0,0.0,0.0,0.0,0.0,0.0,0.0,0.0,0.0,0.0,0.0,0.0,0.0,0.0,0.0,0.0,0.0,0.0,0.0,0.0,0.0,0.0,0.0,0.0,0.0,0.0,0.0,0.0,0.0,0.0,0.0,0.0,0.0,0.0,0.0,0.0,0.0,0.0,0.0,0.0,0.0,0.0,0.0,0.0,0.0,0.0,0.0,0.0,0.0,0.0,0.0,0.0,0.0,0.0,0.0,0.0,0.0,0.0,0.0,0.0,0.0,0.0,0.0,0.0,0.0,0.0,0.0,0.0,0.0,0.0,0.0,0.0,0.0,0.0,0.0,0.0,0.0,0.0,0.0,-0.3723,0.0,-0.4758,0.0,-0.4575,-0.4221,0.0,0.0,0.0,0.0,0.0,0.0,0.0,0.0,0.0,0.0,0.0,0.0,0.0,0.0,0.0,0.0,0.0,0.0,0.0,0.0,0.0,0.0,0.0,0.0,0.0,0.0,0.0,0.0,0.0,0.0,0.0,0.0,0.0,0.0,0.0,0.0,0.0,0.0,0.0,0.0,0.0,0.0,0.0,0.0,0.0,0.0,0.0,0.0,0.0,0.0,0.0,0.0,0.0,0.0,0.0,0.0,0.0,0.0,0.0,0.0,0.0,0.0,0.0,0.0,0.0,0.0,0.0,0.0,0.0,0.0,0.0,0.0,0.0,0.0,0.0,0.0,0.0,0.0,0.0,0.0,0.0,0.0,0.0,0.0,0.0,0.0,0.0,0.0,0.0,0.0,0.0,0.0,0.0,0.0,0.0,0.0,0.0,0.0,0.0,0.0,0.0,0.0,0.0,0.0,0.0,0.0,0.0,0.0,-0.3714,-0.4538,-0.4875,-0.4919,-0.4637,-0.4566,-0.4125,0.0,0.0,0.0,0.0,0.0,0.0,0.0,0.0,0.0,0.0,0.0,0.0,0.0,0.0,0.0,0.0,0.0,0.0,0.0,0.0,0.0,0.0,0.0,0.0,0.0,0.0,0.0,0.0,0.0,0.0,0.0,0.0,0.0,0.0,0.0,0.0,0.0,0.0,0.0,0.0,0.0,0.0,0.0,0.0,0.0,0.0,0.0,0.0,0.0,0.0,0.0,0.0,0.0,0.0,0.0,0.0,0.0,0.0,0.0,0.0,0.0,0.0,0.0,0.0,0.0,0.0,0.0,0.0,0.0,0.0,0.0,0.0,0.0,0.0,0.0,0.0,0.0,0.0,0.0,0.0,0.0,0.0,0.0,0.0,0.0,0.0,0.0,0.0,0.0,0.0,0.0,0.0,0.0,0.0,0.0,0.0,0.0,0.0,0.0,0.0,0.0,0.0,0.0,0.0,0.0,0.0,0.0,0.0,0.0,-0.4243,-0.4396,-0.4704,-0.5104,-0.4348,-0.3933,0.0,0.0,0.0,0.0,0.0,0.0,0.0,0.0,0.0,0.0,0.0,0.0,0.0,0.0,0.0,0.0,0.0,0.0,0.0,0.0,0.0,0.0,0.0,0.0,0.0,0.0,0.0,0.0,0.0,0.0,0.0,0.0,0.0,0.0,0.0,0.0,0.0,0.0,0.0,0.0,0.0,0.0,0.0,0.0,0.0,0.0,0.0,0.0,0.0,0.0,0.0,0.0,0.0,0.0,0.0,0.0,0.0,0.0,0.0,0.0,0.0,0.0,0.0,0.0,0.0,0.0,0.0,0.0,0.0,0.0,0.0,0.0,0.0,0.0,0.0,0.0,0.0,0.0,0.0,0.0,0.0,0.0,0.0,0.0,0.0,0.0,0.0,0.0,0.0,0.0,0.0,0.0,0.0,0.0,0.0,0.0,0.0,0.0,0.0,0.0,0.0,0.0,0.0,0.0,0.0,0.0,0.0,0.0,0.0,-0.4715,-0.4615,-0.4728,-0.5121,-0.4402,-0.4118,-0.4386,0.0,0.0,0.0,0.0,0.0,0.0,0.0,0.0,0.0,0.0,0.0,0.0,0.0,0.0,0.0,0.0,0.0,0.0,0.0,0.0,0.0,0.0,0.0,0.0,0.0,0.0,0.0,0.0,0.0,0.0,0.0,0.0,0.0,0.0,0.0,0.0,0.0,0.0,0.0,0.0,0.0,0.0,0.0,0.0,0.0,0.0,0.0,0.0,0.0,0.0,0.0,0.0,0.0,0.0,0.0,0.0,0.0,0.0,0.0,0.0,0.0,0.0,0.0,0.0,0.0,0.0,0.0,0.0,0.0,0.0,0.0,0.0,0.0,0.0,0.0,0.0,0.0,0.0,0.0,0.0,0.0,0.0,0.0,0.0,0.0,0.0,0.0,0.0,0.0,0.0,0.0,0.0,0.0,0.0,0.0,0.0,0.0,0.0,0.0,0.0,0.0,0.0,0.0,0.0,0.0,0.0,0.0,0.0,-0.5751,-0.534,-0.4996,-0.4737,-0.4705,-0.4607,0.0,0.0,0.0,0.0,0.0,0.0,0.0,0.0,0.0,0.0,0.0,0.0,0.0,0.0,0.0,0.0,0.0,0.0,0.0,0.0,0.0,0.0,0.0,0.0,0.0,0.0,0.0,0.0,0.0,0.0,0.0,0.0,0.0,0.0,0.0,0.0,0.0,0.0,0.0,0.0,0.0,0.0,0.0,0.0,0.0,0.0,0.0,0.0,0.0,0.0,0.0,0.0,0.0,0.0,0.0,0.0,0.0,0.0,0.0,0.0,0.0,0.0,0.0,0.0,0.0,0.0,0.0,0.0,0.0,0.0,0.0,0.0,0.0,0.0,0.0,0.0,0.0,0.0,0.0,0.0,0.0,0.0,0.0,0.0,0.0,0.0,0.0,0.0,0.0,0.0,0.0,0.0,0.0,0.0,0.0,0.0,0.0,0.0,0.0,0.0,0.0,0.0,0.0,0.0,0.0,0.0,0.0,0.0,0.0,-0.5282,-0.5361,-0.53,-0.5073,-0.4833,-0.4484,0.0,0.0,0.0,0.0,0.0,0.0,0.0,0.0,0.0,0.0,0.0,0.0,0.0,0.0,0.0,0.0,0.0,0.0,0.0,0.0,0.0,0.0,0.0,0.0,0.0,0.0,0.0,0.0,0.0,0.0,0.0,0.0,0.0,0.0,0.0,0.0,0.0,0.0,0.0,0.0,0.0,0.0,0.0,0.0,0.0,0.0,0.0,0.0,0.0,0.0,0.0,0.0,0.0,0.0,0.0,0.0,0.0,0.0,0.0,0.0,0.0,0.0,0.0,0.0,0.0,0.0,0.0,0.0,0.0,0.0,0.0,0.0,0.0,0.0,0.0,0.0,0.0,0.0,0.0,0.0,0.0,0.0,0.0,0.0,0.0,0.0,0.0,0.0,0.0,0.0,0.0,0.0,0.0,0.0,0.0,0.0,0.0,0.0,0.0,0.0,0.0,0.0,0.0,0.0,0.0,0.0,0.0,0.0,-0.5647,-0.5427,-0.5475,-0.5372,-0.5067,-0.4942,-0.4768,0.0,0.0,0.0,0.0,0.0,0.0,0.0,0.0,0.0,0.0,0.0,0.0,0.0,0.0,0.0,0.0,0.0,0.0,0.0,0.0,0.0,0.0,0.0,0.0,0.0,0.0,0.0,0.0,0.0,0.0,0.0,0.0,0.0,0.0,0.0,0.0,0.0,0.0,0.0,0.0,0.0,0.0,0.0,0.0,0.0,0.0,0.0,0.0,0.0,0.0,0.0,0.0,0.0,0.0,0.0,0.0,0.0,0.0,0.0,0.0,0.0,0.0,0.0,0.0,0.0,0.0,0.0,0.0,0.0,0.0,0.0,0.0,0.0,0.0,0.0,0.0,0.0,0.0,0.0,0.0,0.0,0.0,0.0,0.0,0.0,0.0,0.0,0.0,0.0,0.0,0.0,0.0,0.0,0.0,0.0,0.0,0.0,0.0,0.0,0.0,0.0,0.0,0.0,0.0,0.0,0.0,0.0,0.0,-0.6046,-0.5772,-0.5593,-0.5313,-0.495,-0.5033,-0.5194,0.0,0.0,0.0,0.0,0.0,0.0,0.0,0.0,0.0,0.0,0.0,0.0,0.0,0.0,0.0,0.0,0.0,0.0,0.0,0.0,0.0,0.0,0.0,0.0,0.0,0.0,0.0,0.0,0.0,0.0,0.0,0.0,0.0,0.0,0.0,0.0,0.0,0.0,0.0,0.0,0.0,0.0,0.0,0.0,0.0,0.0,0.0,0.0,0.0,0.0,0.0,0.0,0.0,0.0,0.0,0.0,0.0,0.0,0.0,0.0,0.0,0.0,0.0,0.0,0.0,0.0,0.0,0.0,0.0,0.0,0.0,0.0,0.0,0.0,0.0,0.0,0.0,0.0,0.0,0.0,0.0,0.0,0.0,0.0,0.0,0.0,0.0,0.0,0.0,0.0,0.0,0.0,0.0,0.0,0.0,0.0,0.0,0.0,0.0,0.0,0.0,0.0,0.0,0.0,0.0,0.0,0.0,0.0,-0.5638,-0.4966,-0.53,-0.5346,-0.5065,-0.5078,-0.4994,0.0,0.0,0.0,0.0,0.0,0.0,0.0,0.0,0.0,0.0,0.0,0.0,0.0,0.0,0.0,0.0,0.0,0.0,0.0,0.0,0.0,0.0,0.0,0.0,0.0,0.0,0.0,0.0,0.0,0.0,0.0,0.0,0.0,0.0,0.0,0.0,0.0,0.0,0.0,0.0,0.0,0.0,0.0,0.0,0.0,0.0,0.0,0.0,-0.483,0.0,0.0,0.0,0.0,0.0,0.0,0.0,0.0,0.0,0.0,0.0,0.0,0.0,0.0,0.0,0.0,0.0,0.0,0.0,0.0,0.0,0.0,0.0,0.0,0.0,0.0,0.0,0.0,0.0,0.0,0.0,0.0,0.0,0.0,0.0,0.0,0.0,0.0,0.0,0.0,0.0,0.0,0.0,0.0,0.0,0.0,0.0,0.0,0.0,0.0,0.0,0.0,0.0,0.0,0.0,0.0,0.0,0.0,0.0,-0.5455,-0.491,-0.5147,-0.5248,-0.5112,-0.5093,-0.5005,0.0,0.0,0.0,0.0,0.0,0.0,0.0,0.0,0.0,0.0,0.0,0.0,0.0,0.0,0.0,0.0,0.0,0.0,0.0,0.0,0.0,0.0,0.0,0.0,0.0,0.0,0.0,0.0,0.0,0.0,0.0,0.0,0.0,0.0,0.0,0.0,0.0,0.0,0.0,0.0,0.0,0.0,0.0,0.0,0.0,0.0,0.0,0.0,0.0,0.0,0.0,0.0,0.0,0.0,0.0,0.0,0.0,0.0,0.0,0.0,0.0,0.0,0.0,0.0,0.0,0.0,0.0,0.0,0.0,0.0,0.0,0.0,0.0,0.0,0.0,0.0,0.0,0.0,0.0,0.0,0.0,0.0,0.0,0.0,0.0,0.0,0.0,0.0,0.0,0.0,0.0,0.0,0.0,0.0,0.0,0.0,0.0,0.0,0.0,0.0,0.0,0.0,0.0,0.0,0.0,0.0,0.0,-0.5403,-0.5373,-0.5112,-0.5093,-0.5093,-0.5093,-0.5093,-0.5127,-0.5156,0.0,0.0,0.0,0.0,0.0,0.0,0.0,0.0,0.0,0.0,0.0,0.0,0.0,0.0,0.0,0.0,0.0,0.0,0.0,0.0,0.0,0.0,0.0,0.0,0.0,0.0,0.0,0.0,0.0,0.0,0.0,0.0,0.0,0.0,0.0,0.0,0.0,0.0,-0.484,-0.5606,0.0,0.0,0.0,0.0,0.0,0.0,0.0,0.0,-0.5438,0.0,0.0,0.0,0.0,0.0,0.0,0.0,0.0,0.0,0.0,0.0,0.0,0.0,0.0,0.0,0.0,0.0,0.0,0.0,0.0,0.0,0.0,0.0,0.0,0.0,0.0,0.0,0.0,0.0,0.0,0.0,0.0,0.0,0.0,0.0,0.0,0.0,0.0,0.0,0.0,0.0,0.0,0.0,0.0,0.0,0.0,0.0,0.0,0.0,0.0,0.0,0.0,0.0,0.0,0.0,0.0,-0.5769,-0.5585,-0.5368,-0.5112,-0.5093,-0.5093,-0.5093,-0.5093,-0.5214,-0.5375,0.0,0.0,0.0,0.0,0.0,0.0,0.0,0.0,0.0,0.0,0.0,0.0,0.0,0.0,0.0,0.0,0.0,0.0,0.0,0.0,0.0,0.0,0.0,0.0,0.0,0.0,0.0,0.0,0.0,0.0,0.0,0.0,0.0,0.0,0.0,0.0,0.0,0.0,0.0,-0.6797,-0.75,0.0,0.0,0.0,0.0,0.0,0.0,0.0,0.0,-0.4872,0.0,0.0,0.0,0.0,0.0,0.0,0.0,0.0,0.0,0.0,0.0,0.0,0.0,0.0,0.0,0.0,0.0,0.0,0.0,0.0,0.0,0.0,0.0,0.0,0.0,0.0,0.0,0.0,0.0,0.0,0.0,0.0,0.0,0.0,0.0,0.0,0.0,0.0,0.0,0.0,0.0,0.0,0.0,0.0,0.0,0.0,0.0,0.0,0.0,0.0,0.0,0.0,0.0,0.0,0.0,-0.5831,-0.5491,-0.5233,-0.5112,-0.5093,-0.5093,-0.5093,-0.5093,-0.5214,0.0,0.0,0.0,0.0,0.0,0.0,0.0,0.0,0.0,0.0,0.0,0.0,0.0,0.0,0.0,0.0,0.0,0.0,0.0,0.0,0.0,0.0,0.0,0.0,0.0,0.0,0.0,0.0,0.0,0.0,0.0,0.0,0.0,0.0,0.0,0.0,0.0,0.0,0.0,0.0,-0.6738,-0.7356,-0.7002,0.0,0.0,0.0,0.0,0.0,0.0,-0.5921,-0.5525,0.0,0.0,0.0,0.0,0.0,0.0,0.0,0.0,0.0,0.0,0.0,0.0,0.0,0.0,0.0,0.0,0.0,0.0,0.0,0.0,0.0,0.0,0.0,0.0,0.0,0.0,0.0,0.0,0.0,0.0,0.0,0.0,0.0,0.0,0.0,0.0,0.0,0.0,0.0,0.0,0.0,0.0,0.0,0.0,0.0,0.0,0.0,0.0,0.0,0.0,0.0,0.0,0.0,0.0,0.0,-0.5848,-0.541,-0.5156,-0.5088,-0.5093,-0.5093,-0.5093,-0.5093,-0.5228,0.0,0.0,0.0,0.0,0.0,0.0,0.0,0.0,0.0,0.0,0.0,0.0,0.0,0.0,0.0,0.0,0.0,0.0,0.0,0.0,0.0,0.0,0.0,0.0,0.0,0.0,0.0,0.0,0.0,0.0,0.0,0.0,0.0,0.0,0.0,0.0,0.0,0.0,0.0,0.0,0.0,-0.7058,-0.6925,-0.7071,0.0,0.0,0.0,0.0,-0.7161,-0.6688,0.0,0.0,0.0,0.0,0.0,0.0,0.0,0.0,0.0,0.0,0.0,0.0,0.0,0.0,0.0,0.0,0.0,0.0,0.0,0.0,0.0,0.0,0.0,0.0,0.0,0.0,0.0,0.0,0.0,0.0,0.0,0.0,0.0,0.0,0.0,0.0,0.0,0.0,0.0,0.0,0.0,0.0,0.0,0.0,0.0,0.0,0.0,0.0,0.0,0.0,0.0,0.0,0.0,0.0,0.0,0.0,-0.5848,-0.559,-0.5354,-0.5112,-0.5093,-0.5093,-0.5093,-0.5093,-0.5233,0.0,0.0,0.0,0.0,0.0,0.0,0.0,0.0,0.0,0.0,0.0,0.0,0.0,0.0,0.0,0.0,0.0,0.0,0.0,0.0,0.0,0.0,0.0,0.0,0.0,0.0,0.0,0.0,0.0,0.0,0.0,0.0,0.0,0.0,0.0,0.0,0.0,0.0,0.0,0.0,0.0,-0.7571,-0.6987,-0.7513,-0.804,0.0,0.0,0.0,-0.7199,-0.7114,0.0,0.0,0.0,0.0,0.0,0.0,0.0,0.0,0.0,0.0,0.0,0.0,0.0,0.0,0.0,0.0,0.0,0.0,0.0,0.0,0.0,0.0,0.0,0.0,0.0,0.0,0.0,0.0,0.0,0.0,0.0,0.0,0.0,0.0,0.0,0.0,0.0,0.0,0.0,0.0,0.0,0.0,0.0,0.0,0.0,0.0,0.0,0.0,0.0,0.0,0.0,0.0,0.0,0.0,0.0,-0.4722,-0.5633,-0.5425,-0.5214,-0.5093,-0.5093,-0.5093,-0.5093,-0.5093,-0.5171,0.0,0.0,0.0,0.0,0.0,0.0,0.0,0.0,0.0,0.0,0.0,0.0,0.0,0.0,0.0,0.0,0.0,0.0,0.0,0.0,0.0,0.0,0.0,0.0,0.0,0.0,0.0,0.0,0.0,0.0,0.0,0.0,0.0,0.0,0.0,0.0,0.0,0.0,0.0,0.0,0.0,0.0,-0.726,-0.7742,0.0,0.0,0.0,-0.8055,-0.8455,0.0,0.0,0.0,0.0,0.0,0.0,0.0,0.0,0.0,0.0,0.0,0.0,0.0,0.0,0.0,0.0,0.0,0.0,0.0,0.0,0.0,0.0,0.0,0.0,0.0,0.0,0.0,0.0,0.0,0.0,0.0,0.0,0.0,0.0,0.0,0.0,0.0,0.0,0.0,0.0,0.0,0.0,0.0,0.0,0.0,0.0,0.0,0.0,0.0,0.0,0.0,0.0,0.0,0.0,0.0,0.0,0.0,-0.5561,-0.5262,-0.5093,-0.5093,-0.5093,-0.5093,-0.5093,-0.501,0.0,0.0,0.0,0.0,0.0,0.0,0.0,0.0,0.0,0.0,0.0,0.0,0.0,0.0,0.0,0.0,0.0,0.0,0.0,0.0,0.0,0.0,0.0,0.0,0.0,0.0,0.0,-0.0497,0.0,0.0,0.0,0.0,0.0,0.0,0.0,0.0,0.0,0.0,0.0,0.0,0.0,0.0,-0.7855,-0.7545,-0.8022,-0.8276,0.0,0.0,-0.8807,-0.9115,-0.8417,-0.8178,0.0,0.0,0.0,0.0,0.0,0.0,0.0,0.0,0.0,0.0,0.0,0.0,0.0,0.0,0.0,0.0,0.0,0.0,0.0,0.0,0.0,0.0,0.0,0.0,0.0,0.0,0.0,0.0,0.0,0.0,0.0,0.0,0.0,0.0,0.0,0.0,0.0,0.0,0.0,0.0,0.0,0.0,0.0,0.0,0.0,0.0,0.0,0.0,0.0,0.0,0.0,0.0,0.0,0.0,0.0,-0.5817,-0.5372,-0.5093,-0.5093,-0.5093,-0.5093,-0.5108,-0.4751,-0.4718,0.0,0.0,0.0,0.0,0.0,0.0,0.0,0.0,0.0,0.0,0.0,0.0,0.0,0.0,0.0,0.0,0.0,0.0,0.0,0.0,0.0,0.0,0.0,0.0,0.0,0.0,0.0,0.0,0.0,0.0,0.0,0.0,0.0,0.0,0.0,0.0,0.0,0.0,0.0,0.0,0.0,-0.7876,-0.7782,-0.8508,-0.8787,0.0,0.0,-0.9002,-0.8294,-0.8857,-0.9138,-0.8517,0.0,0.0,0.0,0.0,0.0,0.0,0.0,0.0,0.0,0.0,0.0,0.0,0.0,0.0,0.0,0.0,0.0,0.0,0.0,0.0,0.0,0.0,0.0,0.0,0.0,0.0,0.0,0.0,0.0,0.0,0.0,0.0,0.0,0.0,0.0,0.0,0.0,0.0,0.0,0.0,0.0,0.0,0.0,0.0,0.0,0.0,0.0,0.0,0.0,0.0,0.0,0.0,0.0,-0.4427,-0.5399,-0.5209,-0.5093,-0.5093,-0.5093,-0.5093,-0.5093,-0.4933,-0.4923,0.0,0.0,0.0,0.0,0.0,0.0,0.0,0.0,0.0,0.0,0.0,0.0,0.0,0.0,0.0,0.0,0.0,0.0,0.0,0.0,0.0,0.0,0.0,0.0,0.0,0.0,0.0,0.0,-0.3212,-0.3515,-0.4192,0.0,0.0,0.0,0.0,0.0,0.0,0.0,0.0,0.0,0.0,-0.85,-0.8495,-0.8842,0.0,0.0,-0.8984,-0.9168,-0.8766,-0.8744,-0.8824,-0.8995,-0.8481,0.0,0.0,0.0,0.0,0.0,0.0,0.0,0.0,0.0,0.0,0.0,0.0,0.0,0.0,0.0,0.0,0.0,0.0,0.0,0.0,0.0,0.0,0.0,0.0,0.0,0.0,0.0,0.0,0.0,0.0,0.0,0.0,0.0,0.0,0.0,0.0,0.0,0.0,0.0,0.0,0.0,0.0,0.0,0.0,0.0,0.0,0.0,0.0,0.0,0.0,0.0,0.0,-0.4336,-0.5204,-0.5151,-0.5093,-0.5093,-0.5093,-0.5093,-0.5093,-0.4972,-0.4923,0.0,0.0,0.0,0.0,0.0,0.0,0.0,0.0,0.0,0.0,0.0,0.0,0.0,0.0,0.0,0.0,0.0,0.0,0.0,0.0,0.0,0.0,0.0,0.0,0.0,0.0,0.0,0.0,-0.3905,-0.4011,-0.4263,0.0,0.0,0.0,0.0,0.0,0.0,0.0,0.0,0.0,0.0,-0.8911,-0.8911,-0.8981,-0.9003,-0.8911,-0.9055,-0.9158,-0.9047,-0.875,-0.8725,-0.9287,0.0,0.0,0.0,0.0,0.0,0.0,0.0,0.0,0.0,0.0,0.0,0.0,0.0,0.0,0.0,0.0,0.0,0.0,0.0,0.0,0.0,0.0,0.0,0.0,0.0,0.0,0.0,0.0,0.0,0.0,0.0,0.0,0.0,0.0,0.0,0.0,0.0,0.0,0.0,0.0,0.0,0.0,0.0,0.0,0.0,0.0,0.0,0.0,0.0,0.0,0.0,0.0,0.0,0.0,-0.5472,-0.5233,-0.5093,-0.5093,-0.5093,-0.5093,-0.5083,-0.4718,-0.4526,-0.449,0.0,0.0,0.0,0.0,0.0,0.0,0.0,0.0,0.0,0.0,0.0,0.0,0.0,0.0,0.0,0.0,0.0,0.0,0.0,0.0,0.0,0.0,0.0,0.0,0.0,0.0,-0.3905,-0.3905,-0.4004,0.0,0.0,0.0,0.0,0.0,0.0,0.0,0.0,0.0,0.0,-0.8434,-0.8911,-0.8911,-0.8919,-0.8936,-0.8911,-0.8922,-0.8922,-0.8913,-0.8998,-0.9081,0.0,0.0,0.0,0.0,0.0,0.0,0.0,0.0,0.0,0.0,0.0,0.0,0.0,0.0,0.0,0.0,0.0,0.0,0.0,0.0,0.0,0.0,0.0,0.0,0.0,0.0,0.0,-0.455,-0.4302,0.0,0.0,0.0,0.0,0.0,0.0,0.0,0.0,0.0,0.0,0.0,-0.5977,-0.5954,0.0,0.0,0.0,0.0,0.0,0.0,0.0,0.0,0.0,0.0,0.0,0.0,-0.461,-0.5179,-0.5151,-0.5093,-0.5093,-0.5093,-0.5093,-0.5093,-0.4976,-0.4636,-0.4117,0.0,0.0,0.0,0.0,0.0,0.0,0.0,0.0,0.0,0.0,0.0,0.0,0.0,0.0,0.0,0.0,0.0,0.0,0.0,0.0,0.0,0.0,0.0,0.0,0.0,-0.3905,0.0,0.0,0.0,0.0,0.0,0.0,0.0,0.0,0.0,0.0,0.0,-0.7205,-0.8266,-0.8618,-0.8806,-0.888,-0.9323,-0.9455,0.0,0.0,0.0,0.0,0.0,0.0,0.0,0.0,0.0,0.0,0.0,0.0,0.0,0.0,-0.9215,-0.7636,-0.7388,-0.7452,-0.7484,0.0,0.0,0.0,0.0,0.0,0.0,0.0,0.0,0.0,0.0,0.0,0.0,0.0,0.0,0.0,0.0,-0.4742,0.0,0.0,0.0,0.0,0.0,0.0,0.0,0.0,-0.604,-0.6304,-0.6411,-0.6411,-0.6411,0.0,-0.6289,-0.5891,0.0,0.0,0.0,0.0,0.0,0.0,0.0,0.0,-0.4767,-0.5322,-0.5336,-0.5331,-0.5331,-0.5331,-0.5258,-0.5112,-0.4966,-0.4641,-0.4122,-0.4103,-0.3828,0.0,0.0,0.0,0.0,0.0,0.0,0.0,0.0,0.0,0.0,0.0,0.0,0.0,0.0,0.0,0.0,0.0,0.0,0.0,0.0,0.0,0.0,0.0,-0.3905,0.0,0.0,0.0,0.0,0.0,0.0,0.0,0.0,0.0,-0.6666,-0.6903,-0.7506,-0.8774,-0.88,-0.8911,-0.9488,0.0,0.0,0.0,0.0,0.0,0.0,0.0,-0.9906,-0.9815,-1.0349,-1.0815,-1.0893,-1.1481,-1.1775,-1.1313,0.0,0.0,-0.8525,-0.8203,-0.8249,-0.8286,-0.8547,-0.8959,-0.9603,-0.996,-1.0329,0.0,0.0,0.0,0.0,0.0,0.0,0.0,0.0,-0.5253,-0.5233,0.0,-0.5225,0.0,0.0,0.0,0.0,0.0,0.0,0.0,0.0,-0.6844,-0.6865,-0.6479,-0.6475,-0.646,-0.6479,-0.689,-0.6846,-0.6372,-0.5176,0.0,0.0,0.0,0.0,0.0,0.0,-0.4971,-0.5793,-0.5818,-0.5823,-0.5823,-0.5798,-0.5571,-0.5122,-0.4723,-0.4531,-0.4506,-0.4488,-0.4107,-0.3306,-0.4337,0.0,0.0,0.0,0.0,0.0,0.0,0.0,0.0,0.0,0.0,0.0,0.0,0.0,0.0,0.0,0.0,0.0,0.0,0.0,0.0,-0.3928,0.0,0.0,0.0,0.0,0.0,0.0,0.0,0.0,0.0,0.0,-0.7261,-0.7926,-0.8624,-0.93,0.0,0.0,0.0,0.0,-1.0343,-1.0978,-1.1127,-1.1121,-1.1079,-1.1093,-1.1084,-1.1084,0.0,0.0,-1.1351,-1.1552,-1.1771,-1.1828,-1.1996,-1.1645,-1.0083,-0.9821,-0.9875,-0.9891,-1.0496,-1.1109,-1.1335,-1.1759,-1.2372,-0.5807,0.0,0.0,0.0,0.0,-0.5847,-0.5887,-0.61,-0.5823,-0.569,-0.5694,-0.5686,0.0,0.0,0.0,0.0,0.0,0.0,-0.6137,-0.649,-0.6898,-0.7183,-0.7316,-0.7321,-0.7316,-0.7321,-0.7183,-0.7031,-0.6849,-0.6201,-0.5649,-0.5274,0.0,0.0,0.0,0.0,-0.5981,-0.6216,-0.6226,-0.623,-0.6226,-0.596,-0.5571,-0.5103,-0.4972,-0.4796,-0.4517,-0.4482,-0.439,-0.4141,-0.3613,0.0,0.0,0.0,0.0,0.0,0.0,0.0,0.0,0.0,0.0,0.0,0.0,0.0,0.0,0.0,0.0,0.0,0.0,0.0,-0.4563,-0.4601,-0.4794,0.0,0.0,0.0,0.0,0.0,0.0,0.0,0.0,0.0,-0.8286,-0.8202,-0.8405,0.0,0.0,-1.0235,-1.0926,-1.1374,-1.1519,-1.1147,0.0,0.0,0.0,-1.1192,-1.1211,-1.1118,-1.1664,-1.2287,-1.2851,-1.3236,-1.3286,-1.2761,-1.2808,-1.2628,-1.1673,-1.1434,-1.145,-1.1519,-1.1728,-1.1915,-1.2013,-1.229,-1.2513,-0.6118,-0.6065,-0.618,-0.6213,-0.6136,-0.5878,-0.5879,-0.6021,-0.577,-0.565,-0.565,-0.5653,-0.5493,-0.5189,-0.5366,0.0,0.0,0.0,-0.6562,-0.6976,-0.7228,-0.7391,-0.7491,-0.7637,-0.7598,-0.7462,-0.7381,-0.7316,-0.7321,-0.7039,-0.6719,-0.6318,0.0,0.0,-0.6058,-0.6271,-0.6498,-0.666,-0.6686,-0.6656,-0.667,-0.6255,-0.5825,-0.5385,-0.5365,-0.5161,-0.4757,-0.4749,-0.4669,-0.45,-0.3931,-0.3731,0.0,0.0,0.0,0.0,0.0,0.0,0.0,0.0,0.0,0.0,0.0,-0.3156,-0.4304,0.0,0.0,0.0,-0.4022,-0.4519,-0.5213,-0.5284,0.0,0.0,0.0,0.0,0.0,0.0,0.0,-0.7579,-0.7696,-0.8094,-0.9136,-0.9158,-0.9279,-0.9951,-1.0206,-1.0647,-1.1458,0.0,-1.1991,-1.2003,-1.2328,-1.2455,-1.2085,-1.2091,-1.2103,-1.2022,-1.2472,-1.2976,-1.343,-1.3827,-1.3913,-1.3531,-1.3581,-1.3618,-1.315,-1.3058,-1.2812,-1.2308,-1.2438,-1.2576,-1.2361,-1.2601,-1.2823,-0.6596,-0.6554,-0.6497,-0.6273,-0.5929,-0.5933,-0.5691,-0.5312,-0.5309,-0.5312,-0.5312,-0.5312,-0.5273,-0.5215,-0.5589,0.0,0.0,-0.6826,-0.7172,-0.7569,-0.7608,-0.7437,-0.7123,-0.75,-0.7505,-0.7182,-0.7505,-0.7695,-0.7691,-0.7686,-0.7525,-0.7202,-0.6738,-0.6499,-0.646,-0.6475,-0.671,-0.7139,-0.7152,-0.7132,-0.7095,-0.668,-0.6235,-0.5818,-0.5808,-0.5566,-0.5127,-0.5093,-0.4932,-0.459,-0.4869,-0.4337,-0.2837,0.0,0.0,0.0,0.0,0.0,0.0,0.0,0.0,0.0,0.0,0.0,0.0,0.0,0.0,0.0,-0.4395,0.0,-0.5716,-0.5863,0.0,0.0,0.0,-0.6312,-0.7016,-0.7079,-0.7552,-0.8822,0.0,0.0,0.0,0.0,-1.082,-1.0872,-1.0537,-1.0759,-1.2148,-1.1947,-1.2031,-1.3092,-1.3148,-1.3096,-1.3219,-1.3286,-1.3269,-1.3252,-1.3371,-1.3294,-1.3362,-1.3433,-1.3668,-1.3696,-1.4051,-1.4222,-1.4268,-1.4075,-1.3857,-1.2352,-1.2738,-1.3083,-1.248,-1.2813,-1.309,-0.63,-0.628,-0.6281,-0.6191,-0.612,-0.6116,-0.5828,-0.5319,-0.5312,-0.5312,-0.5312,-0.5312,-0.5269,-0.5287,-0.5367,-0.5492,-0.5595,-0.6008,-0.6229,-0.6374,-0.6974,-0.7182,-0.7114,-0.7534,-0.7632,-0.7573,-0.7661,-0.7695,-0.7695,-0.7695,-0.7847,-0.8072,-0.7632,-0.7219,-0.6958,-0.7224,-0.7445,-0.7549,-0.7549,-0.7425,-0.7114,-0.6992,-0.6592,-0.5828,-0.5808,-0.5571,-0.5108,-0.5093,-0.5059,-0.4956,-0.4646,-0.4228,-0.3633,-0.3548,0.0,0.0,0.0,0.0,0.0,0.0,0.0,0.0,0.0,-0.461,-0.4201,0.0,-0.4805,0.0,-0.5057,-0.5497,-0.5493,-0.5932,0.0,0.0,-0.7162,-0.7577,-0.8543,-0.8523,-0.8747,-0.9563,-0.9673,-0.989,-1.0499,-1.0708,-1.1012,-1.1476,-1.1642,-1.198,-1.2649,-1.271,-1.2716,-1.299,-1.3188,-1.332,-1.3371,-1.3396,-1.3396,-1.3396,-1.294,-1.2761,-1.3303,-1.2609,-1.2192,-1.2798,-1.2702,-1.2606,-1.268,-1.2673,-1.26,-1.2242,-1.2747,-1.307,-1.2327,-1.2399,-1.2531,-0.6543,-0.6543,-0.6582,-0.6508,-0.6377,-0.625,-0.6008,-0.5705,-0.5705,-0.5705,-0.5702,-0.5709,-0.5705,-0.5736,-0.5902,-0.5966,-0.5992,-0.6231,-0.6347,-0.6367,-0.6868,-0.6999,-0.6846,-0.7426,-0.7603,-0.7426,-0.7608,-0.7695,-0.7695,-0.7695,-0.7822,-0.8081,-0.7822,-0.7584,-0.7369,-0.7584,-0.7695,-0.7695,-0.7695,-0.7584,-0.736,-0.7383,-0.6932,-0.6094,-0.606,-0.5767,-0.5117,-0.5093,-0.5093,-0.5093,-0.4824,-0.4432,-0.3926,-0.3838,-0.3821,0.0,0.0,0.0,0.0,0.0,0.0,0.0,0.0,0.0,0.0,0.0,-0.5164,0.0,0.0,0.0,-0.6307,-0.6927,-0.7504,-0.8074,-0.8418,-0.8864,-0.9449,-0.9426,-0.9588,-1.0218,-1.0314,-1.0529,-1.1141,-1.1259,-1.1378,-1.1752,-1.1933,-1.2115,-1.236,-1.2538,-1.2711,-1.2867,-1.3078,-1.3269,-1.3379,-1.3396,-1.3396,-1.3345,-1.277,-1.2449,-1.282,-1.2089,-1.1559,-1.2003,-1.1946,-1.1866,-1.1988,-1.2008,-1.1927,-1.17,-1.1911,-1.2021,-1.1654,-1.1635,-1.1602,-0.6975,-0.6975,-0.6975,-0.6877,-0.6627,-0.6414,-0.6266,-0.6196,-0.6196,-0.6196,-0.6196,-0.6196,-0.6196,-0.6226,-0.6546,-0.6724,-0.6742,-0.6762,-0.68,-0.6766,-0.6908,-0.6794,-0.6458,-0.7184,-0.7358,-0.7051,-0.7383,-0.7573,-0.7632,-0.7637,-0.7695,-0.7778,-0.7729,-0.7729,-0.7773,-0.7729,-0.7695,-0.7695,-0.7695,-0.7695,-0.7695,-0.7695,-0.7311,-0.6548,-0.6411,-0.6012,-0.5229,-0.5142,-0.5093,-0.5088,-0.5039,-0.4727,-0.4097,-0.422,-0.4546,0.0,-0.4685,0.0,0.0,0.0,0.0,0.0,0.0,0.0,0.0,-0.491,-0.5594,-0.628,-0.5429,-0.5581,-0.74,-0.8125,-0.862,-0.9024,-0.9508,-0.9896,-1.0105,-1.0083,-1.0251,-1.0864,-1.0923,-1.1156,-1.1693,-1.1819,-1.1819,-1.1819,-1.1811,-1.184,-1.184,-1.2058,-1.2384,-1.2772,-1.2921,-1.3106,-1.3329,-1.3396,-1.3396,-1.3328,-1.2635,-1.2204,-1.2297,-1.1589,-1.1095,-1.1207,-1.1241,-1.131,-1.1548,-1.1534,-1.1375,-1.0831,-1.0775,-1.0801,-1.0756,-1.0746,-1.0516,-0.6975,-0.6975,-0.6975,-0.6952,-0.6937,-0.688,-0.6593,-0.6196,-0.6196,-0.6196,-0.6196,-0.6196,-0.6196,-0.6196,-0.6263,-0.63,-0.6296,-0.6344,-0.6177,-0.5943,-0.6271,-0.6282,-0.6056,-0.6488,-0.6683,-0.6614,-0.6683,-0.688,-0.7207,-0.7207,-0.7572,-0.8237,-0.787,-0.7905,0.0,0.0,0.0,0.0,-0.7695,-0.7695,-0.7695,-0.7695,-0.7462,-0.6982,-0.6606,0.0,-0.5684,-0.5297,-0.5093,-0.5098,-0.4788,0.0,0.0,0.0,0.0,0.0,0.0,0.0,0.0,0.0,0.0,0.0,-0.6132,-0.6067,-0.5552,-0.5982,-0.6373,-0.6543,-0.6854,-0.7174,-0.7419,-0.7991,-0.8738,-0.9708,-0.9508,-0.9801,-1.1198,-1.0959,-1.0882,-1.1531,-1.1626,-1.1655,-1.176,-1.1819,-1.1819,-1.1819,-1.1819,-1.1819,-1.1819,-1.2031,-1.2254,-1.2419,-1.2782,-1.3101,-1.3354,-1.3388,-1.3328,-1.3244,-1.2211,-1.1671,-1.2016,-1.0662,-0.9752,-1.0307,-0.9896,-0.96,-0.98,-0.987,-1.0033,-0.9787,-0.9872,-0.9928,-0.9928,-0.992,-0.9873,-0.6975,0.0,-0.6975,-0.6975,0.0,0.0,-0.6857,-0.6583,-0.6583,-0.6587,-0.6583,-0.6583,-0.6587,-0.6587,-0.6587,-0.6583,-0.6573,-0.6471,-0.6286,-0.6176,-0.6407,-0.6376,-0.611,-0.6502,-0.6619,-0.6492,-0.6513,-0.6605,-0.6785,-0.6811,-0.7011,-0.7466,-0.7416,-0.7541,-0.7739,-0.7709,-0.7601,-0.741,-0.7417,-0.7394,-0.7389,-0.7394,-0.7319,-0.7104,0.0,0.0,0.0,0.0,0.0,0.0,0.0,0.0,0.0,0.0,0.0,-0.5542,-0.5653,-0.5677,-0.5584,-0.601,-0.6361,-0.6542,-0.708,-0.7188,-0.6632,-0.6603,-0.6844,-0.738,-0.7947,-0.8171,-0.8027,-0.857,-0.9291,-1.0114,-1.02,-1.0649,-1.1547,-1.1506,-1.1431,-1.1723,-1.1819,-1.1819,-1.1819,-1.1819,-1.1819,-1.1819,-1.1819,-1.1819,-1.1826,-1.2024,-1.229,-1.2598,-1.2832,-1.3076,-1.3286,-1.3057,-1.2855,-1.2694,-1.1866,-1.1358,-1.1637,-1.0572,-0.9864,-1.0442,-1.008,-0.9683,-0.9719,-0.9818,-0.9783,-0.9573,-0.9559,-0.9625,-0.9683,-0.9707,-0.9707,-0.7054,-0.7055,-0.7041,-0.6975,-0.6975,-0.6975,-0.6975,-0.6975,0.0,0.0,0.0,-0.6975,-0.6975,-0.6975,-0.6975,-0.6975,-0.6962,-0.6774,-0.664,-0.6573,-0.6707,-0.6595,-0.6289,-0.6556,-0.655,-0.6345,-0.6308,-0.6336,-0.6397,-0.6393,-0.6423,-0.6514,-0.685,-0.7011,-0.713,-0.75,-0.7491,-0.7123,-0.7162,-0.7173,-0.7109,-0.7178,-0.7178,-0.7104,-0.7104,-0.6919,-0.6543,-0.645,-0.6245,-0.5908,-0.5911,-0.5708,-0.5312,-0.5669,-0.5994,-0.6152,-0.6518,-0.6547,-0.6128,-0.6725,-0.7123,-0.7062,-0.7915,-0.8204,-0.7612,-0.7199,-0.7384,-0.8368,-0.8782,-0.8932,-0.8861,-0.9312,-0.9866,-1.0355,-1.0845,-1.1259,-1.1637,-1.1703,-1.1703,-1.1776,-1.1819,-1.1819,-1.1819,-1.1819,-1.1819,-1.1819,-1.1819,-1.1819,-1.1848,-1.1961,-1.2291,-1.2764,-1.2879,-1.3009,-1.3236,-1.2812,-1.2348,-1.2339,-1.1544,-1.0969,-1.0994,-1.0766,-1.0707,-1.0974,-1.0927,-1.0743,-1.0299,-1.0131,-1.0029,-0.9565,-0.9491,-0.9534,-0.9658,-0.9707,-0.9707,-0.7174,-0.7429,-0.7128,-0.6975,-0.6975,-0.6975,-0.6975,-0.6975,-0.6975,-0.6975,-0.6975,-0.6975,-0.6975,-0.6975,-0.6975,-0.6975,-0.6975,-0.6935,-0.683,0.0,-0.6622,-0.6475,-0.6218,-0.5987,-0.5869,-0.582,-0.5564,-0.5641,-0.594,-0.5975,-0.6152,-0.6453,-0.6544,-0.6764,-0.7109,-0.7506,-0.7516,-0.7106,-0.7463,-0.7466,-0.7119,-0.7428,-0.7466,-0.7124,-0.7104,-0.708,-0.7002,-0.6626,-0.6382,-0.6318,-0.6328,-0.6187,-0.5913,-0.6162,-0.6445,-0.6734,-0.6587,-0.6411,-0.6357,-0.6674,-0.7087,-0.759,-0.8444,-0.8753,-0.8227,-0.838,-0.864,-0.8964,-0.9428,-0.9723,-0.9723,-0.9786,-0.9993,-1.033,-1.0496,-1.0746,-1.1315,-1.1416,-1.1496,-1.1754,-1.1819,-1.1819,-1.1819,-1.1819,-1.1819,-1.1819,-1.1819,-1.1819,-1.1819,-1.1826,-1.2086,-1.2513,-1.2657,-1.2866,-1.321,-1.2787,-1.2356,-1.2305,-1.1175,-1.0614,-1.1135,-1.118,-1.1138,-1.1113,-1.1957,-1.1923,-1.0479,-1.0108,-0.9934,-0.9498,-0.9421,-0.9551,-0.9683,-0.9707,-0.9707,-0.7595,-0.7699,-0.7572,-0.7415,-0.7251,-0.7091,-0.6975,-0.6975,-0.6975,-0.6975,-0.6975,-0.6975,-0.6975,-0.6975,-0.6975,-0.6975,-0.6975,-0.6975,-0.6909,-0.6827,-0.6786,-0.6665,-0.6409,-0.6238,-0.6029,-0.5698,-0.5591,-0.5528,-0.5561,-0.5585,-0.5672,-0.5851,-0.6064,-0.6386,-0.6773,-0.6959,-0.7066,-0.712,-0.7282,-0.7295,-0.7109,-0.7014,-0.7117,-0.7399,-0.7227,-0.7217,-0.7399,-0.7204,-0.6995,-0.6792,-0.6792,-0.6611,-0.6255,-0.6582,-0.6855,-0.6987,-0.708,-0.7092,-0.7092,-0.7413,-0.7723,-0.8033,-0.8794,-0.9156,-0.8924,-0.9212,-0.9435,-0.9516,-0.9767,-0.9873,-0.9873,-0.9873,-1.0021,-1.0353,-1.0556,-1.0852,-1.1226,-1.146,-1.1623,-1.1776,-1.1819,-1.1819,-1.1819,-1.1819,-1.1819,-1.1819,-1.1819,-1.1819,-1.1819,-1.1819,-1.1982,-1.2482,-1.2605,-1.2832,-1.3261,-1.277,-1.2365,-1.2305,-1.1739,-1.1434,-1.1756,-1.1992,-1.2111,-1.1832,-1.2297,-1.1832,-1.0279,-1.0096,-0.9915,-0.9486,-0.9403,-0.9534,-0.9667,-0.9707,-0.9707,-0.7928,-0.8033,-0.7915,-0.7789,-0.7552,-0.7325,-0.7224,-0.7184,-0.7188,-0.7231,-0.7168,-0.7091,-0.6975,-0.6975,-0.6975,-0.6975,-0.6975,-0.6975,-0.6975,-0.6975,-0.6975,-0.6878,-0.6706,-0.6633,-0.6345,-0.5953,-0.5843,-0.5698,-0.5531,-0.5447,-0.5341,-0.5354,-0.5707,-0.6064,-0.6338,-0.6442,-0.6657,-0.6938,-0.7064,-0.7106,-0.71,-0.6826,-0.6975,-0.75,-0.734,-0.7365,-0.7676,-0.7695,-0.7545,-0.7266,-0.7246,-0.7053,-0.6748,-0.7041,-0.7236,-0.727,-0.7515,-0.7695,-0.7725,-0.8091,-0.829,-0.8313,-0.897,-0.9402,-0.9428,-0.9718,-0.9873,-0.9873,-0.9893,-0.9873,-0.9873,-0.9873,-1.0021,-1.0254,-1.0514,-1.078,-1.1157,-1.1472,-1.1718,-1.1783,-1.1819,-1.1819,-1.1819,-1.1819,-1.1819,-1.1819,-1.1819,-1.1819,-1.1819,-1.1819,-1.1995,-1.2341,-1.2555,-1.2823,-1.3236,-1.2795,-1.2365,-1.2305,-1.2069,-1.1984,-1.2187,-1.2744,-1.2981,-1.2517,-1.2398,-1.1832,-1.0648,-1.0352,-1.0123,-0.9536,-0.9368,-0.95,-0.9667,-0.9707,-0.9707,-0.8096,-0.8273,-0.8014,-0.7872,-0.7839,-0.7795,-0.7822,-0.7779,-0.7839,-0.7802,-0.7762,-0.7268,-0.6992,-0.6975,-0.6982,-0.6975,-0.6975,-0.6975,-0.6975,-0.6975,-0.6975,-0.6972,-0.6945,-0.6734,-0.6567,-0.647,-0.6236,-0.6129,-0.6051,-0.5778,-0.5534,-0.5371,-0.5703,-0.5905,-0.5977,-0.6303,-0.6519,-0.6557,-0.691,-0.7111,-0.7121,-0.7427,-0.7461,-0.7163,-0.7467,-0.7656,-0.7695,-0.7695,-0.7676,-0.7642,-0.7627,-0.7613,-0.7569,-0.7613,-0.7632,-0.7627,-0.7676,-0.7695,-0.7725,-0.8067,-0.829,-0.8342,-0.8937,-0.9375,-0.9402,-0.9718,-0.9873,-0.9873,-0.9873,-0.9873,-0.9873,-0.9873,-0.9899,-0.9995,-1.0046,-1.023,-1.0852,-1.1129,-1.1386,-1.1769,-1.1819,-1.1819,-1.1819,-1.1819,-1.1819,-1.1819,-1.1819,-1.1819,-1.1819,-1.1819,-1.1905,-1.2187,-1.2441,-1.2813,-1.316,-1.2779,-1.2466,-1.2314,-1.1739,-1.1798,-1.2255,-1.2348,-1.2229,-1.2847,-1.3193,-1.2575,-1.1468,-1.0988,-1.0604,-0.9904,-0.9581,-0.9439,-0.9636,-0.9707,-0.9707,-0.8517,-0.8617,-0.85,-0.8347,-0.8183,-0.8006,-0.7929,-0.7929,-0.7929,-0.7929,-0.7855,-0.7616,-0.7458,-0.7275,-0.7101,-0.6975,-0.6975,-0.6975,-0.6975,-0.6975,-0.6975,-0.6975,-0.6962,-0.6904,-0.676,-0.6597,-0.6505,-0.6361,-0.6169,-0.5855,-0.5648,-0.5561,-0.5557,-0.5536,-0.5561,-0.5718,-0.5907,-0.6151,-0.6541,-0.6865,-0.7078,-0.7261,-0.7397,-0.7451,-0.7379,-0.7485,-0.7666,-0.7695,-0.7695,-0.7695,-0.7695,-0.7695,-0.7695,-0.7695,-0.7695,-0.7695,-0.7695,-0.7695,-0.7695,-0.7841,-0.7952,-0.7947,-0.8444,-0.8822,-0.9041,-0.9555,-0.9873,-0.9873,-0.9873,-0.9873,-0.9873,-0.9873,-0.9873,-0.9925,-1.0065,-1.0391,-1.0825,-1.1118,-1.1403,-1.1747,-1.1819,-1.1819,-1.1819,-1.1819,-1.1819,-1.1819,-1.1819,-1.1819,-1.1819,-1.1819,-1.1926,-1.2128,-1.2293,-1.2578,-1.3026,-1.3101,-1.2923,-1.2888,-1.2693,-1.2693,-1.2761,-1.288,-1.2855,-1.283,-1.3151,-1.2803,-1.1324,-1.1227,-1.1011,-1.0498,-1.0312,-1.0167,-0.9793,-0.9707,-0.9707,-0.8808,-0.8808,-0.8808,-0.8684,-0.848,-0.8267,-0.817,-0.8121,-0.8166,-0.8117,-0.8166,-0.8041,-0.7926,-0.7728,-0.7318,-0.7144,-0.7134,-0.7061,-0.6975,-0.6975,-0.6975,-0.6975,-0.6975,-0.6972,-0.6914,-0.6744,-0.671,-0.656,-0.632,-0.6076,-0.5875,-0.5711,-0.5501,-0.5361,-0.5319,-0.5312,-0.5456,-0.574,-0.6237,-0.6639,-0.6925,-0.7159,-0.7417,-0.7642,-0.7408,-0.7389,-0.7676,-0.7695,-0.7695,-0.7695,-0.7695,-0.7695,-0.7695,-0.7695,-0.7695,-0.7695,-0.7695,-0.7695,-0.7695,-0.7695,-0.7695,-0.7725,-0.8062,-0.8449,-0.8844,-0.9475,-0.988,-0.9873,-0.9873,-0.9873,-0.9873,-0.9873,-0.9873,-0.9899,-1.0135,-1.0391,-1.0735,-1.1068,-1.1359,-1.1608,-1.1731,-1.1819,-1.1819,-1.1819,-1.1819,-1.1819,-1.1819,-1.1819,-1.1819,-1.1819,-1.1876,-1.2052,-1.2136,-1.2424,-1.2895,-1.3097,-1.3294,-1.3405,-1.3286,-1.3261,-1.3396,-1.3388,-1.3354,-1.3083,-1.3278,-1.2981,-1.1948,-1.1633,-1.1529,-1.1515,-1.1318,-1.0895,-1.0288,-1.0094,-0.9928,-0.8808,-0.8808,-0.8808,-0.8791,-0.8778,-0.8748,-0.8748,-0.8704,-0.8734,-0.8751,-0.8684,-0.8467,-0.8397,-0.827,-0.7772,-0.7493,-0.7405,-0.7164,-0.6992,-0.6979,-0.6975,-0.6975,-0.6975,-0.6975,-0.6965,-0.6964,-0.6919,-0.6827,-0.6583,-0.6536,-0.6263,-0.5752,-0.5695,-0.5544,-0.5353,-0.5312,-0.5312,-0.5439,-0.6068,-0.6484,-0.6605,-0.7266,-0.7627,-0.7656,-0.7666,-0.7661,-0.7695,-0.7695,-0.7695,-0.7695,-0.7695,-0.7695,-0.7695,-0.7695,-0.7695,-0.7695,-0.7695,-0.7695,-0.7695,-0.7695,-0.7695,-0.7754,-0.8038,-0.8449,-0.8761,-0.9416,-0.9822,-0.9873,-0.9873,-0.9873,-0.9873,-0.9873,-0.9873,-0.9873,-0.9899,-1.011,-1.0411,-1.0879,-1.1192,-1.1366,-1.1621,-1.179,-1.1819,-1.1819,-1.1819,-1.1819,-1.1819,-1.1819,-1.1819,-1.1819,-1.1826,-1.1891,-1.2045,-1.238,-1.285,-1.3049,-1.3164,-1.3277,-1.3337,-1.3396,-1.3396,-1.3388,-1.3345,-1.3328,-1.3362,-1.31,-1.2507,-1.2161,-1.2032,-1.1964,-1.191,-1.1497,-1.0922,-1.0867,-1.0645,-0.8808,-0.8808,-0.8808,-0.8808,-0.8808,-0.8808,-0.8808,-0.8808,-0.8808,-0.8808,-0.8794,-0.8691,-0.8651,-0.8631,-0.823,-0.7876,-0.7478,-0.7351,-0.7204,-0.7037,-0.6975,-0.6975,-0.6975,-0.6975,-0.6975,-0.6975,-0.6975,-0.6929,-0.6857,-0.6687,-0.649,-0.6246,-0.5892,-0.5641,-0.5546,-0.5386,-0.5312,-0.5372,-0.5855,-0.6121,-0.6221,-0.6897,-0.7324,-0.7344,-0.7573,-0.7695,-0.7695,-0.7695,-0.7695,-0.7695,-0.7695,-0.7695,-0.7695,-0.7695,-0.7695,-0.7695,-0.7695,-0.7695,-0.7695,-0.7695,-0.7695,-0.7695,-0.7846,-0.8086,-0.85,-0.9062,-0.949,-0.9581,-0.9796,-0.9873,-0.9873,-0.9873,-0.9873,-0.9873,-0.9905,-1.0039,-1.0334,-1.0577,-1.0832,-1.1241,-1.1584,-1.1797,-1.1819,-1.1819,-1.1819,-1.1819,-1.1819,-1.1819,-1.1819,-1.1819,-1.1819,-1.1819,-1.1883,-1.2073,-1.2392,-1.2813,-1.3049,-1.3164,-1.3234,-1.3363,-1.3396,-1.3396,-1.3362,-1.3354,-1.3388,-1.3328,-1.2829,-1.2882,-1.2703,-1.2361,-1.2321,-1.2223,-1.1625,-1.1606,-1.1251,-0.8808,-0.8808,-0.8808,-0.8808,-0.8808,-0.8808,-0.8808,-0.8808,-0.8808,-0.8808,-0.8808,-0.8808,-0.8808,-0.8778,-0.8604,-0.8247,-0.7822,-0.7662,-0.7455,-0.7181,-0.7164,-0.7111,-0.6989,-0.6975,-0.6975,-0.6975,-0.6975,-0.6975,-0.6959,-0.6827,-0.6687,-0.6556,-0.6086,-0.5793,-0.5674,-0.5408,-0.5312,-0.5372,-0.5707,-0.594,-0.6152,-0.6738,-0.7171,-0.7314,-0.7564,-0.7695,-0.7695,-0.7695,-0.7695,-0.7695,-0.7695,-0.7695,-0.7695,-0.7695,-0.7695,-0.7695,-0.7695,-0.7695,-0.7695,-0.7695,-0.7695,-0.7695,-0.77,-0.788,-0.8275,-0.8712,-0.9068,-0.9375,-0.9692,-0.9873,-0.9873,-0.9873,-0.9873,-0.9873,-0.9873,-0.9995,-1.0187,-1.0354,-1.0695,-1.12,-1.16,-1.1776,-1.1819,-1.1819,-1.1819,-1.1819,-1.1819,-1.1819,-1.1819,-1.1819,-1.1819,-1.1819,-1.1819,-1.1883,-1.2141,-1.2502,-1.2887,-1.3023,-1.3251,-1.3363,-1.3396,-1.3396,-1.3396,-1.3396,-1.3396,-1.3396,-1.3438,-1.3494,-1.3251,-1.285,-1.295,-1.2997,-1.262,-1.238,-1.1992,-0.8699,-0.8695,-0.8808,-0.8699,-0.8699,-0.8695,-0.8752,-0.8808,-0.8755,-0.8699,-0.8752,-0.8808,-0.8808,-0.8801,-0.8771,-0.8614,-0.8333,-0.8083,-0.7792,-0.7537,-0.749,-0.7295,-0.7074,-0.6989,-0.6975,-0.6975,-0.6975,-0.6975,-0.6969,-0.6981,-0.6857,-0.66,-0.6357,-0.6068,-0.5735,-0.5524,-0.5342,-0.5406,-0.5669,-0.6037,-0.6492,-0.679,-0.7127,-0.751,-0.7637,-0.7666,-0.7666,-0.7666,-0.7695,-0.7695,-0.7695,-0.7695,-0.7695,-0.7695,-0.7695,-0.7695,-0.7695,-0.7695,-0.7695,-0.7695,-0.7695,-0.7695,-0.7695,-0.7851,-0.8154,-0.8423,-0.8756,-0.9245,-0.9633,-0.9854,-0.9873,-0.9873,-0.9873,-0.9873,-0.9873,-0.9918,-0.9995,-1.0232,-1.0619,-1.1174,-1.1578,-1.1797,-1.1819,-1.1819,-1.1819,-1.1819,-1.1819,-1.1819,-1.1819,-1.1819,-1.1819,-1.1819,-1.1819,-1.184,-1.2016,-1.2228,-1.2599,-1.2942,-1.3208,-1.3396,-1.3396,-1.3396,-1.3396,-1.3396,-1.3396,-1.3396,-1.3396,-1.3454,-1.3469,-1.3241,-1.352,-1.3583,-1.3321,-1.2982,-1.2767,-0.7289,-0.7343,-0.7833,-0.8049,-0.8046,-0.8049,-0.8315,-0.8699,-0.8262,-0.8321,-0.8748,-0.8808,-0.8808,-0.8804,-0.8808,-0.8758,-0.8664,-0.855,-0.8263,-0.7822,-0.7579,-0.7476,-0.7305,-0.7114,-0.6975,-0.6975,-0.6975,-0.6975,-0.6975,-0.6975,-0.6967,-0.6844,-0.659,-0.642,-0.6273,-0.5845,-0.5581,-0.5551,-0.5499,-0.5554,-0.5703,-0.6068,-0.6344,-0.6531,-0.7235,-0.7578,-0.7308,-0.7549,-0.7695,-0.7695,-0.7695,-0.7695,-0.7695,-0.7695,-0.7695,-0.7695,-0.7695,-0.7695,-0.7695,-0.7695,-0.7695,-0.7695,-0.7695,-0.7739,-0.7915,-0.8169,-0.854,-0.8966,-0.9322,-0.9639,-0.9848,-0.9873,-0.9873,-0.9873,-0.9873,-0.9873,-0.9957,-1.0401,-1.0773,-1.1029,-1.1468,-1.1768,-1.1819,-1.1819,-1.1819,-1.1819,-1.1819,-1.1819,-1.1819,-1.1819,-1.1819,-1.1819,-1.1819,-1.1819,-1.194,-1.2113,-1.2435,-1.2797,-1.3095,-1.3354,-1.3379,-1.3396,-1.3396,-1.3396,-1.3396,-1.3396,-1.3396,-1.3404,-1.3437,-1.3486,-1.3524,-1.3573,-1.3627,-1.3507,-1.3291,-0.6591,-0.6642,-0.7077,-0.7292,-0.7292,-0.7289,-0.7566,-0.7883,-0.7492,-0.7551,-0.7934,-0.829,-0.8408,-0.8421,-0.8643,-0.8808,-0.8808,-0.8808,-0.8607,-0.825,-0.7949,-0.7748,-0.7506,-0.7158,-0.6975,-0.6975,-0.6975,-0.6975,-0.6975,-0.6975,-0.6975,-0.6971,-0.673,-0.658,-0.655,-0.6129,-0.5838,-0.5701,-0.5538,-0.5481,-0.5547,-0.5765,-0.5975,-0.6187,-0.6863,-0.7081,-0.6897,-0.7255,-0.7534,-0.7661,-0.7695,-0.7695,-0.7695,-0.7695,-0.7695,-0.7695,-0.7695,-0.7695,-0.7695,-0.7695,-0.7695,-0.7695,-0.7695,-0.7695,-0.7783,-0.8062,-0.8422,-0.8772,-0.9164,-0.9528,-0.9822,-0.9873,-0.9873,-0.9873,-0.9873,-0.9873,-0.9982,-1.0382,-1.077,-1.094,-1.1304,-1.1608,-1.1776,-1.1819,-1.1819,-1.1819,-1.1819,-1.1819,-1.1819,-1.1819,-1.1819,-1.1819,-1.1819,-1.1819,-1.1848,-1.2045,-1.2296,-1.2638,-1.2979,-1.3208,-1.3354,-1.3379,-1.3396,-1.3396,-1.3396,-1.3396,-1.3396,-1.3396,-1.3413,-1.3462,-1.3509,-1.3624,-1.3713,-1.3962,-1.3872,-0.6477,-0.6477,-0.6534,-0.6532,-0.6532,-0.6534,-0.664,-0.6691,-0.6556,-0.6668,-0.695,-0.7576,-0.7838,-0.7931,-0.8533,-0.8808,-0.8808,-0.8804,-0.8791,-0.8677,-0.8447,-0.8115,-0.7537,-0.7208,-0.7078,-0.6979,-0.6975,-0.6975,-0.6975,-0.6975,-0.6975,-0.6945,-0.678,-0.6623,-0.6593,-0.6367,-0.6095,-0.5875,-0.5748,-0.5714,-0.5824,-0.5835,-0.5975,-0.6301,-0.6427,-0.6488,-0.6518,-0.6858,-0.7262,-0.7627,-0.7695,-0.7695,-0.7695,-0.7695,-0.7695,-0.7695,-0.7695,-0.7695,-0.7695,-0.7695,-0.7695,-0.7695,-0.7695,-0.7695,-0.7754,-0.801,-0.8317,-0.8694,-0.9092,-0.9481,-0.9738,-0.9867,-0.9873,-0.9873,-0.9873,-0.9873,-0.9944,-1.0232,-1.0555,-1.0863,-1.1127,-1.1416,-1.1754,-1.1797,-1.1819,-1.1819,-1.1819,-1.1819,-1.1819,-1.1819,-1.1819,-1.1805,-1.1812,-1.1819,-1.1826,-1.1883,-1.2187,-1.2706,-1.294,-1.303,-1.3294,-1.3371,-1.3396,-1.3396,-1.3396,-1.3396,-1.3396,-1.3396,-1.3396,-1.3421,-1.3526,-1.367,-1.3838,-1.4033,-1.4214,-0.5062,-0.5115,-0.5603,-0.5814,-0.5814,-0.5817,-0.6093,-0.6473,-0.6016,-0.6342,-0.723,-0.7613,-0.7931,-0.8484,-0.8643,-0.8808,-0.8808,-0.8808,-0.8808,-0.8798,-0.8741,-0.822,-0.7647,-0.7439,-0.7231,-0.7064,-0.7005,-0.6975,-0.6975,-0.6975,-0.6975,-0.6975,-0.6937,-0.6894,-0.6864,-0.6653,-0.6456,-0.6296,-0.5909,-0.5732,-0.5722,-0.5584,-0.5495,-0.562,-0.5928,-0.6044,-0.6091,-0.6427,-0.6998,-0.7627,-0.7695,-0.7695,-0.7695,-0.7695,-0.7695,-0.7695,-0.7695,-0.7695,-0.7695,-0.7695,-0.7695,-0.7695,-0.7695,-0.7695,-0.7695,-0.7783,-0.806,-0.839,-0.8761,-0.9122,-0.9475,-0.977,-0.9873,-0.9873,-0.9873,-0.9873,-0.995,-1.0206,-1.0544,-1.0846,-1.1134,-1.14,-1.1703,-1.1819,-1.1819,-1.1819,-1.1819,-1.1857,-1.191,-1.1946,-1.1991,-1.1865,-1.1835,-1.1812,-1.1819,-1.1848,-1.2157,-1.2756,-1.2933,-1.2838,-1.3136,-1.3371,-1.3388,-1.3396,-1.3396,-1.3396,-1.3396,-1.3396,-1.3396,-1.3396,-1.3446,-1.3549,-1.3774,-1.396,-1.4171,-0.4462,-0.4517,-0.4893,-0.5111,-0.5111,-0.5111,-0.5332,-0.5603,-0.5324,-0.5483,-0.6359,-0.7012,-0.7501,-0.7883,-0.848,-0.8804,-0.8808,-0.8808,-0.8808,-0.8808,-0.8798,-0.8437,-0.7997,-0.7742,-0.7502,-0.7238,-0.7208,-0.7138,-0.6999,-0.6975,-0.6975,-0.6975,-0.6975,-0.6975,-0.6962,-0.6867,-0.6697,-0.6553,-0.6236,-0.6035,-0.5892,-0.5773,-0.5581,-0.5537,-0.5704,-0.583,-0.594,-0.6113,-0.67,-0.7407,-0.7506,-0.7462,-0.7661,-0.7695,-0.7695,-0.7695,-0.7695,-0.7695,-0.7695,-0.7695,-0.7695,-0.7695,-0.7695,-0.7695,-0.7695,-0.7695,-0.7856,-0.8258,-0.8485,-0.8839,-0.9322,-0.9698,-0.988,-0.9873,-0.9873,-0.9905,-0.9905,-1.0046,-1.0408,-1.076,-1.1041,-1.1317,-1.1747,-1.1812,-1.1812,-1.1819,-1.1819,-1.1992,-1.2186,-1.2209,-1.2291,-1.2373,-1.2343,-1.2396,-1.2463,-1.2501,-1.2667,-1.3183,-1.37,-1.344,-1.3219,-1.3496,-1.3489,-1.3498,-1.3439,-1.3396,-1.3396,-1.3396,-1.3396,-1.3396,-1.3396,-1.3487,-1.3687,-1.3896,-1.4087,-0.4462,-0.4462,-0.4462,-0.4462,-0.4517,-0.4517,-0.4572,-0.4517,-0.457,-0.4679,-0.5056,-0.6013,-0.6617,-0.6696,-0.8046,-0.8649,-0.8643,-0.8752,-0.8808,-0.8808,-0.8791,-0.8617,-0.8383,-0.8086,-0.7772,-0.7523,-0.7506,-0.7281,-0.7088,-0.6975,-0.6975,-0.6975,-0.6975,-0.6975,-0.6975,-0.6952,-0.688,-0.67,-0.6563,-0.6428,-0.625,-0.6135,-0.5984,-0.5816,-0.5709,-0.5749,-0.5794,-0.5892,-0.6308,-0.7421,-0.7148,-0.7317,-0.7656,-0.7695,-0.7695,-0.7695,-0.7695,-0.7695,-0.7695,-0.7695,-0.7695,-0.7695,-0.7695,-0.7695,-0.7695,-0.7695,-0.7851,-0.8131,-0.8257,-0.8673,-0.9289,-0.9718,-0.9955,-1.0018,-1.0018,-1.002,-1.0044,-0.9987,-1.018,-1.0845,-1.0949,-1.1201,-1.1667,-1.191,-1.1977,-1.2545,-1.2471,-1.2628,-1.2822,-1.289,-1.3107,-1.3368,-1.3279,-1.3129,-1.3196,-1.3249,-1.343,-1.3781,-1.4542,-1.4532,-1.379,-1.3777,-1.3699,-1.3693,-1.3811,-1.3676,-1.3396,-1.3396,-1.3422,-1.3396,-1.3396,-1.3469,-1.3586,-1.3795,-1.4011,-0.4462,-0.4462,-0.4462,-0.4462,-0.4462,-0.4462,-0.4462,-0.4462,-0.4462,-0.4732,-0.5269,-0.5632,-0.6074,-0.664,-0.7506,-0.7943,-0.8046,-0.8427,-0.8808,-0.8808,-0.8808,-0.8784,-0.8647,-0.8404,-0.7986,-0.7664,-0.7523,-0.7311,-0.7094,-0.6975,-0.6975,-0.6975,-0.6975,-0.6975,-0.6975,-0.6975,-0.6962,-0.6894,-0.672,-0.6629,-0.6525,-0.634,-0.6196,-0.6058,-0.5828,-0.5601,-0.544,-0.5417,-0.5721,-0.6317,-0.6974,-0.7364,-0.7627,-0.7695,-0.7695,-0.7695,-0.7695,-0.7695,-0.7695,-0.7695,-0.7695,-0.7695,-0.7695,-0.7695,-0.7695,-0.7695,-0.7734,-0.7871,-0.8106,-0.8649,-0.9364,-0.9735,-1.0116,-1.0414,-1.0537,-1.0712,-1.0966,-1.0477,-1.0521,-1.1156,-1.1263,-1.1332,-1.2394,-1.2568,-1.2801,-1.3204,-1.3353,-1.3436,-1.351,-1.3585,-1.3855,-1.4161,-1.3922,-1.3772,-1.3989,-1.4067,-1.423,-1.4465,-1.5129,-1.5671,-1.4921,-1.4619,-1.476,-1.4577,-1.431,-1.409,-1.3921,-1.3523,-1.3583,-1.3489,-1.3489,-1.3624,-1.378,-1.3885,-1.4064,-0.4462,-0.4462,-0.4462,-0.4462,-0.4462,-0.4462,-0.4462,-0.4462,-0.4462,-0.4679,-0.5054,-0.5318,-0.5753,-0.6147,-0.6856,-0.7184,-0.7343,-0.7937,-0.848,-0.8699,-0.8808,-0.8808,-0.8794,-0.8621,-0.827,-0.7769,-0.7692,-0.7455,-0.7134,-0.6979,-0.6975,-0.6975,-0.6975,-0.6975,-0.6975,-0.6975,-0.6975,-0.6997,-0.6884,-0.679,-0.6754,-0.6653,-0.6408,-0.6193,-0.5868,-0.5578,-0.5346,-0.5312,-0.5439,-0.5742,-0.626,-0.6996,-0.7569,-0.7695,-0.7695,-0.7695,-0.7695,-0.7695,-0.7695,-0.7695,-0.7695,-0.7695,-0.7695,-0.7695,-0.7695,-0.7695,-0.7695,-0.7778,-0.8153,-0.8703,-0.9677,-1.0135,-1.0552,-1.0963,-1.1127,-1.1379,-1.1682,-1.1228,-1.106,-1.185,-1.1995,-1.2373,-1.2875,-1.3185,-1.337,-1.3668,-1.3675,-1.3772,-1.4199,-1.4303,-1.4592,-1.4707,-1.4453,-1.4416,-1.4715,-1.4904,-1.5037,-1.5308,-1.5721,-1.6192,-1.6146,-1.6039,-1.6051,-1.5572,-1.502,-1.4952,-1.4724,-1.4267,-1.3904,-1.3988,-1.404,-1.4016,-1.4178,-1.4614,-1.4697,-0.4462,-0.4462,-0.4462,-0.4462,-0.4462,-0.4462,-0.4462,-0.4462,-0.4462,-0.4517,-0.457,-0.5111,-0.5271,-0.549,-0.6091,-0.6423,-0.6804,-0.7396,-0.8103,-0.848,-0.8755,-0.8755,-0.8798,-0.8728,-0.851,-0.8033,-0.7913,-0.7553,-0.7231,-0.7002,-0.6975,-0.6975,-0.6975,-0.6975,-0.6975,-0.6975,-0.6975,-0.7007,-0.6991,-0.6974,-0.6984,-0.6954,-0.6707,-0.6344,-0.5975,-0.5688,-0.547,-0.5359,-0.5312,-0.5312,-0.5312,-0.6048,-0.6962,-0.7666,-0.7695,-0.7695,-0.7695,-0.7695,-0.7695,-0.7695,-0.7695,-0.7695,-0.7695,-0.7695,-0.7695,-0.769,-0.7758,-0.8012,-0.8381,-0.9056,-1.0068,-1.0469,-1.096,-1.1443,-1.1627,-1.1983,-1.2294,-1.2124,-1.2227,-1.2445,-1.2526,-1.2781,-1.3406,-1.3834,-1.3953,-1.4072,-1.4079,-1.4206,-1.4648,-1.4982,-1.5184,-1.5296,-1.5072,-1.4982,-1.5236,-1.5304,-1.5485,-1.5669,-1.6065,-1.6417,-1.684,-1.6828,-1.6573,-1.6139,-1.5759,-1.5654,-1.5426,-1.4952,-1.4716,-1.4699,-1.4673,-1.4693,-1.4996,-1.5412,-1.5349,-0.4462,-0.4462,-0.4462,-0.4462,-0.4462,-0.4462,-0.4462,-0.4462,-0.4462,-0.4462,-0.4517,-0.4625,-0.4732,-0.4897,-0.5382,-0.5982,-0.6583,-0.7122,-0.7667,-0.7996,-0.8378,-0.8699,-0.8643,-0.8745,-0.8611,-0.8317,-0.8083,-0.7756,-0.7385,-0.7161,-0.7061,-0.6985,-0.6975,-0.6975,-0.6975,-0.6975,-0.6975,-0.6975,-0.6975,-0.6975,-0.6975,-0.6952,-0.6867,-0.6525,-0.6246,-0.5978,-0.5648,-0.5447,-0.5312,-0.5312,-0.5312,-0.5467,-0.6044,-0.7022,-0.7603,-0.7695,-0.7695,-0.7695,-0.7695,-0.7695,-0.7695,-0.7695,-0.7695,-0.7729,-0.7734,-0.7763,-0.7949,-0.8406,-0.892,-0.9498,-0.9705,-1.0495,-1.1067,-1.157,-1.2075,-1.2443,-1.2841,-1.2905,-1.2755,-1.2858,-1.2907,-1.3116,-1.3817,-1.4416,-1.4629,-1.483,-1.4989,-1.5027,-1.5274,-1.5476,-1.5596,-1.5664,-1.5671,-1.5641,-1.5709,-1.5679,-1.5722,-1.5762,-1.6027,-1.6305,-1.6701,-1.7085,-1.6963,-1.6561,-1.6374,-1.6314,-1.6001,-1.5646,-1.5477,-1.5426,-1.5418,-1.5418,-1.5679,-1.5963,-1.5983,-0.4462,-0.4462,-0.4462,-0.4462,-0.4462,-0.4462,-0.4462,-0.4462,-0.4462,-0.4462,-0.4462,-0.4462,-0.4462,-0.457,-0.4785,-0.5384,-0.6036,-0.6357,-0.6797,-0.7182,-0.7833,-0.8209,-0.8315,-0.854,-0.8734,-0.8547,-0.8297,-0.7913,-0.7543,-0.7382,-0.7171,-0.6995,-0.6975,-0.6975,-0.6975,-0.6975,-0.6975,-0.6975,-0.6975,-0.6975,-0.6975,-0.6972,-0.6826,-0.6627,-0.6495,-0.6236,-0.5964,-0.5669,-0.552,-0.5477,-0.5361,-0.5329,-0.5745,-0.6647,-0.77,-0.77,-0.7695,-0.7695,-0.7695,-0.7695,-0.7695,-0.7695,-0.77,-0.7851,-0.7999,-0.8118,-0.8356,-0.8921,-0.9257,-0.9838,-1.0327,-1.0898,-1.152,-1.2027,-1.2515,-1.2887,-1.3119,-1.3185,-1.3152,-1.3116,-1.3269,-1.3683,-1.4449,-1.4921,-1.5219,-1.5527,-1.5755,-1.5814,-1.5814,-1.5814,-1.5814,-1.5806,-1.5791,-1.5799,-1.5806,-1.5806,-1.5814,-1.5856,-1.5926,-1.6211,-1.644,-1.6773,-1.7044,-1.6977,-1.6906,-1.6799,-1.6855,-1.6593,-1.6382,-1.6182,-1.6162,-1.6187,-1.633,-1.6441,-1.6507,-0.4462,-0.4462,-0.4462,-0.4462,-0.4462,-0.4462,-0.4462,-0.4462,-0.4462,-0.4462,-0.4462,-0.4462,-0.4462,-0.4517,-0.457,-0.484,-0.5326,-0.5433,-0.5923,-0.6418,-0.7125,-0.7503,-0.767,-0.7996,-0.8299,-0.8357,-0.8262,-0.8075,-0.7772,-0.7557,-0.7318,-0.7174,-0.7084,-0.6975,-0.6975,-0.6975,-0.6975,-0.6975,-0.6975,-0.6975,-0.6975,-0.6962,-0.6921,-0.6683,-0.6627,-0.6466,-0.626,-0.5992,-0.5838,-0.5738,-0.5571,-0.5415,-0.5561,-0.6784,-0.7629,-0.7686,-0.7695,-0.7695,-0.7695,-0.7695,-0.7768,-0.7896,-0.7862,-0.8098,-0.843,-0.8663,-0.896,-0.9563,-0.977,-1.0002,-1.0601,-1.1376,-1.1869,-1.2271,-1.2754,-1.3204,-1.3185,-1.321,-1.321,-1.3321,-1.3615,-1.3946,-1.4419,-1.4983,-1.5198,-1.5396,-1.5617,-1.5814,-1.5814,-1.5814,-1.5814,-1.5814,-1.5806,-1.5806,-1.5814,-1.5806,-1.5814,-1.5835,-1.5885,-1.6032,-1.6191,-1.6402,-1.666,-1.6946,-1.7124,-1.7045,-1.7271,-1.7439,-1.7126,-1.6923,-1.6923,-1.697,-1.702,-1.7114,-1.7212,-0.4462,-0.4462,-0.4462,-0.4462,-0.4462,-0.4462,-0.4462,-0.4462,-0.4462,-0.4462,-0.4462,-0.4462,-0.4462,-0.4462,-0.4462,-0.457,-0.4787,-0.5164,-0.5487,-0.5764,-0.6364,-0.6745,-0.675,-0.6802,-0.7399,-0.7774,-0.7841,-0.8,-0.7993,-0.7699,-0.7516,-0.7406,-0.7161,-0.6975,-0.6979,-0.6975,-0.6975,-0.6975,-0.6975,-0.6975,-0.6975,-0.6975,-0.6987,-0.6897,-0.6747,-0.6607,-0.652,-0.6294,-0.6135,-0.6112,-0.5939,-0.5667,-0.5611,-0.6706,-0.7427,-0.7651,-0.7695,-0.77,-0.7744,-0.7832,-0.7989,-0.8228,-0.8313,-0.8537,-0.8853,-0.9249,-0.9615,-1.0132,-1.0181,-1.0209,-1.0542,-1.1244,-1.17,-1.2144,-1.2615,-1.3019,-1.3204,-1.321,-1.321,-1.321,-1.3425,-1.3615,-1.3946,-1.4568,-1.512,-1.5315,-1.5477,-1.5646,-1.5814,-1.5814,-1.5814,-1.5814,-1.5814,-1.5814,-1.5814,-1.5814,-1.5814,-1.5814,-1.5835,-1.5877,-1.6011,-1.6199,-1.6429,-1.6724,-1.6909,-1.7207,-1.7426,-1.7535,-1.7589,-1.7557,-1.7397,-1.7507,-1.7662,-1.7769,-1.7749,-0.4462,-0.4462,-0.4462,-0.4462,-0.4462,-0.4462,-0.4462,-0.4462,-0.4462,-0.4462,-0.4462,-0.4462,-0.4462,-0.4462,-0.4462,-0.4517,-0.457,-0.484,-0.4948,-0.5111,-0.5601,-0.5975,-0.6079,-0.6416,-0.6861,-0.7031,-0.7509,-0.7785,-0.7903,-0.799,-0.7903,-0.753,-0.7335,-0.7174,-0.7025,-0.6982,-0.6975,-0.6975,-0.6975,-0.6975,-0.6975,-0.6975,-0.6975,-0.6972,-0.6887,-0.6834,-0.674,-0.6559,-0.6455,-0.6396,-0.6193,-0.6019,-0.5937,-0.6517,-0.7138,-0.8406,-0.8135,-0.8032,-0.8112,-0.8289,-0.8505,-0.8643,-0.8759,-0.8922,-0.933,-0.9743,-1.0016,-1.0264,-1.0317,-1.0322,-1.0395,-1.0954,-1.1282,-1.1726,-1.2395,-1.2867,-1.3163,-1.3204,-1.321,-1.321,-1.3245,-1.3431,-1.3581,-1.4019,-1.462,-1.5036,-1.5262,-1.5492,-1.5683,-1.5814,-1.5814,-1.5814,-1.5814,-1.5814,-1.5814,-1.5814,-1.5814,-1.5814,-1.5814,-1.5863,-1.5913,-1.6067,-1.6274,-1.6375,-1.6528,-1.6901,-1.7384,-1.7524,-1.7489,-1.7631,-1.778,-1.7789,-1.7789,-1.778,-1.7769,-0.4462,-0.4462,-0.4462,-0.4462,-0.4462,-0.4462,-0.4462,-0.4462,-0.4462,-0.4462,-0.4462,-0.4462,-0.4462,-0.4462,-0.4462,-0.4462,-0.4517,-0.4462,-0.4462,-0.4677,-0.4946,-0.521,-0.5374,-0.5819,-0.6109,-0.6344,-0.6696,-0.7109,-0.7441,-0.7644,-0.7681,-0.7695,-0.7563,-0.7361,-0.7178,-0.7061,-0.6975,-0.6975,-0.6975,-0.6975,-0.6975,-0.6975,-0.6975,-0.6975,-0.6972,-0.6975,-0.6972,-0.681,-0.6717,-0.6671,-0.6559,-0.6416,-0.6433,-0.6638,-0.7078,-0.8048,-0.816,-0.8401,-0.8521,-0.8704,-0.9021,-0.9162,-0.9312,-0.9523,-0.9717,-1.0127,-1.0322,-1.0278,-1.0322,-1.0322,-1.0395,-1.0725,-1.1169,-1.1616,-1.2144,-1.265,-1.3088,-1.317,-1.321,-1.321,-1.321,-1.321,-1.3397,-1.3547,-1.4019,-1.4652,-1.5006,-1.5299,-1.5558,-1.5785,-1.5814,-1.5814,-1.5814,-1.5814,-1.5814,-1.5814,-1.5814,-1.5814,-1.5814,-1.5814,-1.5863,-1.5885,-1.5991,-1.6095,-1.6191,-1.6554,-1.7035,-1.7199,-1.7383,-1.7627,-1.7789,-1.7789,-1.7789,-1.7789,-1.778,-0.4462,-0.4462,-0.4462,-0.4462,-0.4462,-0.4462,-0.4462,-0.4462,-0.4462,-0.4462,-0.4462,-0.4462,-0.4462,-0.4462,-0.4462,-0.4462,-0.4462,-0.4462,-0.4462,-0.4517,-0.4572,-0.4677,-0.4785,-0.4899,-0.5075,-0.5527,-0.5939,-0.6253,-0.6583,-0.6926,-0.7488,-0.8091,-0.7452,-0.7422,-0.7273,-0.6954,-0.6937,-0.695,-0.6975,-0.6975,-0.6975,-0.6975,-0.6975,-0.6975,-0.6975,-0.6975,-0.6975,-0.6927,-0.691,-0.6934,-0.6845,-0.6826,-0.6794,-0.6878,-0.723,-0.7626,-0.8239,-0.8543,-0.8803,-0.9061,-0.9229,-0.9556,-0.9846,-1.0044,-1.0122,-1.0239,-1.0322,-1.0322,-1.0322,-1.0322,-1.0433,-1.0692,-1.1024,-1.1399,-1.1799,-1.2384,-1.283,-1.3163,-1.3204,-1.321,-1.321,-1.321,-1.321,-1.3397,-1.3675,-1.4278,-1.4937,-1.5262,-1.5588,-1.5814,-1.5814,-1.5814,-1.5814,-1.5814,-1.5814,-1.5814,-1.5814,-1.5814,-1.5814,-1.5814,-1.5814,-1.5835,-1.5863,-1.5892,-1.6019,-1.6355,-1.6667,-1.6952,-1.7272,-1.7604,-1.7789,-1.7789,-1.7789,-1.7789,-1.7789,-0.4384,-0.4462,-0.4462,-0.4462,-0.4462,-0.4462,-0.4462,-0.4462,-0.4462,-0.4462,-0.4462,-0.4462,-0.4462,-0.4462,-0.4462,-0.4462,-0.4462,-0.4462,-0.4462,-0.4462,-0.4462,-0.4462,-0.4462,-0.4519,-0.4686,-0.4965,-0.5277,-0.554,-0.5923,-0.6204,-0.672,-0.7045,-0.6859,-0.6619,-0.6484,-0.6708,-0.6824,-0.7005,-0.7024,-0.7024,-0.6975,-0.6975,-0.6975,-0.6975,-0.6975,-0.6975,-0.6975,-0.6975,-0.6975,-0.6975,-0.6975,-0.6975,-0.6975,-0.7083,-0.7264,-0.7487,-0.8082,-0.8527,-0.9135,-0.9502,-0.9856,-0.997,-1.0194,-1.0322,-1.0322,-1.0322,-1.0322,-1.0322,-1.0322,-1.0322,-1.0356,-1.0472,-1.0659,-1.0997,-1.1451,-1.2069,-1.256,-1.2963,-1.3204,-1.321,-1.321,-1.321,-1.321,-1.3239,-1.352,-1.3894,-1.462,-1.5225,-1.5522,-1.5814,-1.5814,-1.5814,-1.5814,-1.5814,-1.5814,-1.5814,-1.5814,-1.5814,-1.5814,-1.5814,-1.5814,-1.5814,-1.5814,-1.5814,-1.5863,-1.6199,-1.6528,-1.6807,-1.7183,-1.7612,-1.7766,-1.7789,-1.7789,-1.7789,-1.7789,-0.4333,-0.4512,-0.4462,-0.4462,-0.4462,-0.4462,-0.4462,-0.4462,-0.4462,-0.4462,-0.4462,-0.4462,-0.4462,-0.4462,-0.4462,-0.4462,-0.4462,-0.4462,-0.4462,-0.4462,-0.4462,-0.4462,-0.4462,-0.4517,-0.4519,-0.4625,-0.4895,-0.522,-0.522,-0.5714,-0.5867,-0.5873,-0.5788,-0.5712,-0.6155,-0.631,-0.6729,-0.7039,-0.7167,-0.7078,-0.7054,-0.6975,-0.6975,-0.6975,-0.6975,-0.6975,-0.6975,-0.6975,-0.6975,-0.6975,-0.6975,-0.6975,-0.6975,-0.7056,-0.7304,-0.7599,-0.7934,-0.832,-0.8963,-0.9799,-1.0239,-1.0282,-1.0263,-1.0322,-1.0322,-1.0322,-1.0322,-1.0322,-1.0322,-1.0322,-1.0322,-1.0361,-1.0544,-1.0873,-1.1362,-1.1947,-1.246,-1.2861,-1.3079,-1.321,-1.321,-1.321,-1.321,-1.3245,-1.3452,-1.3802,-1.4367,-1.4968,-1.5352,-1.5617,-1.5814,-1.5814,-1.5814,-1.5814,-1.5814,-1.5814,-1.5814,-1.5814,-1.5814,-1.5814,-1.5814,-1.5814,-1.5814,-1.5814,-1.5913,-1.6116,-1.6348,-1.6607,-1.7101,-1.7658,-1.7735,-1.7766,-1.7789,-1.7789,-1.7789,-0.4324,-0.4457,-0.446,-0.4462,-0.4462,-0.4462,-0.4462,-0.4462,-0.4462,-0.4462,-0.4462,-0.4462,-0.4462,-0.4462,-0.4462,-0.4462,-0.4462,-0.4462,-0.4462,-0.4462,-0.4462,-0.4462,-0.4462,-0.4462,-0.4462,-0.4462,-0.4625,-0.4679,-0.4627,-0.4844,-0.4789,-0.4789,-0.4907,-0.5272,-0.6122,-0.6602,-0.7007,-0.7397,-0.7459,-0.7291,-0.7128,-0.7012,-0.6975,-0.6975,-0.6975,-0.6975,-0.6975,-0.6975,-0.6975,-0.6975,-0.6975,-0.6975,-0.6975,-0.6975,-0.7056,-0.714,-0.761,-0.787,-0.8081,-0.9443,-1.0123,-1.0283,-1.0322,-1.0322,-1.0322,-1.0322,-1.0322,-1.0322,-1.0322,-1.0322,-1.0322,-1.0322,-1.0539,-1.0759,-1.1207,-1.1678,-1.2153,-1.2636,-1.2803,-1.3141,-1.321,-1.321,-1.321,-1.3273,-1.3452,-1.3769,-1.4246,-1.4683,-1.5134,-1.5389,-1.563,-1.5814,-1.5814,-1.5814,-1.5814,-1.5814,-1.5814,-1.5814,-1.5814,-1.5814,-1.5814,-1.5814,-1.5814,-1.5814,-1.5885,-1.6004,-1.6171,-1.6355,-1.6884,-1.7384,-1.7643,-1.7721,-1.7766,-1.7789,-1.7789,-0.4132,-0.4329,-0.4477,-0.4462,-0.4462,-0.4462,-0.4462,-0.4462,-0.4462,-0.4462,-0.4462,-0.4462,-0.4462,-0.4462,-0.4462,-0.4462,-0.4462,-0.4462,-0.4462,-0.4462,-0.4462,-0.4462,-0.4462,-0.4462,-0.4462,-0.4462,-0.4462,-0.4462,-0.4517,-0.4462,-0.4462,-0.4517,-0.457,-0.5164,-0.5933,-0.6455,-0.6814,-0.7565,-0.7608,-0.7446,-0.7305,-0.7144,-0.6992,-0.6992,-0.6992,-0.6975,-0.6975,-0.6975,-0.6975,-0.6975,-0.6975,-0.6975,-0.6975,-0.6975,-0.6975,-0.6975,-0.7314,-0.7492,-0.8032,-0.9039,-0.9887,-1.0123,-1.0322,-1.0322,-1.0322,-1.0322,-1.0322,-1.0322,-1.0322,-1.0322,-1.0322,-1.0322,-1.0428,-1.0433,-1.0769,-1.1244,-1.1704,-1.2173,-1.2526,-1.298,-1.321,-1.321,-1.321,-1.321,-1.3363,-1.348,-1.3861,-1.447,-1.4982,-1.5169,-1.5351,-1.5681,-1.5814,-1.5814,-1.5814,-1.5814,-1.5814,-1.5814,-1.5814,-1.5814,-1.5814,-1.5814,-1.5814,-1.5814,-1.5827,-1.5906,-1.6088,-1.6328,-1.6651,-1.706,-1.7288,-1.7566,-1.7689,-1.7735,-1.7789,-0.4058,-0.4205,-0.4404,-0.4462,-0.4462,-0.4462,-0.4462,-0.4462,-0.4462,-0.4462,-0.4462,-0.4462,-0.4462,-0.4462,-0.4462,-0.4462,-0.4462,-0.4462,-0.4462,-0.4462,-0.4462,-0.4462,-0.4462,-0.4462,-0.4462,-0.4462,-0.4462,-0.4462,-0.4462,-0.4462,-0.4462,-0.4462,-0.4519,-0.5024,-0.5751,-0.6253,-0.6968,-0.7734,-0.7931,-0.7772,-0.7595,-0.7391,-0.7194,-0.7154,-0.7101,-0.6975,-0.6975,-0.6975,-0.6975,-0.6975,-0.6975,-0.6975,-0.6975,-0.6975,-0.6975,-0.6975,-0.7017,-0.7321,-0.7991,-0.8353,-0.9199,-0.9883,-1.0127,-1.0288,-1.0322,-1.0322,-1.0322,-1.0322,-1.0322,-1.0322,-1.0322,-1.0322,-1.0322,-1.0322,-1.0654,-1.1099,-1.1394,-1.186,-1.2472,-1.2937,-1.3198,-1.3204,-1.321,-1.321,-1.3273,-1.3363,-1.3486,-1.4123,-1.479,-1.5027,-1.5264,-1.5607,-1.5814,-1.5814,-1.5814,-1.5814,-1.5814,-1.5814,-1.5814,-1.5814,-1.5814,-1.5814,-1.5814,-1.5814,-1.5835,-1.5885,-1.6067,-1.6301,-1.6448,-1.6651,-1.6909,-1.7232,-1.7557,-1.7712,-1.7789,-0.4099,-0.4192,-0.4392,-0.4505,-0.4506,-0.4508,-0.4462,-0.4462,-0.4462,-0.4462,-0.4462,-0.4462,-0.4462,-0.4462,-0.4462,-0.4462,-0.4462,-0.4462,-0.4462,-0.4462,-0.4462,-0.4462,-0.4462,-0.4462,-0.4462,-0.4462,-0.4462,-0.4462,-0.4462,-0.4462,-0.4462,-0.4462,-0.4462,-0.4974,-0.5572,-0.6145,-0.7017,-0.7774,-0.8205,-0.8106,-0.7916,-0.7652,-0.7472,-0.7365,-0.7228,-0.7098,-0.7051,-0.6975,-0.6975,-0.6975,-0.6975,-0.6975,-0.6975,-0.6975,-0.6975,-0.6975,-0.6975,-0.7318,-0.7663,-0.7942,-0.8553,-0.9359,-0.9917,-1.0162,-1.0322,-1.0322,-1.0322,-1.0322,-1.0322,-1.0322,-1.0322,-1.0322,-1.0322,-1.0505,-1.0764,-1.1044,-1.1242,-1.1737,-1.2407,-1.2841,-1.3057,-1.3151,-1.3204,-1.321,-1.321,-1.3295,-1.3452,-1.3802,-1.4456,-1.5047,-1.5294,-1.5666,-1.5814,-1.5814,-1.5814,-1.5814,-1.5814,-1.5814,-1.5814,-1.5814,-1.5814,-1.5814,-1.5814,-1.5814,-1.5814,-1.5863,-1.5962,-1.5991,-1.6011,-1.6274,-1.6554,-1.6977,-1.7344,-1.7681,-1.7789,-0.3883,-0.3949,-0.4202,-0.4309,-0.4326,-0.4419,-0.4462,-0.4462,-0.4462,-0.4462,-0.4462,-0.4462,-0.4462,-0.4462,-0.4462,-0.4462,-0.4462,-0.4462,-0.4462,-0.4462,-0.4462,-0.4462,-0.4462,-0.4462,-0.4462,-0.4462,-0.4462,-0.4462,-0.4462,-0.4462,-0.4462,-0.4462,-0.4462,-0.4917,-0.5303,-0.5727,-0.6725,-0.7571,-0.8088,-0.8223,-0.8154,-0.7902,-0.7749,-0.7587,-0.7439,-0.7241,-0.7098,-0.7031,-0.7021,-0.6975,-0.6975,-0.6975,-0.6975,-0.6975,-0.6975,-0.6975,-0.7017,-0.7105,-0.7314,-0.7659,-0.8197,-0.8837,-0.9439,-0.9922,-1.0166,-1.0322,-1.0322,-1.0322,-1.0322,-1.0322,-1.0322,-1.0322,-1.0322,-1.0472,-1.0659,-1.0782,-1.0979,-1.1426,-1.21,-1.2698,-1.292,-1.3157,-1.321,-1.321,-1.3239,-1.3295,-1.3452,-1.3735,-1.4136,-1.4696,-1.5204,-1.5573,-1.5712,-1.5675,-1.5777,-1.5814,-1.5814,-1.5814,-1.5814,-1.5814,-1.5814,-1.5814,-1.5814,-1.5814,-1.5814,-1.5814,-1.5835,-1.5863,-1.5885,-1.5962,-1.6246,-1.6722,-1.7142,-1.7479,-1.7758,-0.3835,-0.3826,-0.4004,-0.4138,-0.4215,-0.4402,-0.4462,-0.4462,-0.4462,-0.4462,-0.4462,-0.4462,-0.4462,-0.4462,-0.4462,-0.4462,-0.4462,-0.4462,-0.4462,-0.4462,-0.4462,-0.4462,-0.4462,-0.4462,-0.4462,-0.4462,-0.4462,-0.4462,-0.4462,-0.4462,-0.4462,-0.4462,-0.4462,-0.4746,-0.5077,-0.5445,-0.5964,-0.6833,-0.7509,-0.7981,-0.8117,-0.8105,-0.8009,-0.7852,-0.7705,-0.7378,-0.7208,-0.7138,-0.6999,-0.6979,-0.6975,-0.6975,-0.6975,-0.6975,-0.6975,-0.6975,-0.6975,-0.7017,-0.7101,-0.7318,-0.7852,-0.8382,-0.8954,-0.9562,-1.0044,-1.0322,-1.0322,-1.0322,-1.0322,-1.0322,-1.0322,-1.0322,-1.0322,-1.0322,-1.0376,-1.0429,-1.0742,-1.1067,-1.1704,-1.2401,-1.2808,-1.3098,-1.321,-1.321,-1.3204,-1.3267,-1.3357,-1.3575,-1.3947,-1.4397,-1.4909,-1.5322,-1.5448,-1.5514,-1.5646,-1.5814,-1.5814,-1.5814,-1.5814,-1.5814,-1.5814,-1.5814,-1.5814,-1.5814,-1.5814,-1.5814,-1.5814,-1.5814,-1.5835,-1.5913,-1.6067,-1.6501,-1.6926,-1.728,-1.7534,-0.3773,-0.3783,-0.3953,-0.4066,-0.4205,-0.4399,-0.4462,-0.4462,-0.4462,-0.4462,-0.4462,-0.4462,-0.4462,-0.4462,-0.4462,-0.4462,-0.4462,-0.4462,-0.4462,-0.4462,-0.4462,-0.4462,-0.4462,-0.4462,-0.4462,-0.4462,-0.4462,-0.4462,-0.4462,-0.4462,-0.4462,-0.4462,-0.4462,-0.4575,-0.4684,-0.5062,-0.5429,-0.5734,-0.6645,-0.7382,-0.7781,-0.8078,-0.838,-0.8299,-0.7963,-0.7594,-0.7452,-0.7291,-0.7045,-0.7038,-0.7025,-0.7084,-0.6979,-0.6975,-0.6975,-0.6975,-0.6975,-0.6975,-0.6975,-0.7101,-0.7513,-0.8005,-0.85,-0.9319,-0.9922,-1.0283,-1.0322,-1.0322,-1.0322,-1.0322,-1.0322,-1.0322,-1.0322,-1.0322,-1.0332,-1.0376,-1.0527,-1.1035,-1.1782,-1.2418,-1.2867,-1.3145,-1.321,-1.321,-1.321,-1.3198,-1.326,-1.3452,-1.3669,-1.4064,-1.4575,-1.5036,-1.5225,-1.5381,-1.5683,-1.5814,-1.5814,-1.5814,-1.5814,-1.5814,-1.5814,-1.5814,-1.5814,-1.5814,-1.5814,-1.5814,-1.5814,-1.5814,-1.5814,-1.5863,-1.6039,-1.6328,-1.6686,-1.701,-1.7408,-0.3676,-0.3701,-0.3912,-0.4107,-0.4207,-0.4401,-0.4462,-0.4462,-0.4462,-0.4462,-0.4462,-0.4462,-0.4462,-0.4462,-0.4462,-0.4462,-0.4462,-0.4462,-0.4462,-0.4462,-0.4462,-0.4462,-0.4462,-0.4462,-0.4462,-0.4462,-0.4462,-0.4462,-0.4462,-0.4462,-0.4462,-0.4462,-0.4462,-0.4462,-0.4517,-0.4787,-0.4838,-0.4941,-0.5594,-0.6684,-0.7422,-0.7715,-0.7985,-0.8184,-0.8078,-0.7973,-0.7819,-0.7742,-0.754,-0.7453,-0.7398,-0.7251,-0.7037,-0.6985,-0.6979,-0.6975,-0.6975,-0.6975,-0.6975,-0.7059,-0.7398,-0.7972,-0.859,-0.9315,-0.9883,-1.0162,-1.0322,-1.0322,-1.0322,-1.0322,-1.0322,-1.0322,-1.0322,-1.0322,-1.0322,-1.0322,-1.0322,-1.1057,-1.1861,-1.2372,-1.2869,-1.3091,-1.3198,-1.321,-1.321,-1.321,-1.321,-1.3301,-1.3301,-1.3615,-1.4214,-1.4665,-1.5006,-1.5262,-1.5588,-1.5814,-1.5814,-1.5814,-1.5814,-1.5814,-1.5814,-1.5814,-1.5814,-1.5814,-1.5814,-1.5814,-1.5814,-1.5814,-1.5806,-1.5835,-1.5906,-1.6171,-1.6328,-1.6607,-1.7109,-0.358,-0.3619,-0.3897,-0.4016,-0.4123,-0.437,-0.4462,-0.4462,-0.4462,-0.4462,-0.4462,-0.4462,-0.4462,-0.4462,-0.4462,-0.4462,-0.4462,-0.4462,-0.4462,-0.4462,-0.4462,-0.4462,-0.4462,-0.4462,-0.4462,-0.4462,-0.4462,-0.4462,-0.4462,-0.4462,-0.4462,-0.4462,-0.4462,-0.4462,-0.4462,-0.4462,-0.4462,-0.4515,-0.495,-0.571,-0.6797,-0.7047,-0.7514,-0.7893,-0.7958,-0.7932,-0.8111,-0.8016,-0.7802,-0.7715,-0.7694,-0.7369,-0.7207,-0.7161,-0.7138,-0.7061,-0.6975,-0.6975,-0.6975,-0.7105,-0.7423,-0.8017,-0.8476,-0.9164,-1.004,-1.0322,-1.0322,-1.0322,-1.0322,-1.0322,-1.0322,-1.0322,-1.0322,-1.0322,-1.0322,-1.0322,-1.0582,-1.1142,-1.1651,-1.2025,-1.2578,-1.3151,-1.321,-1.321,-1.321,-1.321,-1.321,-1.321,-1.321,-1.3204,-1.3815,-1.4285,-1.4627,-1.4998,-1.5292,-1.5588,-1.5814,-1.5814,-1.5814,-1.5814,-1.5814,-1.5814,-1.5814,-1.5814,-1.5814,-1.5814,-1.5814,-1.5814,-1.5814,-1.5814,-1.5856,-1.5934,-1.6088,-1.6274,-1.6678,-0.358,-0.3665,-0.3873,-0.399,-0.4034,-0.4307,-0.4428,-0.4433,-0.4508,-0.4462,-0.4462,-0.4462,-0.4462,-0.4462,-0.4462,-0.4462,-0.4462,-0.4462,-0.4462,-0.4462,-0.4462,-0.4462,-0.4462,-0.4462,-0.4462,-0.4462,-0.4462,-0.4462,-0.4462,-0.4462,-0.4462,-0.4462,-0.4462,-0.4462,-0.4462,-0.4462,-0.4462,-0.4462,-0.4679,-0.4893,-0.5494,-0.6093,-0.6784,-0.7197,-0.7474,-0.7716,-0.803,-0.8203,-0.8007,-0.7909,-0.7913,-0.7625,-0.7432,-0.7345,-0.7181,-0.7108,-0.6975,-0.6975,-0.6975,-0.7017,-0.7542,-0.8086,-0.843,-0.9003,-0.9878,-1.0278,-1.0278,-1.0283,-1.0283,-1.0322,-1.0322,-1.0322,-1.0322,-1.0322,-1.0322,-1.0322,-1.0736,-1.1121,-1.1466,-1.1757,-1.2363,-1.3,-1.3204,-1.321,-1.321,-1.321,-1.321,-1.321,-1.321,-1.3239,-1.3486,-1.3868,-1.4181,-1.4557,-1.5036,-1.5418,-1.5748,-1.5814,-1.5814,-1.5814,-1.5814,-1.5814,-1.5814,-1.5814,-1.5814,-1.5814,-1.5814,-1.5814,-1.5814,-1.5814,-1.5835,-1.5885,-1.5955,-1.6143,-1.6301,-0.358,-0.3597,-0.3765,-0.3838,-0.3885,-0.4161,-0.4289,-0.4256,-0.4411,-0.4462,-0.4462,-0.4462,-0.4462,-0.4462,-0.4462,-0.4462,-0.4462,-0.4462,-0.4462,-0.4462,-0.4462,-0.4462,-0.4462,-0.4462,-0.4462,-0.4462,-0.4462,-0.4462,-0.4462,-0.4462,-0.4462,-0.4462,-0.4462,-0.4462,-0.4462,-0.4462,-0.4462,-0.4462,-0.4462,-0.4624,-0.4785,-0.5384,-0.6036,-0.6661,-0.7357,-0.76,-0.7896,-0.8407,-0.8401,-0.8303,-0.8079,-0.7889,-0.7742,-0.7572,-0.7405,-0.7224,-0.7124,-0.7028,-0.7035,-0.7038,-0.7525,-0.7489,-0.7889,-0.8586,-0.9381,-1.0064,-1.0108,-1.0196,-1.0239,-1.0322,-1.0322,-1.0322,-1.0322,-1.0322,-1.0322,-1.0322,-1.051,-1.0891,-1.1271,-1.1698,-1.2218,-1.2731,-1.3094,-1.3135,-1.321,-1.321,-1.321,-1.321,-1.321,-1.3239,-1.3226,-1.3514,-1.3802,-1.4367,-1.4968,-1.5381,-1.5675,-1.5748,-1.5814,-1.5814,-1.5814,-1.5814,-1.5814,-1.5814,-1.5814,-1.5814,-1.5814,-1.5814,-1.5814,-1.5814,-1.5814,-1.5835,-1.5906,-1.5955,-1.6088]}]]